Darstellungsparameter: Aktuell verwendete Einstellungen:
Skalierung der Graphiken ... ?
xyx+y,   Skalierungsfaktor:      Skalierung: Modus: x, Faktor: 1
Darstellungszeitraum ... ?
Vom - - bis: - -   Zeitraum: 11.09.2010 - 11.10.2010
Min/Max/Avg-Anzeige ... ?
Zeige MMA aktuell
Zeige MMA Monat
Zeige MMA alles
Zeige --A aktuell
Zeige --A Monat
Zeige --A alles
Keine MMA-Anzeige
MMA:
Average (ber die Originaldaten)
MMA-Basis: 11.09.2010 - 11.10.2010
Quicknavigation für Darstellung... ?
Tage:      1T, 2T, 3T, 5T -1T -2T -3T -5T +1T +2T +3T +5T
Wochen: 1W, 2W, 3W -1W -2W -3W +1W +2W +3W
Monate: 1M, 3M, 6M -1M -3M -6M +1M +3M +6M
Jahre:    1J, 3J, 5J, 10J -1J -3J -5J -10J +1J +3J +5J +10J
Nutze für die Darstellung ... ?
Originaldaten oder Mittelwerte auf ...
Stundenbasis Tagesbasis Wochenbasis
Monatsbasis Jahresbasis      Datenbasis: Original-Daten
Darstellen als:
Statistik (Auto) Statistik J:M      Darstellung:
Zur Graphik,    zurück zur Übersicht aller Sensoren.
 
Tabellarische Datenbersicht: ?
 
Sensor: Nr:Datum:Temp:Abs-Feuchte:Windchill:Wind:
Aussen-T/F 1 11-09-2010 00:09:03 15.2 C 10.9 g/m*3 15.2 C 0 km/h
2 11-09-2010 00:21:03 15.2 C 10.9 g/m*3 15.2 C 0 km/h
3 11-09-2010 00:33:03 15.1 C 10.84 g/m*3 15.1 C 0 km/h
4 11-09-2010 00:45:03 15.1 C 10.84 g/m*3 15.1 C 0 km/h
5 11-09-2010 00:57:03 15.1 C 10.84 g/m*3 15.1 C 0 km/h
6 11-09-2010 01:09:03 15.1 C 10.84 g/m*3 15.1 C 0 km/h
7 11-09-2010 01:21:03 15 C 10.77 g/m*3 15 C 0 km/h
8 11-09-2010 01:33:03 15 C 10.77 g/m*3 15 C 0 km/h
9 11-09-2010 01:45:04 15 C 10.77 g/m*3 15 C 0 km/h
10 11-09-2010 01:57:04 14.9 C 10.83 g/m*3 14.9 C 0 km/h
11 11-09-2010 02:09:04 14.9 C 10.83 g/m*3 14.9 C 0 km/h
12 11-09-2010 02:21:04 14.8 C 10.77 g/m*3 14.8 C 0 km/h
13 11-09-2010 02:33:04 14.7 C 10.58 g/m*3 14.7 C 0 km/h
14 11-09-2010 02:45:04 14.7 C 10.7 g/m*3 14.7 C 0 km/h
15 11-09-2010 02:57:04 14.6 C 10.76 g/m*3 14.6 C 0 km/h
16 11-09-2010 03:09:04 14.4 C 10.63 g/m*3 14.4 C 0 km/h
17 11-09-2010 03:21:04 14.3 C 10.57 g/m*3 14.3 C 0 km/h
18 11-09-2010 03:33:04 14.1 C 10.44 g/m*3 14.1 C 0 km/h
19 11-09-2010 03:45:04 14 C 10.37 g/m*3 14 C 0 km/h
20 11-09-2010 03:57:04 13.6 C 10.12 g/m*3 13.6 C 0 km/h
21 11-09-2010 04:09:04 13.5 C 10.06 g/m*3 13.5 C 0 km/h
22 11-09-2010 04:21:04 13.3 C 9.94 g/m*3 13.3 C 0 km/h
23 11-09-2010 04:33:04 13.1 C 9.81 g/m*3 13.1 C 0 km/h
24 11-09-2010 04:45:04 13 C 9.75 g/m*3 13 C 0 km/h
25 11-09-2010 04:57:04 12.8 C 9.74 g/m*3 12.8 C 0 km/h
Sensor: Nr:Datum:Temp:Abs-Feuchte:Windchill:Wind:
Aussen-T/F 26 11-09-2010 05:09:04 12.6 C 9.62 g/m*3 12.6 C 0 km/h
27 11-09-2010 05:21:04 12.5 C 9.68 g/m*3 12.5 C 0 km/h
28 11-09-2010 05:33:04 12.6 C 9.74 g/m*3 12.6 C 0 km/h
29 11-09-2010 05:45:05 12.7 C 9.91 g/m*3 12.7 C 0 km/h
30 11-09-2010 05:57:05 12.8 C 9.97 g/m*3 12.8 C 0 km/h
31 11-09-2010 06:09:05 13 C 10.09 g/m*3 13 C 0 km/h
32 11-09-2010 06:21:05 13.1 C 10.16 g/m*3 13.1 C 0 km/h
33 11-09-2010 06:33:05 12.8 C 9.97 g/m*3 12.8 C 0 km/h
34 11-09-2010 06:45:05 12.5 C 9.78 g/m*3 12.5 C 0 km/h
35 11-09-2010 06:57:05 12.3 C 9.56 g/m*3 12.3 C 0 km/h
36 11-09-2010 07:09:05 12.1 C 9.44 g/m*3 12.1 C 0 km/h
37 11-09-2010 07:21:05 12.1 C 9.44 g/m*3 12.1 C 0 km/h
38 11-09-2010 07:33:05 12.1 C 9.54 g/m*3 12.1 C 0 km/h
39 11-09-2010 07:45:05 12.1 C 9.54 g/m*3 12.1 C 0 km/h
40 11-09-2010 07:57:05 12.4 C 9.72 g/m*3 12.4 C 0 km/h
41 11-09-2010 08:09:05 12.7 C 10.02 g/m*3 12.7 C 0 km/h
42 11-09-2010 08:21:03 13 C 10.21 g/m*3 13 C 0 km/h
43 11-09-2010 08:33:02 13 C 10.21 g/m*3 13 C 0 km/h
44 11-09-2010 08:45:02 13.1 C 10.27 g/m*3 13.1 C 0 km/h
45 11-09-2010 08:57:02 13.4 C 10.46 g/m*3 13.4 C 0 km/h
46 11-09-2010 09:09:02 13.4 C 10.35 g/m*3 13.4 C 0 km/h
47 11-09-2010 09:21:02 13.5 C 10.41 g/m*3 13.5 C 0 km/h
48 11-09-2010 09:33:02 13.7 C 10.54 g/m*3 13.7 C 0 km/h
49 11-09-2010 09:45:01 13.9 C 10.67 g/m*3 13.9 C 0 km/h
50 11-09-2010 09:57:01 14.3 C 10.81 g/m*3 14.3 C 0 km/h
Sensor: Nr:Datum:Temp:Abs-Feuchte:Windchill:Wind:
Aussen-T/F 51 11-09-2010 10:09:02 14.7 C 11.08 g/m*3 14.7 C 0 km/h
52 11-09-2010 10:21:01 15 C 11.03 g/m*3 15 C 0 km/h
53 11-09-2010 10:33:01 15.6 C 11.3 g/m*3 15.6 C 0 km/h
54 11-09-2010 10:45:01 16.2 C 11.45 g/m*3 16.2 C 0 km/h
55 11-09-2010 10:57:01 16.8 C 11.72 g/m*3 16.8 C 0 km/h
56 11-09-2010 11:09:01 17.1 C 11.5 g/m*3 17.1 C 0 km/h
57 11-09-2010 11:21:02 17.5 C 11.18 g/m*3 17.5 C 0 km/h
58 11-09-2010 11:33:01 18.2 C 11.35 g/m*3 18.2 C 0 km/h
59 11-09-2010 11:45:03 19.1 C 11.31 g/m*3 19.1 C 0 km/h
60 11-09-2010 11:57:03 19.3 C 11.44 g/m*3 19.3 C 0 km/h
61 11-09-2010 12:09:02 19.2 C 9.89 g/m*3 19.2 C 0 km/h
62 11-09-2010 12:21:02 19.6 C 9.96 g/m*3 19.6 C 0 km/h
63 11-09-2010 12:33:02 19.9 C 9.45 g/m*3 19.9 C 0 km/h
64 11-09-2010 12:45:02 20.2 C 9.27 g/m*3 20.2 C 0 km/h
65 11-09-2010 12:57:02 20.6 C 9.31 g/m*3 20.6 C 0 km/h
66 11-09-2010 13:09:02 20.9 C 9.11 g/m*3 20.9 C 0 km/h
67 11-09-2010 13:21:02 21.3 C 8.76 g/m*3 21.3 C 0 km/h
68 11-09-2010 13:33:01 21.7 C 8.97 g/m*3 21.7 C 0 km/h
69 11-09-2010 13:45:02 22.2 C 8.44 g/m*3 22.2 C 0 km/h
70 11-09-2010 13:57:03 22.7 C 8.69 g/m*3 22.7 C 0 km/h
71 11-09-2010 14:09:01 23.3 C 8.15 g/m*3 23.3 C 0 km/h
72 11-09-2010 14:21:01 23.9 C 8.44 g/m*3 23.9 C 0 km/h
73 11-09-2010 14:33:02 24.3 C 8.19 g/m*3 24.3 C 0 km/h
74 11-09-2010 14:45:02 24.5 C 7.83 g/m*3 24.5 C 0 km/h
75 11-09-2010 14:57:02 25 C 8.06 g/m*3 25 C 0 km/h
Sensor: Nr:Datum:Temp:Abs-Feuchte:Windchill:Wind:
Aussen-T/F 76 11-09-2010 15:09:02 25.6 C 8.09 g/m*3 25.6 C 0 km/h
77 11-09-2010 15:21:02 25.7 C 7.9 g/m*3 25.7 C 0 km/h
78 11-09-2010 15:33:02 25.6 C 8.57 g/m*3 25.6 C 0 km/h
79 11-09-2010 15:45:02 26.5 C 7.51 g/m*3 26.5 C 0 km/h
80 11-09-2010 15:57:02 26.8 C 7.13 g/m*3 26.8 C 0 km/h
81 11-09-2010 16:09:02 25.7 C 7.66 g/m*3 25.7 C 0 km/h
82 11-09-2010 16:21:02 25.3 C 9.13 g/m*3 25.3 C 0 km/h
83 11-09-2010 16:33:02 26.5 C 8.01 g/m*3 26.5 C 0 km/h
84 11-09-2010 16:45:02 26.4 C 7.72 g/m*3 26.4 C 0 km/h
85 11-09-2010 16:57:02 27.8 C 8.34 g/m*3 27.8 C 0 km/h
86 11-09-2010 17:09:02 28 C 7.61 g/m*3 28 C 0 km/h
87 11-09-2010 17:21:02 27.3 C 7.85 g/m*3 27.3 C 0 km/h
88 11-09-2010 17:33:02 27.5 C 8.47 g/m*3 27.5 C 0 km/h
89 11-09-2010 17:45:02 27.6 C 8.78 g/m*3 27.6 C 0 km/h
90 11-09-2010 17:57:02 27.7 C 8.83 g/m*3 27.7 C 0 km/h
91 11-09-2010 18:09:02 27.5 C 9.26 g/m*3 27.5 C 0 km/h
92 11-09-2010 18:21:02 26.8 C 9.16 g/m*3 26.8 C 0 km/h
93 11-09-2010 18:33:01 26.3 C 8.91 g/m*3 26.3 C 0 km/h
94 11-09-2010 18:45:02 25.3 C 9.36 g/m*3 25.3 C 0 km/h
95 11-09-2010 18:57:02 24.4 C 9.57 g/m*3 24.4 C 0 km/h
96 11-09-2010 19:09:01 23.7 C 9.63 g/m*3 23.7 C 0 km/h
97 11-09-2010 19:21:02 22.6 C 9.64 g/m*3 22.6 C 0 km/h
98 11-09-2010 19:33:02 21.6 C 10.05 g/m*3 21.6 C 0 km/h
99 11-09-2010 19:45:02 20.7 C 9.72 g/m*3 20.7 C 0 km/h
100 11-09-2010 19:57:02 20.2 C 9.44 g/m*3 20.2 C 0 km/h
Sensor: Nr:Datum:Temp:Abs-Feuchte:Windchill:Wind:
Aussen-T/F 101 11-09-2010 20:09:02 20 C 9.33 g/m*3 20 C 0 km/h
102 11-09-2010 20:21:02 19.5 C 9.4 g/m*3 19.5 C 0 km/h
103 11-09-2010 20:33:02 19.3 C 9.45 g/m*3 19.3 C 0 km/h
104 11-09-2010 20:45:01 19.1 C 9.67 g/m*3 19.1 C 0 km/h
105 11-09-2010 20:57:01 18.8 C 9.66 g/m*3 18.8 C 0 km/h
106 11-09-2010 21:09:02 18.6 C 9.71 g/m*3 18.6 C 0 km/h
107 11-09-2010 21:21:01 18.4 C 9.91 g/m*3 18.4 C 0 km/h
108 11-09-2010 21:33:01 18.2 C 10.1 g/m*3 18.2 C 0 km/h
109 11-09-2010 21:45:01 17.7 C 10.11 g/m*3 17.7 C 0 km/h
110 11-09-2010 21:57:01 17.6 C 10.2 g/m*3 17.6 C 0 km/h
111 11-09-2010 22:09:02 17.6 C 10.2 g/m*3 17.6 C 0 km/h
112 11-09-2010 22:21:01 17.4 C 10.23 g/m*3 17.4 C 0 km/h
113 11-09-2010 22:34:03 17.2 C 10.1 g/m*3 17.2 C 0 km/h
114 11-09-2010 22:46:03 16.9 C 10.36 g/m*3 16.9 C 0 km/h
115 11-09-2010 22:58:03 16.9 C 10.5 g/m*3 16.9 C 0 km/h
116 11-09-2010 23:10:03 17 C 10.42 g/m*3 17 C 0 km/h
117 11-09-2010 23:22:03 16.6 C 10.45 g/m*3 16.6 C 0 km/h
118 11-09-2010 23:34:03 16.5 C 10.39 g/m*3 16.5 C 0 km/h
119 11-09-2010 23:46:03 16.4 C 10.33 g/m*3 16.4 C 0 km/h
120 11-09-2010 23:58:03 16.3 C 10.41 g/m*3 16.3 C 0 km/h
121 12-09-2010 00:10:03 16.2 C 10.48 g/m*3 16.2 C 0 km/h
122 12-09-2010 00:22:03 16.2 C 10.48 g/m*3 16.2 C 0 km/h
123 12-09-2010 00:34:03 16.1 C 10.42 g/m*3 16.1 C 0 km/h
124 12-09-2010 00:46:03 16 C 10.35 g/m*3 16 C 0 km/h
125 12-09-2010 00:58:03 15.8 C 10.36 g/m*3 15.8 C 0 km/h
Sensor: Nr:Datum:Temp:Abs-Feuchte:Windchill:Wind:
Aussen-T/F 126 12-09-2010 01:10:03 15.6 C 10.37 g/m*3 15.6 C 0 km/h
127 12-09-2010 01:22:04 15.5 C 10.31 g/m*3 15.5 C 0 km/h
128 12-09-2010 01:34:04 15.2 C 10.25 g/m*3 15.2 C 0 km/h
129 12-09-2010 01:46:04 15.2 C 10.38 g/m*3 15.2 C 0 km/h
130 12-09-2010 01:58:04 15.2 C 10.38 g/m*3 15.2 C 0 km/h
131 12-09-2010 02:10:04 15 C 10.26 g/m*3 15 C 0 km/h
132 12-09-2010 02:22:04 15 C 10.39 g/m*3 15 C 0 km/h
133 12-09-2010 02:34:04 14.9 C 10.45 g/m*3 14.9 C 0 km/h
134 12-09-2010 02:46:04 14.8 C 10.51 g/m*3 14.8 C 0 km/h
135 12-09-2010 02:58:04 14.7 C 10.32 g/m*3 14.7 C 0 km/h
136 12-09-2010 03:10:04 14.7 C 10.32 g/m*3 14.7 C 0 km/h
137 12-09-2010 03:22:04 14.6 C 10.26 g/m*3 14.6 C 0 km/h
138 12-09-2010 03:34:04 14.4 C 10.14 g/m*3 14.4 C 0 km/h
139 12-09-2010 03:46:04 14.3 C 10.07 g/m*3 14.3 C 0 km/h
140 12-09-2010 03:58:04 14.3 C 10.2 g/m*3 14.3 C 0 km/h
141 12-09-2010 04:10:04 14.2 C 10.14 g/m*3 14.2 C 0 km/h
142 12-09-2010 04:22:04 14.1 C 10.07 g/m*3 14.1 C 0 km/h
143 12-09-2010 04:34:05 14.1 C 10.07 g/m*3 14.1 C 0 km/h
144 12-09-2010 04:46:05 14.1 C 10.07 g/m*3 14.1 C 0 km/h
145 12-09-2010 04:58:05 14 C 10.01 g/m*3 14 C 0 km/h
146 12-09-2010 05:10:05 13.9 C 10.07 g/m*3 13.9 C 0 km/h
147 12-09-2010 05:22:05 13.7 C 9.95 g/m*3 13.7 C 0 km/h
148 12-09-2010 05:34:05 13.8 C 10.01 g/m*3 13.8 C 0 km/h
149 12-09-2010 05:46:05 13.7 C 9.95 g/m*3 13.7 C 0 km/h
150 12-09-2010 05:58:05 13.7 C 9.95 g/m*3 13.7 C 0 km/h
Sensor: Nr:Datum:Temp:Abs-Feuchte:Windchill:Wind:
Aussen-T/F 151 12-09-2010 06:10:05 13.7 C 9.95 g/m*3 13.7 C 0 km/h
152 12-09-2010 06:22:05 13.5 C 9.94 g/m*3 13.5 C 0 km/h
153 12-09-2010 06:34:05 13.5 C 9.94 g/m*3 13.5 C 0 km/h
154 12-09-2010 06:46:05 13.5 C 9.94 g/m*3 13.5 C 0 km/h
155 12-09-2010 06:58:05 13.4 C 9.88 g/m*3 13.4 C 0 km/h
156 12-09-2010 07:10:05 13.5 C 9.94 g/m*3 13.5 C 0 km/h
157 12-09-2010 07:22:05 13.5 C 10.06 g/m*3 13.5 C 0 km/h
158 12-09-2010 07:34:05 13.6 C 10.12 g/m*3 13.6 C 0 km/h
159 12-09-2010 07:46:02 13.8 C 10.25 g/m*3 13.8 C 0 km/h
160 12-09-2010 07:58:02 14.1 C 10.32 g/m*3 14.1 C 0 km/h
161 12-09-2010 08:10:02 14.1 C 10.32 g/m*3 14.1 C 0 km/h
162 12-09-2010 08:22:01 14.4 C 10.38 g/m*3 14.4 C 0 km/h
163 12-09-2010 08:34:02 14.5 C 10.32 g/m*3 14.5 C 0 km/h
164 12-09-2010 08:46:02 14 C 10.13 g/m*3 14 C 0 km/h
165 12-09-2010 08:58:02 14.3 C 10.32 g/m*3 14.3 C 0 km/h
166 12-09-2010 09:10:02 14.8 C 10.64 g/m*3 14.8 C 0 km/h
167 12-09-2010 09:22:02 14.8 C 10.39 g/m*3 14.8 C 0 km/h
168 12-09-2010 09:34:02 14.8 C 10.51 g/m*3 14.8 C 0 km/h
169 12-09-2010 09:46:02 15 C 10.51 g/m*3 15 C 0 km/h
170 12-09-2010 09:58:02 14.8 C 10.51 g/m*3 14.8 C 0 km/h
171 12-09-2010 10:10:02 15.3 C 10.84 g/m*3 15.3 C 0 km/h
172 12-09-2010 10:22:03 15.9 C 11.1 g/m*3 15.9 C 0 km/h
173 12-09-2010 10:34:02 16.8 C 11.29 g/m*3 16.8 C 0 km/h
174 12-09-2010 10:46:02 18 C 11.37 g/m*3 18 C 0 km/h
175 12-09-2010 10:58:02 18.7 C 11.05 g/m*3 18.7 C 0 km/h
Sensor: Nr:Datum:Temp:Abs-Feuchte:Windchill:Wind:
Aussen-T/F 176 12-09-2010 11:10:02 19.5 C 10.41 g/m*3 19.5 C 0 km/h
177 12-09-2010 11:22:02 20.2 C 10.67 g/m*3 20.2 C 0 km/h
178 12-09-2010 11:34:02 20.1 C 10.6 g/m*3 20.1 C 0 km/h
179 12-09-2010 11:46:02 20 C 10.89 g/m*3 20 C 0 km/h
180 12-09-2010 11:58:02 20.3 C 10.9 g/m*3 20.3 C 0 km/h
181 12-09-2010 12:10:01 20.5 C 10.85 g/m*3 20.5 C 0 km/h
182 12-09-2010 12:22:02 20.9 C 11.11 g/m*3 20.9 C 0 km/h
183 12-09-2010 12:34:01 21.4 C 11.06 g/m*3 21.4 C 0 km/h
184 12-09-2010 12:46:01 22.4 C 10.33 g/m*3 22.4 C 0 km/h
185 12-09-2010 12:58:02 22.9 C 10.22 g/m*3 22.9 C 0 km/h
186 12-09-2010 13:10:01 23.1 C 10.34 g/m*3 23.1 C 0 km/h
187 12-09-2010 13:22:01 23.7 C 10.48 g/m*3 23.7 C 0 km/h
188 12-09-2010 13:34:02 24.3 C 9.74 g/m*3 24.3 C 0 km/h
189 12-09-2010 13:46:02 25 C 8.98 g/m*3 25 C 0 km/h
190 12-09-2010 13:58:02 25.9 C 9.44 g/m*3 25.9 C 0 km/h
191 12-09-2010 14:10:02 25.7 C 9.34 g/m*3 25.7 C 0 km/h
192 12-09-2010 14:22:01 25 C 8.06 g/m*3 25 C 0 km/h
193 12-09-2010 14:34:02 24.7 C 8.15 g/m*3 24.7 C 0 km/h
194 12-09-2010 14:46:02 23.1 C 9.72 g/m*3 23.1 C 0 km/h
195 12-09-2010 14:58:02 20.8 C 10.14 g/m*3 20.8 C 0 km/h
196 12-09-2010 15:10:02 19.5 C 9.23 g/m*3 19.5 C 0 km/h
197 12-09-2010 15:22:02 19.1 C 8.69 g/m*3 19.1 C 0 km/h
198 12-09-2010 15:34:02 19.4 C 8.84 g/m*3 19.4 C 0 km/h
199 12-09-2010 15:46:02 19.4 C 8.84 g/m*3 19.4 C 0 km/h
200 12-09-2010 15:58:02 19.2 C 8.74 g/m*3 19.2 C 0 km/h
Sensor: Nr:Datum:Temp:Abs-Feuchte:Windchill:Wind:
Aussen-T/F 201 12-09-2010 16:10:02 17.9 C 8.86 g/m*3 17.9 C 0 km/h
202 12-09-2010 16:22:02 18.1 C 9.12 g/m*3 18.1 C 0 km/h
203 12-09-2010 16:34:02 18.1 C 9.27 g/m*3 18.1 C 0 km/h
204 12-09-2010 16:46:02 17.6 C 9.3 g/m*3 17.6 C 0 km/h
205 12-09-2010 16:58:02 17.2 C 9.37 g/m*3 17.2 C 0 km/h
206 12-09-2010 17:10:02 17.2 C 9.52 g/m*3 17.2 C 0 km/h
207 12-09-2010 17:22:02 16.6 C 9.04 g/m*3 16.6 C 0 km/h
208 12-09-2010 17:34:01 16.1 C 9.46 g/m*3 16.1 C 0 km/h
209 12-09-2010 17:46:02 15.6 C 9.97 g/m*3 15.6 C 0 km/h
210 12-09-2010 17:58:02 15.5 C 10.31 g/m*3 15.5 C 0 km/h
211 12-09-2010 18:10:01 15.2 C 10.25 g/m*3 15.2 C 0 km/h
212 12-09-2010 18:22:02 15.2 C 10.51 g/m*3 15.2 C 0 km/h
213 12-09-2010 18:34:02 14.9 C 10.58 g/m*3 14.9 C 0 km/h
214 12-09-2010 18:46:02 14.7 C 10.7 g/m*3 14.7 C 0 km/h
215 12-09-2010 18:58:02 14.6 C 10.89 g/m*3 14.6 C 0 km/h
216 12-09-2010 19:10:02 14.5 C 10.82 g/m*3 14.5 C 0 km/h
217 12-09-2010 19:22:02 14.3 C 10.69 g/m*3 14.3 C 0 km/h
218 12-09-2010 19:34:02 14.1 C 10.68 g/m*3 14.1 C 0 km/h
219 12-09-2010 19:46:01 14.3 C 10.93 g/m*3 14.3 C 0 km/h
220 12-09-2010 19:58:01 14.1 C 10.8 g/m*3 14.1 C 0 km/h
221 12-09-2010 20:10:02 14 C 10.74 g/m*3 14 C 0 km/h
222 12-09-2010 20:22:01 13.9 C 10.79 g/m*3 13.9 C 0 km/h
223 12-09-2010 20:34:01 13.8 C 10.84 g/m*3 13.8 C 0 km/h
224 12-09-2010 20:46:01 13.7 C 10.78 g/m*3 13.7 C 0 km/h
225 12-09-2010 20:58:01 13.7 C 10.89 g/m*3 13.7 C 0 km/h
Sensor: Nr:Datum:Temp:Abs-Feuchte:Windchill:Wind:
Aussen-T/F 226 12-09-2010 21:10:02 13.6 C 10.83 g/m*3 13.6 C 0 km/h
227 12-09-2010 21:22:01 13.7 C 10.89 g/m*3 13.7 C 0 km/h
228 12-09-2010 21:34:01 13.7 C 10.89 g/m*3 13.7 C 0 km/h
229 12-09-2010 21:46:01 13.9 C 11.15 g/m*3 13.9 C 0 km/h
230 12-09-2010 21:58:01 14 C 11.1 g/m*3 14 C 0 km/h
231 12-09-2010 22:10:02 13.9 C 11.15 g/m*3 13.9 C 0 km/h
232 12-09-2010 22:22:01 13.9 C 11.15 g/m*3 13.9 C 0 km/h
233 12-09-2010 22:34:02 13.8 C 11.08 g/m*3 13.8 C 0 km/h
234 12-09-2010 22:46:02 13.7 C 11.01 g/m*3 13.7 C 0 km/h
235 12-09-2010 22:58:02 13.6 C 10.95 g/m*3 13.6 C 0 km/h
236 12-09-2010 23:10:01 13.5 C 10.88 g/m*3 13.5 C 0 km/h
237 12-09-2010 23:22:02 13.5 C 10.88 g/m*3 13.5 C 0 km/h
238 12-09-2010 23:34:02 13.5 C 10.88 g/m*3 13.5 C 0 km/h
239 12-09-2010 23:46:02 13.7 C 11.01 g/m*3 13.7 C 0 km/h
240 12-09-2010 23:58:02 13.7 C 11.01 g/m*3 13.7 C 0 km/h
241 13-09-2010 00:10:03 13.7 C 11.01 g/m*3 13.7 C 0 km/h
242 13-09-2010 00:22:02 13.6 C 10.95 g/m*3 13.6 C 0 km/h
243 13-09-2010 00:34:02 13.7 C 11.01 g/m*3 13.7 C 0 km/h
244 13-09-2010 00:46:02 13.7 C 11.01 g/m*3 13.7 C 0 km/h
245 13-09-2010 00:58:02 13.7 C 11.01 g/m*3 13.7 C 0 km/h
246 13-09-2010 01:10:02 13.6 C 10.95 g/m*3 13.6 C 0 km/h
247 13-09-2010 01:22:03 13.7 C 11.01 g/m*3 13.7 C 0 km/h
248 13-09-2010 01:34:02 13.8 C 11.08 g/m*3 13.8 C 0 km/h
249 13-09-2010 01:46:02 13.7 C 11.01 g/m*3 13.7 C 0 km/h
250 13-09-2010 01:58:02 13.7 C 11.01 g/m*3 13.7 C 0 km/h
Sensor: Nr:Datum:Temp:Abs-Feuchte:Windchill:Wind:
Aussen-T/F 251 13-09-2010 02:10:02 13.7 C 11.01 g/m*3 13.7 C 0 km/h
252 13-09-2010 02:22:02 13.5 C 10.88 g/m*3 13.5 C 0 km/h
253 13-09-2010 02:34:02 13.4 C 10.81 g/m*3 13.4 C 0 km/h
254 13-09-2010 02:46:02 13.4 C 10.81 g/m*3 13.4 C 0 km/h
255 13-09-2010 02:58:02 13.6 C 10.95 g/m*3 13.6 C 0 km/h
256 13-09-2010 03:10:01 13.5 C 10.88 g/m*3 13.5 C 0 km/h
257 13-09-2010 03:22:01 13.3 C 10.63 g/m*3 13.3 C 0 km/h
258 13-09-2010 03:34:02 13.2 C 10.56 g/m*3 13.2 C 0 km/h
259 13-09-2010 03:46:02 13.2 C 10.45 g/m*3 13.2 C 0 km/h
260 13-09-2010 03:58:02 13.1 C 10.38 g/m*3 13.1 C 0 km/h
261 13-09-2010 04:10:01 13 C 10.21 g/m*3 13 C 0 km/h
262 13-09-2010 04:22:02 12.8 C 10.19 g/m*3 12.8 C 0 km/h
263 13-09-2010 04:34:01 12.9 C 10.26 g/m*3 12.9 C 0 km/h
264 13-09-2010 04:46:01 13.1 C 10.16 g/m*3 13.1 C 0 km/h
265 13-09-2010 04:58:02 13.2 C 10.22 g/m*3 13.2 C 0 km/h
266 13-09-2010 05:10:01 13.3 C 10.05 g/m*3 13.3 C 0 km/h
267 13-09-2010 05:22:01 13.3 C 9.82 g/m*3 13.3 C 0 km/h
268 13-09-2010 05:34:02 13.2 C 9.64 g/m*3 13.2 C 0 km/h
269 13-09-2010 05:46:01 13.2 C 9.64 g/m*3 13.2 C 0 km/h
270 13-09-2010 05:58:01 13.3 C 9.7 g/m*3 13.3 C 0 km/h
271 13-09-2010 06:10:02 13.4 C 9.76 g/m*3 13.4 C 0 km/h
272 13-09-2010 06:22:01 13.4 C 9.65 g/m*3 13.4 C 0 km/h
273 13-09-2010 06:34:01 13.3 C 9.59 g/m*3 13.3 C 0 km/h
274 13-09-2010 06:46:01 13.2 C 9.42 g/m*3 13.2 C 0 km/h
275 13-09-2010 06:58:01 13.2 C 9.42 g/m*3 13.2 C 0 km/h
Sensor: Nr:Datum:Temp:Abs-Feuchte:Windchill:Wind:
Aussen-T/F 276 13-09-2010 07:10:02 13 C 9.19 g/m*3 13 C 0 km/h
277 13-09-2010 07:22:01 13 C 9.3 g/m*3 13 C 0 km/h
278 13-09-2010 07:34:01 12.7 C 9.13 g/m*3 12.7 C 0 km/h
279 13-09-2010 07:46:01 12.5 C 9.13 g/m*3 12.5 C 0 km/h
280 13-09-2010 07:58:01 12.4 C 9.18 g/m*3 12.4 C 0 km/h
281 13-09-2010 08:10:01 12.5 C 9.35 g/m*3 12.5 C 0 km/h
282 13-09-2010 08:22:01 13 C 9.64 g/m*3 13 C 0 km/h
283 13-09-2010 08:34:01 13.1 C 9.7 g/m*3 13.1 C 0 km/h
284 13-09-2010 08:46:02 13.2 C 9.64 g/m*3 13.2 C 0 km/h
285 13-09-2010 08:58:02 13.4 C 9.76 g/m*3 13.4 C 0 km/h
286 13-09-2010 09:10:01 13.5 C 9.71 g/m*3 13.5 C 0 km/h
287 13-09-2010 09:22:02 13.7 C 9.71 g/m*3 13.7 C 0 km/h
288 13-09-2010 09:34:01 14 C 9.41 g/m*3 14 C 0 km/h
289 13-09-2010 09:46:02 14.2 C 9.28 g/m*3 14.2 C 0 km/h
290 13-09-2010 09:58:02 14.5 C 9.2 g/m*3 14.5 C 0 km/h
291 13-09-2010 10:10:01 14.8 C 9.25 g/m*3 14.8 C 0 km/h
292 13-09-2010 10:22:01 15 C 9.1 g/m*3 15 C 0 km/h
293 13-09-2010 10:34:02 15.3 C 9.14 g/m*3 15.3 C 0 km/h
294 13-09-2010 10:46:01 15.6 C 8.91 g/m*3 15.6 C 0 km/h
295 13-09-2010 10:58:01 15.9 C 8.8 g/m*3 15.9 C 0 km/h
296 13-09-2010 11:10:01 16 C 8.58 g/m*3 16 C 0 km/h
297 13-09-2010 11:22:01 16.4 C 8.65 g/m*3 16.4 C 0 km/h
298 13-09-2010 11:34:02 16.3 C 8.74 g/m*3 16.3 C 0 km/h
299 13-09-2010 11:46:01 17.1 C 8.59 g/m*3 17.1 C 0 km/h
300 13-09-2010 11:58:01 16.7 C 8.24 g/m*3 16.7 C 0 km/h
Sensor: Nr:Datum:Temp:Abs-Feuchte:Windchill:Wind:
Aussen-T/F 301 13-09-2010 12:10:02 16.4 C 8.23 g/m*3 16.4 C 0 km/h
302 13-09-2010 12:22:01 16.9 C 8.2 g/m*3 16.9 C 0 km/h
303 13-09-2010 12:34:01 17.6 C 7.8 g/m*3 17.6 C 0 km/h
304 13-09-2010 12:46:01 17.6 C 7.5 g/m*3 17.6 C 0 km/h
305 13-09-2010 12:58:01 17.7 C 7.85 g/m*3 17.7 C 0 km/h
306 13-09-2010 13:10:01 18 C 7.37 g/m*3 18 C 0 km/h
307 13-09-2010 13:22:01 18.9 C 7.78 g/m*3 18.9 C 0 km/h
308 13-09-2010 13:34:01 18.9 C 7.45 g/m*3 18.9 C 0 km/h
309 13-09-2010 13:46:01 18.7 C 7.2 g/m*3 18.7 C 0 km/h
310 13-09-2010 13:58:01 20.2 C 7.87 g/m*3 20.2 C 0 km/h
311 13-09-2010 14:10:01 19.9 C 7.22 g/m*3 19.9 C 0 km/h
312 13-09-2010 14:22:02 19.5 C 6.55 g/m*3 19.5 C 0 km/h
313 13-09-2010 14:34:01 19.6 C 6.75 g/m*3 19.6 C 0 km/h
314 13-09-2010 14:46:02 20.6 C 7.34 g/m*3 20.6 C 0 km/h
315 13-09-2010 14:58:02 21.3 C 6.9 g/m*3 21.3 C 0 km/h
316 13-09-2010 15:10:01 20.9 C 6.74 g/m*3 20.9 C 0 km/h
317 13-09-2010 15:22:01 21.3 C 6.9 g/m*3 21.3 C 0 km/h
318 13-09-2010 15:34:01 21.2 C 6.67 g/m*3 21.2 C 0 km/h
319 13-09-2010 15:46:01 20.6 C 7.16 g/m*3 20.6 C 0 km/h
320 13-09-2010 15:58:01 20 C 7.95 g/m*3 20 C 0 km/h
321 13-09-2010 16:10:01 20.8 C 7.97 g/m*3 20.8 C 0 km/h
322 13-09-2010 16:22:02 21.4 C 6.37 g/m*3 21.4 C 0 km/h
323 13-09-2010 16:34:01 21.4 C 7.5 g/m*3 21.4 C 0 km/h
324 13-09-2010 16:46:02 21.8 C 6.52 g/m*3 21.8 C 0 km/h
325 13-09-2010 16:58:02 22.4 C 6.16 g/m*3 22.4 C 0 km/h
Sensor: Nr:Datum:Temp:Abs-Feuchte:Windchill:Wind:
Aussen-T/F 326 13-09-2010 17:10:01 22.3 C 7.11 g/m*3 22.3 C 0 km/h
327 13-09-2010 17:22:01 20.5 C 7.65 g/m*3 20.5 C 0 km/h
328 13-09-2010 17:34:01 20.2 C 7.87 g/m*3 20.2 C 0 km/h
329 13-09-2010 17:46:01 19.8 C 8.37 g/m*3 19.8 C 0 km/h
330 13-09-2010 17:58:02 19.6 C 8.61 g/m*3 19.6 C 0 km/h
331 13-09-2010 18:10:02 18.9 C 8.75 g/m*3 18.9 C 0 km/h
332 13-09-2010 18:22:02 18.4 C 8.65 g/m*3 18.4 C 0 km/h
333 13-09-2010 18:34:01 18.2 C 8.55 g/m*3 18.2 C 0 km/h
334 13-09-2010 18:46:02 17.9 C 8.55 g/m*3 17.9 C 0 km/h
335 13-09-2010 18:58:02 17.7 C 8.6 g/m*3 17.7 C 0 km/h
336 13-09-2010 19:10:01 17.7 C 8.6 g/m*3 17.7 C 0 km/h
337 13-09-2010 19:22:02 17.5 C 8.5 g/m*3 17.5 C 0 km/h
338 13-09-2010 19:34:01 17 C 8.68 g/m*3 17 C 0 km/h
339 13-09-2010 19:46:02 16.4 C 8.51 g/m*3 16.4 C 0 km/h
340 13-09-2010 19:58:02 16 C 8.45 g/m*3 16 C 0 km/h
341 13-09-2010 20:10:01 15.6 C 8.64 g/m*3 15.6 C 0 km/h
342 13-09-2010 20:22:01 15.4 C 8.8 g/m*3 15.4 C 0 km/h
343 13-09-2010 20:34:01 15.2 C 8.96 g/m*3 15.2 C 0 km/h
344 13-09-2010 20:46:01 15.1 C 9.03 g/m*3 15.1 C 0 km/h
345 13-09-2010 20:58:02 14.9 C 9.05 g/m*3 14.9 C 0 km/h
346 13-09-2010 21:10:01 14.7 C 8.94 g/m*3 14.7 C 0 km/h
347 13-09-2010 21:22:01 14.6 C 9.01 g/m*3 14.6 C 0 km/h
348 13-09-2010 21:34:02 14.5 C 8.95 g/m*3 14.5 C 0 km/h
349 13-09-2010 21:46:01 14.4 C 8.9 g/m*3 14.4 C 0 km/h
350 13-09-2010 21:58:01 14.4 C 9.02 g/m*3 14.4 C 0 km/h
Sensor: Nr:Datum:Temp:Abs-Feuchte:Windchill:Wind:
Aussen-T/F 351 13-09-2010 22:10:01 14.1 C 8.86 g/m*3 14.1 C 0 km/h
352 13-09-2010 22:23:05 13.8 C 8.82 g/m*3 13.8 C 0 km/h
353 13-09-2010 22:35:05 13.7 C 8.88 g/m*3 13.7 C 0 km/h
354 13-09-2010 22:47:05 13.5 C 8.89 g/m*3 13.5 C 0 km/h
355 13-09-2010 22:59:05 13.4 C 8.83 g/m*3 13.4 C 0 km/h
356 13-09-2010 23:11:05 13.3 C 8.78 g/m*3 13.3 C 0 km/h
357 13-09-2010 23:23:05 13.3 C 9.01 g/m*3 13.3 C 0 km/h
358 13-09-2010 23:35:05 13.1 C 8.9 g/m*3 13.1 C 0 km/h
359 13-09-2010 23:47:05 13 C 8.73 g/m*3 13 C 0 km/h
360 13-09-2010 23:59:05 13 C 8.85 g/m*3 13 C 0 km/h
361 14-09-2010 00:11:05 13 C 8.96 g/m*3 13 C 0 km/h
362 14-09-2010 00:23:05 12.8 C 9.18 g/m*3 12.8 C 0 km/h
363 14-09-2010 00:35:05 12.8 C 9.3 g/m*3 12.8 C 0 km/h
364 14-09-2010 00:47:05 12.8 C 9.3 g/m*3 12.8 C 0 km/h
365 14-09-2010 00:59:05 12.7 C 9.24 g/m*3 12.7 C 0 km/h
366 14-09-2010 01:11:05 12.6 C 9.18 g/m*3 12.6 C 0 km/h
367 14-09-2010 01:23:05 12.7 C 9.24 g/m*3 12.7 C 0 km/h
368 14-09-2010 01:35:05 12.8 C 9.3 g/m*3 12.8 C 0 km/h
369 14-09-2010 01:47:05 12.9 C 9.35 g/m*3 12.9 C 0 km/h
370 14-09-2010 01:59:05 13 C 9.3 g/m*3 13 C 0 km/h
371 14-09-2010 02:11:05 13 C 9.3 g/m*3 13 C 0 km/h
372 14-09-2010 02:23:05 13 C 9.3 g/m*3 13 C 0 km/h
373 14-09-2010 02:35:06 13.1 C 9.36 g/m*3 13.1 C 0 km/h
374 14-09-2010 02:47:06 13.2 C 9.42 g/m*3 13.2 C 0 km/h
375 14-09-2010 02:59:06 13.2 C 9.3 g/m*3 13.2 C 0 km/h
Sensor: Nr:Datum:Temp:Abs-Feuchte:Windchill:Wind:
Aussen-T/F 376 14-09-2010 03:11:06 13.4 C 9.18 g/m*3 13.4 C 0 km/h
377 14-09-2010 03:23:06 13.4 C 9.18 g/m*3 13.4 C 0 km/h
378 14-09-2010 03:35:06 13.3 C 9.24 g/m*3 13.3 C 0 km/h
379 14-09-2010 03:47:06 13.3 C 9.24 g/m*3 13.3 C 0 km/h
380 14-09-2010 03:59:06 13.4 C 9.3 g/m*3 13.4 C 0 km/h
381 14-09-2010 04:11:06 13.2 C 9.19 g/m*3 13.2 C 0 km/h
382 14-09-2010 04:23:06 13 C 9.3 g/m*3 13 C 0 km/h
383 14-09-2010 04:35:06 12.8 C 9.41 g/m*3 12.8 C 0 km/h
384 14-09-2010 04:47:06 12.9 C 9.58 g/m*3 12.9 C 0 km/h
385 14-09-2010 04:59:06 12.8 C 9.63 g/m*3 12.8 C 0 km/h
386 14-09-2010 05:11:06 12.9 C 9.81 g/m*3 12.9 C 0 km/h
387 14-09-2010 05:23:06 12.9 C 9.81 g/m*3 12.9 C 0 km/h
388 14-09-2010 05:35:06 13 C 9.87 g/m*3 13 C 0 km/h
389 14-09-2010 05:47:06 13 C 9.87 g/m*3 13 C 0 km/h
390 14-09-2010 05:59:06 13 C 9.87 g/m*3 13 C 0 km/h
391 14-09-2010 06:11:06 13.3 C 10.05 g/m*3 13.3 C 0 km/h
392 14-09-2010 06:23:06 13.5 C 9.83 g/m*3 13.5 C 0 km/h
393 14-09-2010 06:35:06 13.8 C 9.06 g/m*3 13.8 C 0 km/h
394 14-09-2010 06:47:06 14.5 C 8.83 g/m*3 14.5 C 0 km/h
395 14-09-2010 06:59:07 14.4 C 8.53 g/m*3 14.4 C 0 km/h
396 14-09-2010 07:11:07 14.4 C 8.53 g/m*3 14.4 C 0 km/h
397 14-09-2010 07:23:07 14.4 C 8.65 g/m*3 14.4 C 0 km/h
398 14-09-2010 07:35:04 14.3 C 8.85 g/m*3 14.3 C 0 km/h
399 14-09-2010 07:47:02 13.6 C 9.18 g/m*3 13.6 C 0 km/h
400 14-09-2010 07:59:02 13.6 C 9.42 g/m*3 13.6 C 0 km/h
Sensor: Nr:Datum:Temp:Abs-Feuchte:Windchill:Wind:
Aussen-T/F 401 14-09-2010 08:11:01 13.7 C 9.47 g/m*3 13.7 C 0 km/h
402 14-09-2010 08:23:02 13.7 C 9.47 g/m*3 13.7 C 0 km/h
403 14-09-2010 08:35:02 14.1 C 9.34 g/m*3 14.1 C 0 km/h
404 14-09-2010 08:47:02 14.4 C 9.15 g/m*3 14.4 C 0 km/h
405 14-09-2010 08:59:02 14.6 C 9.13 g/m*3 14.6 C 0 km/h
406 14-09-2010 09:11:01 14.7 C 9.07 g/m*3 14.7 C 0 km/h
407 14-09-2010 09:23:02 14.8 C 9.12 g/m*3 14.8 C 0 km/h
408 14-09-2010 09:35:02 15.1 C 9.03 g/m*3 15.1 C 0 km/h
409 14-09-2010 09:47:01 15.6 C 9.04 g/m*3 15.6 C 0 km/h
410 14-09-2010 09:59:01 15.6 C 9.04 g/m*3 15.6 C 0 km/h
411 14-09-2010 10:11:02 15.6 C 9.04 g/m*3 15.6 C 0 km/h
412 14-09-2010 10:23:01 15.7 C 9.1 g/m*3 15.7 C 0 km/h
413 14-09-2010 10:35:01 16 C 8.99 g/m*3 16 C 0 km/h
414 14-09-2010 10:47:01 16.4 C 8.93 g/m*3 16.4 C 0 km/h
415 14-09-2010 10:59:01 16.8 C 9.29 g/m*3 16.8 C 0 km/h
416 14-09-2010 11:11:02 17 C 8.97 g/m*3 17 C 0 km/h
417 14-09-2010 11:23:01 17.1 C 9.03 g/m*3 17.1 C 0 km/h
418 14-09-2010 11:35:01 17 C 9.12 g/m*3 17 C 0 km/h
419 14-09-2010 11:47:01 16.7 C 9.24 g/m*3 16.7 C 0 km/h
420 14-09-2010 11:59:01 17.5 C 9.39 g/m*3 17.5 C 0 km/h
421 14-09-2010 12:11:02 17.8 C 9.26 g/m*3 17.8 C 0 km/h
422 14-09-2010 12:23:02 18.2 C 9.01 g/m*3 18.2 C 0 km/h
423 14-09-2010 12:35:01 18.5 C 9.18 g/m*3 18.5 C 0 km/h
424 14-09-2010 12:47:02 18.8 C 9.18 g/m*3 18.8 C 0 km/h
425 14-09-2010 12:59:02 18.9 C 9.23 g/m*3 18.9 C 0 km/h
Sensor: Nr:Datum:Temp:Abs-Feuchte:Windchill:Wind:
Aussen-T/F 426 14-09-2010 13:11:01 19.6 C 9.28 g/m*3 19.6 C 0 km/h
427 14-09-2010 13:23:01 19.7 C 9.34 g/m*3 19.7 C 0 km/h
428 14-09-2010 13:35:01 20.2 C 9.44 g/m*3 20.2 C 0 km/h
429 14-09-2010 13:47:02 20.4 C 9.02 g/m*3 20.4 C 0 km/h
430 14-09-2010 13:59:02 20 C 8.99 g/m*3 20 C 0 km/h
431 14-09-2010 14:11:02 19.7 C 8.83 g/m*3 19.7 C 0 km/h
432 14-09-2010 14:23:02 19.7 C 9 g/m*3 19.7 C 0 km/h
433 14-09-2010 14:35:02 19.8 C 8.71 g/m*3 19.8 C 0 km/h
434 14-09-2010 14:47:01 19.6 C 8.78 g/m*3 19.6 C 0 km/h
435 14-09-2010 14:59:01 19.5 C 8.89 g/m*3 19.5 C 0 km/h
436 14-09-2010 15:11:02 20 C 8.81 g/m*3 20 C 0 km/h
437 14-09-2010 15:23:01 20 C 8.64 g/m*3 20 C 0 km/h
438 14-09-2010 15:35:02 20.4 C 8.67 g/m*3 20.4 C 0 km/h
439 14-09-2010 15:47:01 20.7 C 8.46 g/m*3 20.7 C 0 km/h
440 14-09-2010 15:59:01 20.9 C 8.56 g/m*3 20.9 C 0 km/h
441 14-09-2010 16:11:02 20.8 C 8.15 g/m*3 20.8 C 0 km/h
442 14-09-2010 16:23:01 20.9 C 8.2 g/m*3 20.9 C 0 km/h
443 14-09-2010 16:35:02 20.6 C 7.7 g/m*3 20.6 C 0 km/h
444 14-09-2010 16:47:01 20.6 C 7.7 g/m*3 20.6 C 0 km/h
445 14-09-2010 16:59:01 20.5 C 7.65 g/m*3 20.5 C 0 km/h
446 14-09-2010 17:11:02 20.5 C 7.47 g/m*3 20.5 C 0 km/h
447 14-09-2010 17:23:01 20.4 C 7.43 g/m*3 20.4 C 0 km/h
448 14-09-2010 17:35:01 20 C 7.26 g/m*3 20 C 0 km/h
449 14-09-2010 17:47:01 20 C 7.43 g/m*3 20 C 0 km/h
450 14-09-2010 17:59:01 19.8 C 7.69 g/m*3 19.8 C 0 km/h
Sensor: Nr:Datum:Temp:Abs-Feuchte:Windchill:Wind:
Aussen-T/F 451 14-09-2010 18:11:01 19.6 C 7.77 g/m*3 19.6 C 0 km/h
452 14-09-2010 18:23:02 19.4 C 7.84 g/m*3 19.4 C 0 km/h
453 14-09-2010 18:35:01 19.3 C 7.8 g/m*3 19.3 C 0 km/h
454 14-09-2010 18:47:02 19.3 C 7.8 g/m*3 19.3 C 0 km/h
455 14-09-2010 18:59:02 19.1 C 7.87 g/m*3 19.1 C 0 km/h
456 14-09-2010 19:11:01 19 C 7.82 g/m*3 19 C 0 km/h
457 14-09-2010 19:23:01 18.9 C 7.78 g/m*3 18.9 C 0 km/h
458 14-09-2010 19:35:01 18.7 C 7.68 g/m*3 18.7 C 0 km/h
459 14-09-2010 19:47:02 18.7 C 7.68 g/m*3 18.7 C 0 km/h
460 14-09-2010 19:59:03 18.7 C 7.68 g/m*3 18.7 C 0 km/h
461 14-09-2010 20:11:01 18.7 C 7.68 g/m*3 18.7 C 0 km/h
462 14-09-2010 20:23:02 18.6 C 7.64 g/m*3 18.6 C 0 km/h
463 14-09-2010 20:35:02 18.7 C 7.68 g/m*3 18.7 C 0 km/h
464 14-09-2010 20:47:02 18.5 C 7.75 g/m*3 18.5 C 0 km/h
465 14-09-2010 20:59:02 18.5 C 7.75 g/m*3 18.5 C 0 km/h
466 14-09-2010 21:11:03 18.5 C 7.75 g/m*3 18.5 C 0 km/h
467 14-09-2010 21:23:02 18.5 C 7.75 g/m*3 18.5 C 0 km/h
468 14-09-2010 21:35:02 18.6 C 7.96 g/m*3 18.6 C 0 km/h
469 14-09-2010 21:47:01 18.5 C 7.75 g/m*3 18.5 C 0 km/h
470 14-09-2010 21:59:01 18.6 C 7.64 g/m*3 18.6 C 0 km/h
471 14-09-2010 22:12:03 18.6 C 7.8 g/m*3 18.6 C 0 km/h
472 14-09-2010 22:24:03 18.5 C 7.75 g/m*3 18.5 C 0 km/h
473 14-09-2010 22:36:03 18.4 C 7.86 g/m*3 18.4 C 0 km/h
474 14-09-2010 22:48:03 18.5 C 7.91 g/m*3 18.5 C 0 km/h
475 14-09-2010 23:00:03 18.5 C 7.91 g/m*3 18.5 C 0 km/h
Sensor: Nr:Datum:Temp:Abs-Feuchte:Windchill:Wind:
Aussen-T/F 476 14-09-2010 23:12:03 18.4 C 7.86 g/m*3 18.4 C 0 km/h
477 14-09-2010 23:24:03 18.2 C 7.77 g/m*3 18.2 C 0 km/h
478 14-09-2010 23:36:04 18 C 7.99 g/m*3 18 C 0 km/h
479 14-09-2010 23:48:04 18 C 7.99 g/m*3 18 C 0 km/h
480 15-09-2010 00:00:04 18 C 7.99 g/m*3 18 C 0 km/h
481 15-09-2010 00:12:04 18 C 7.83 g/m*3 18 C 0 km/h
482 15-09-2010 00:24:04 18 C 7.83 g/m*3 18 C 0 km/h
483 15-09-2010 00:36:04 18 C 7.83 g/m*3 18 C 0 km/h
484 15-09-2010 00:48:04 18.1 C 7.88 g/m*3 18.1 C 0 km/h
485 15-09-2010 01:00:04 18.1 C 7.73 g/m*3 18.1 C 0 km/h
486 15-09-2010 01:12:04 18.1 C 7.73 g/m*3 18.1 C 0 km/h
487 15-09-2010 01:24:04 18.2 C 7.62 g/m*3 18.2 C 0 km/h
488 15-09-2010 01:36:04 18.3 C 7.66 g/m*3 18.3 C 0 km/h
489 15-09-2010 01:48:04 18.2 C 7.62 g/m*3 18.2 C 0 km/h
490 15-09-2010 02:00:04 18.3 C 7.66 g/m*3 18.3 C 0 km/h
491 15-09-2010 02:12:04 18.4 C 7.55 g/m*3 18.4 C 0 km/h
492 15-09-2010 02:24:04 18.4 C 7.55 g/m*3 18.4 C 0 km/h
493 15-09-2010 02:36:05 18.3 C 7.66 g/m*3 18.3 C 0 km/h
494 15-09-2010 02:48:05 18.2 C 7.77 g/m*3 18.2 C 0 km/h
495 15-09-2010 03:00:05 18.2 C 7.93 g/m*3 18.2 C 0 km/h
496 15-09-2010 03:12:05 18.1 C 8.03 g/m*3 18.1 C 0 km/h
497 15-09-2010 03:24:05 18 C 8.29 g/m*3 18 C 0 km/h
498 15-09-2010 03:36:05 18 C 8.45 g/m*3 18 C 0 km/h
499 15-09-2010 03:48:05 18 C 8.45 g/m*3 18 C 0 km/h
500 15-09-2010 04:00:05 17.9 C 8.7 g/m*3 17.9 C 0 km/h
Sensor: Nr:Datum:Temp:Abs-Feuchte:Windchill:Wind:
Aussen-T/F 501 15-09-2010 04:12:05 17.9 C 9.01 g/m*3 17.9 C 0 km/h
502 15-09-2010 04:24:05 17.7 C 9.05 g/m*3 17.7 C 0 km/h
503 15-09-2010 04:36:05 17.6 C 9.3 g/m*3 17.6 C 0 km/h
504 15-09-2010 04:48:05 17.4 C 9.48 g/m*3 17.4 C 0 km/h
505 15-09-2010 05:00:05 17.4 C 9.48 g/m*3 17.4 C 0 km/h
506 15-09-2010 05:12:05 16.9 C 10.07 g/m*3 16.9 C 0 km/h
507 15-09-2010 05:24:05 14.4 C 9.27 g/m*3 14.4 C 0 km/h
508 15-09-2010 05:36:05 13.3 C 9.7 g/m*3 13.3 C 0 km/h
509 15-09-2010 05:48:05 13 C 9.87 g/m*3 13 C 0 km/h
510 15-09-2010 06:00:05 12.9 C 10.03 g/m*3 12.9 C 0 km/h
511 15-09-2010 06:12:05 12.8 C 10.08 g/m*3 12.8 C 0 km/h
512 15-09-2010 06:24:05 12.7 C 10.02 g/m*3 12.7 C 0 km/h
513 15-09-2010 06:36:05 12.7 C 10.13 g/m*3 12.7 C 0 km/h
514 15-09-2010 06:48:05 12.8 C 10.19 g/m*3 12.8 C 0 km/h
515 15-09-2010 07:00:06 12.8 C 10.3 g/m*3 12.8 C 0 km/h
516 15-09-2010 07:12:06 12.7 C 10.24 g/m*3 12.7 C 0 km/h
517 15-09-2010 07:24:06 12.7 C 10.24 g/m*3 12.7 C 0 km/h
518 15-09-2010 07:36:03 12.8 C 10.3 g/m*3 12.8 C 0 km/h
519 15-09-2010 07:48:02 12.7 C 10.35 g/m*3 12.7 C 0 km/h
520 15-09-2010 08:00:02 12.6 C 10.29 g/m*3 12.6 C 0 km/h
521 15-09-2010 08:12:02 12.7 C 10.35 g/m*3 12.7 C 0 km/h
522 15-09-2010 08:24:02 12.7 C 10.35 g/m*3 12.7 C 0 km/h
523 15-09-2010 08:36:01 12.8 C 10.42 g/m*3 12.8 C 0 km/h
524 15-09-2010 08:48:02 12.7 C 10.35 g/m*3 12.7 C 0 km/h
525 15-09-2010 09:00:02 12.5 C 10.22 g/m*3 12.5 C 0 km/h
Sensor: Nr:Datum:Temp:Abs-Feuchte:Windchill:Wind:
Aussen-T/F 526 15-09-2010 09:12:01 12.7 C 10.35 g/m*3 12.7 C 0 km/h
527 15-09-2010 09:24:01 12.7 C 10.24 g/m*3 12.7 C 0 km/h
528 15-09-2010 09:36:02 13.1 C 10.38 g/m*3 13.1 C 0 km/h
529 15-09-2010 09:48:02 13.6 C 10.59 g/m*3 13.6 C 0 km/h
530 15-09-2010 10:00:02 14 C 10.49 g/m*3 14 C 0 km/h
531 15-09-2010 10:12:02 14 C 10.01 g/m*3 14 C 0 km/h
532 15-09-2010 10:24:02 14.1 C 9.95 g/m*3 14.1 C 0 km/h
533 15-09-2010 10:36:02 14.1 C 9.71 g/m*3 14.1 C 0 km/h
534 15-09-2010 10:48:02 14.1 C 9.59 g/m*3 14.1 C 0 km/h
535 15-09-2010 11:00:02 14.2 C 9.52 g/m*3 14.2 C 0 km/h
536 15-09-2010 11:12:02 14.6 C 9.01 g/m*3 14.6 C 0 km/h
537 15-09-2010 11:24:02 15 C 8.72 g/m*3 15 C 0 km/h
538 15-09-2010 11:36:02 15.6 C 8.51 g/m*3 15.6 C 0 km/h
539 15-09-2010 11:48:01 15.7 C 8.43 g/m*3 15.7 C 0 km/h
540 15-09-2010 12:00:01 16.2 C 7.31 g/m*3 16.2 C 0 km/h
541 15-09-2010 12:12:01 16.4 C 7.4 g/m*3 16.4 C 0 km/h
542 15-09-2010 12:24:01 17.2 C 7.18 g/m*3 17.2 C 0 km/h
543 15-09-2010 12:36:01 16.6 C 7.06 g/m*3 16.6 C 0 km/h
544 15-09-2010 12:48:02 16.1 C 6.17 g/m*3 16.1 C 0 km/h
545 15-09-2010 13:00:02 16.1 C 6.44 g/m*3 16.1 C 0 km/h
546 15-09-2010 13:12:02 16.4 C 6.7 g/m*3 16.4 C 0 km/h
547 15-09-2010 13:24:02 17.4 C 6.52 g/m*3 17.4 C 0 km/h
548 15-09-2010 13:36:02 17.9 C 5.95 g/m*3 17.9 C 0 km/h
549 15-09-2010 13:48:02 18.4 C 5.82 g/m*3 18.4 C 0 km/h
550 15-09-2010 14:00:02 18.5 C 5.7 g/m*3 18.5 C 0 km/h
Sensor: Nr:Datum:Temp:Abs-Feuchte:Windchill:Wind:
Aussen-T/F 551 15-09-2010 14:12:02 18.1 C 5.87 g/m*3 18.1 C 0 km/h
552 15-09-2010 14:24:02 18.5 C 5.54 g/m*3 18.5 C 0 km/h
553 15-09-2010 14:36:02 18.3 C 5.47 g/m*3 18.3 C 0 km/h
554 15-09-2010 14:48:02 18.5 C 5.7 g/m*3 18.5 C 0 km/h
555 15-09-2010 15:00:03 19.5 C 5.87 g/m*3 19.5 C 0 km/h
556 15-09-2010 15:12:01 19.6 C 5.4 g/m*3 19.6 C 0 km/h
557 15-09-2010 15:24:01 19.3 C 5.64 g/m*3 19.3 C 0 km/h
558 15-09-2010 15:36:02 19.2 C 5.94 g/m*3 19.2 C 0 km/h
559 15-09-2010 15:48:02 20 C 5.88 g/m*3 20 C 0 km/h
560 15-09-2010 16:00:02 19.6 C 5.91 g/m*3 19.6 C 0 km/h
561 15-09-2010 16:12:02 19.6 C 5.91 g/m*3 19.6 C 0 km/h
562 15-09-2010 16:24:02 19.3 C 5.97 g/m*3 19.3 C 0 km/h
563 15-09-2010 16:36:02 19.6 C 6.08 g/m*3 19.6 C 0 km/h
564 15-09-2010 16:48:02 19.5 C 6.04 g/m*3 19.5 C 0 km/h
565 15-09-2010 17:00:02 20.4 C 5.84 g/m*3 20.4 C 0 km/h
566 15-09-2010 17:12:02 19 C 5.7 g/m*3 19 C 0 km/h
567 15-09-2010 17:24:02 19.4 C 6.01 g/m*3 19.4 C 0 km/h
568 15-09-2010 17:36:02 19.9 C 5.84 g/m*3 19.9 C 0 km/h
569 15-09-2010 17:48:02 19.7 C 5.6 g/m*3 19.7 C 0 km/h
570 15-09-2010 18:00:02 18.7 C 5.44 g/m*3 18.7 C 0 km/h
571 15-09-2010 18:12:02 18.2 C 5.28 g/m*3 18.2 C 0 km/h
572 15-09-2010 18:24:03 17.5 C 5.22 g/m*3 17.5 C 0 km/h
573 15-09-2010 18:36:02 17.7 C 5.28 g/m*3 17.7 C 0 km/h
574 15-09-2010 18:48:02 17.1 C 5.39 g/m*3 17.1 C 0 km/h
575 15-09-2010 19:00:02 16.9 C 5.61 g/m*3 16.9 C 0 km/h
Sensor: Nr:Datum:Temp:Abs-Feuchte:Windchill:Wind:
Aussen-T/F 576 15-09-2010 19:12:02 16.7 C 5.4 g/m*3 16.7 C 0 km/h
577 15-09-2010 19:24:02 16.6 C 5.65 g/m*3 16.6 C 0 km/h
578 15-09-2010 19:36:02 16.4 C 5.72 g/m*3 16.4 C 0 km/h
579 15-09-2010 19:48:02 16.4 C 5.86 g/m*3 16.4 C 0 km/h
580 15-09-2010 20:00:02 16.2 C 6.07 g/m*3 16.2 C 0 km/h
581 15-09-2010 20:12:02 16 C 6.27 g/m*3 16 C 0 km/h
582 15-09-2010 20:24:02 15.8 C 6.46 g/m*3 15.8 C 0 km/h
583 15-09-2010 20:36:01 15.7 C 6.15 g/m*3 15.7 C 0 km/h
584 15-09-2010 20:48:02 15.5 C 6.34 g/m*3 15.5 C 0 km/h
585 15-09-2010 21:00:03 15.4 C 6.31 g/m*3 15.4 C 0 km/h
586 15-09-2010 21:12:01 15.2 C 6.49 g/m*3 15.2 C 0 km/h
587 15-09-2010 21:24:01 15 C 6.41 g/m*3 15 C 0 km/h
588 15-09-2010 21:37:02 15.1 C 6.32 g/m*3 15.1 C 0 km/h
589 15-09-2010 21:49:02 15.2 C 6.36 g/m*3 15.2 C 0 km/h
590 15-09-2010 22:01:02 15.1 C 6.32 g/m*3 15.1 C 0 km/h
591 15-09-2010 22:13:02 15.1 C 6.06 g/m*3 15.1 C 0 km/h
592 15-09-2010 22:25:02 14.9 C 5.86 g/m*3 14.9 C 0 km/h
593 15-09-2010 22:37:02 14.8 C 5.83 g/m*3 14.8 C 0 km/h
594 15-09-2010 22:49:02 14.9 C 5.74 g/m*3 14.9 C 0 km/h
595 15-09-2010 23:01:02 15 C 5.51 g/m*3 15 C 0 km/h
596 15-09-2010 23:13:02 15 C 5.51 g/m*3 15 C 0 km/h
597 15-09-2010 23:25:02 14.9 C 5.74 g/m*3 14.9 C 0 km/h
598 15-09-2010 23:37:02 14.8 C 5.7 g/m*3 14.8 C 0 km/h
599 15-09-2010 23:49:02 14.6 C 5.76 g/m*3 14.6 C 0 km/h
600 16-09-2010 00:01:02 14.5 C 5.97 g/m*3 14.5 C 0 km/h
Sensor: Nr:Datum:Temp:Abs-Feuchte:Windchill:Wind:
Aussen-T/F 601 16-09-2010 00:13:02 14.4 C 5.93 g/m*3 14.4 C 0 km/h
602 16-09-2010 00:25:02 14.2 C 5.86 g/m*3 14.2 C 0 km/h
603 16-09-2010 00:37:02 13.8 C 5.96 g/m*3 13.8 C 0 km/h
604 16-09-2010 00:49:02 14 C 5.79 g/m*3 14 C 0 km/h
605 16-09-2010 01:01:02 14.1 C 5.58 g/m*3 14.1 C 0 km/h
606 16-09-2010 01:13:03 14.2 C 5.49 g/m*3 14.2 C 0 km/h
607 16-09-2010 01:25:03 14.1 C 5.34 g/m*3 14.1 C 0 km/h
608 16-09-2010 01:37:03 14.1 C 5.34 g/m*3 14.1 C 0 km/h
609 16-09-2010 01:49:03 14 C 5.31 g/m*3 14 C 0 km/h
610 16-09-2010 02:01:03 13.9 C 5.51 g/m*3 13.9 C 0 km/h
611 16-09-2010 02:13:03 14.1 C 5.58 g/m*3 14.1 C 0 km/h
612 16-09-2010 02:25:03 14 C 5.79 g/m*3 14 C 0 km/h
613 16-09-2010 02:37:03 13.7 C 5.92 g/m*3 13.7 C 0 km/h
614 16-09-2010 02:49:03 14 C 6.15 g/m*3 14 C 0 km/h
615 16-09-2010 03:01:03 13.9 C 6.35 g/m*3 13.9 C 0 km/h
616 16-09-2010 03:13:03 13.9 C 6.59 g/m*3 13.9 C 0 km/h
617 16-09-2010 03:25:03 13.9 C 6.71 g/m*3 13.9 C 0 km/h
618 16-09-2010 03:37:03 13.8 C 6.79 g/m*3 13.8 C 0 km/h
619 16-09-2010 03:49:03 13.7 C 7.1 g/m*3 13.7 C 0 km/h
620 16-09-2010 04:01:03 13.2 C 7.12 g/m*3 13.2 C 0 km/h
621 16-09-2010 04:13:03 13.6 C 6.94 g/m*3 13.6 C 0 km/h
622 16-09-2010 04:25:03 13.7 C 6.87 g/m*3 13.7 C 0 km/h
623 16-09-2010 04:37:03 13.7 C 6.99 g/m*3 13.7 C 0 km/h
624 16-09-2010 04:49:03 13.7 C 6.99 g/m*3 13.7 C 0 km/h
625 16-09-2010 05:01:03 13.7 C 6.99 g/m*3 13.7 C 0 km/h
Sensor: Nr:Datum:Temp:Abs-Feuchte:Windchill:Wind:
Aussen-T/F 626 16-09-2010 05:13:03 13.6 C 7.06 g/m*3 13.6 C 0 km/h
627 16-09-2010 05:25:04 13.2 C 7.35 g/m*3 13.2 C 0 km/h
628 16-09-2010 05:37:04 13.1 C 7.42 g/m*3 13.1 C 0 km/h
629 16-09-2010 05:49:04 13.2 C 7.46 g/m*3 13.2 C 0 km/h
630 16-09-2010 06:01:04 13.1 C 7.65 g/m*3 13.1 C 0 km/h
631 16-09-2010 06:13:04 12.6 C 7.97 g/m*3 12.6 C 0 km/h
632 16-09-2010 06:25:04 12.5 C 8.03 g/m*3 12.5 C 0 km/h
633 16-09-2010 06:37:04 12.1 C 8.26 g/m*3 12.1 C 0 km/h
634 16-09-2010 06:49:04 11.9 C 8.47 g/m*3 11.9 C 0 km/h
635 16-09-2010 07:01:04 11.9 C 8.47 g/m*3 11.9 C 0 km/h
636 16-09-2010 07:13:04 11.9 C 8.58 g/m*3 11.9 C 0 km/h
637 16-09-2010 07:25:04 11.9 C 8.79 g/m*3 11.9 C 0 km/h
638 16-09-2010 07:37:04 11.6 C 8.73 g/m*3 11.6 C 0 km/h
639 16-09-2010 07:49:04 11.6 C 8.83 g/m*3 11.6 C 0 km/h
640 16-09-2010 08:01:02 11.6 C 8.83 g/m*3 11.6 C 0 km/h
641 16-09-2010 08:13:02 11.7 C 8.79 g/m*3 11.7 C 0 km/h
642 16-09-2010 08:25:02 12 C 8.85 g/m*3 12 C 0 km/h
643 16-09-2010 08:37:02 12 C 8.85 g/m*3 12 C 0 km/h
644 16-09-2010 08:49:02 12 C 8.85 g/m*3 12 C 0 km/h
645 16-09-2010 09:01:02 12 C 8.95 g/m*3 12 C 0 km/h
646 16-09-2010 09:13:02 12.1 C 9.01 g/m*3 12.1 C 0 km/h
647 16-09-2010 09:25:01 12.6 C 9.29 g/m*3 12.6 C 0 km/h
648 16-09-2010 09:37:02 13 C 9.41 g/m*3 13 C 0 km/h
649 16-09-2010 09:49:02 13.5 C 9.59 g/m*3 13.5 C 0 km/h
650 16-09-2010 10:01:02 13.7 C 9.12 g/m*3 13.7 C 0 km/h
Sensor: Nr:Datum:Temp:Abs-Feuchte:Windchill:Wind:
Aussen-T/F 651 16-09-2010 10:13:02 14 C 8.68 g/m*3 14 C 0 km/h
652 16-09-2010 10:25:02 14 C 8.56 g/m*3 14 C 0 km/h
653 16-09-2010 10:37:02 14.3 C 8.35 g/m*3 14.3 C 0 km/h
654 16-09-2010 10:49:02 14.6 C 8.51 g/m*3 14.6 C 0 km/h
655 16-09-2010 11:01:02 15.2 C 8.18 g/m*3 15.2 C 0 km/h
656 16-09-2010 11:13:02 15 C 8.08 g/m*3 15 C 0 km/h
657 16-09-2010 11:25:02 15.2 C 8.44 g/m*3 15.2 C 0 km/h
658 16-09-2010 11:37:02 15.1 C 8.26 g/m*3 15.1 C 0 km/h
659 16-09-2010 11:49:01 15.8 C 8.21 g/m*3 15.8 C 0 km/h
660 16-09-2010 12:01:02 16.4 C 7.82 g/m*3 16.4 C 0 km/h
661 16-09-2010 12:13:02 16.7 C 7.82 g/m*3 16.7 C 0 km/h
662 16-09-2010 12:25:02 17.2 C 7.61 g/m*3 17.2 C 0 km/h
663 16-09-2010 12:37:02 17.1 C 7.42 g/m*3 17.1 C 0 km/h
664 16-09-2010 12:49:02 17.7 C 7.69 g/m*3 17.7 C 0 km/h
665 16-09-2010 13:01:01 17.7 C 7.09 g/m*3 17.7 C 0 km/h
666 16-09-2010 13:13:01 17.9 C 7.02 g/m*3 17.9 C 0 km/h
667 16-09-2010 13:25:02 17.4 C 6.97 g/m*3 17.4 C 0 km/h
668 16-09-2010 13:37:01 16.9 C 7.34 g/m*3 16.9 C 0 km/h
669 16-09-2010 13:49:01 16.7 C 7.39 g/m*3 16.7 C 0 km/h
670 16-09-2010 14:01:01 17 C 7.23 g/m*3 17 C 0 km/h
671 16-09-2010 14:13:01 16 C 7.36 g/m*3 16 C 0 km/h
672 16-09-2010 14:25:01 14 C 8.81 g/m*3 14 C 0 km/h
673 16-09-2010 14:37:02 14.2 C 9.52 g/m*3 14.2 C 0 km/h
674 16-09-2010 14:49:02 15.2 C 10.25 g/m*3 15.2 C 0 km/h
675 16-09-2010 15:01:02 15.9 C 10.29 g/m*3 15.9 C 0 km/h
Sensor: Nr:Datum:Temp:Abs-Feuchte:Windchill:Wind:
Aussen-T/F 676 16-09-2010 15:13:02 16.8 C 9.44 g/m*3 16.8 C 0 km/h
677 16-09-2010 15:25:01 17 C 8.97 g/m*3 17 C 0 km/h
678 16-09-2010 15:37:02 18.5 C 9.02 g/m*3 18.5 C 0 km/h
679 16-09-2010 15:49:02 17.9 C 7.79 g/m*3 17.9 C 0 km/h
680 16-09-2010 16:01:02 18.3 C 7.82 g/m*3 18.3 C 0 km/h
681 16-09-2010 16:13:03 17.4 C 7.56 g/m*3 17.4 C 0 km/h
682 16-09-2010 16:25:01 16.6 C 8.05 g/m*3 16.6 C 0 km/h
683 16-09-2010 16:37:02 15 C 8.85 g/m*3 15 C 0 km/h
684 16-09-2010 16:49:02 14.5 C 9.7 g/m*3 14.5 C 0 km/h
685 16-09-2010 17:01:02 14.5 C 9.83 g/m*3 14.5 C 0 km/h
686 16-09-2010 17:13:02 15.1 C 10.06 g/m*3 15.1 C 0 km/h
687 16-09-2010 17:25:02 15.5 C 9.65 g/m*3 15.5 C 0 km/h
688 16-09-2010 17:37:02 15.2 C 9.22 g/m*3 15.2 C 0 km/h
689 16-09-2010 17:49:02 16.2 C 8.69 g/m*3 16.2 C 0 km/h
690 16-09-2010 18:01:02 15.3 C 8.88 g/m*3 15.3 C 0 km/h
691 16-09-2010 18:13:02 15 C 8.72 g/m*3 15 C 0 km/h
692 16-09-2010 18:25:02 15 C 8.85 g/m*3 15 C 0 km/h
693 16-09-2010 18:37:01 14.8 C 8.99 g/m*3 14.8 C 0 km/h
694 16-09-2010 18:49:02 14.4 C 9.27 g/m*3 14.4 C 0 km/h
695 16-09-2010 19:01:01 13.8 C 9.41 g/m*3 13.8 C 0 km/h
696 16-09-2010 19:13:01 13.5 C 9.59 g/m*3 13.5 C 0 km/h
697 16-09-2010 19:25:02 13.4 C 9.76 g/m*3 13.4 C 0 km/h
698 16-09-2010 19:37:02 13.3 C 9.82 g/m*3 13.3 C 0 km/h
699 16-09-2010 19:49:02 13.1 C 9.81 g/m*3 13.1 C 0 km/h
700 16-09-2010 20:01:02 13 C 9.87 g/m*3 13 C 0 km/h
Sensor: Nr:Datum:Temp:Abs-Feuchte:Windchill:Wind:
Aussen-T/F 701 16-09-2010 20:13:02 13 C 9.98 g/m*3 13 C 0 km/h
702 16-09-2010 20:25:02 12.8 C 10.08 g/m*3 12.8 C 0 km/h
703 16-09-2010 20:37:02 12.7 C 10.02 g/m*3 12.7 C 0 km/h
704 16-09-2010 20:49:02 12.7 C 10.13 g/m*3 12.7 C 0 km/h
705 16-09-2010 21:01:02 12.6 C 10.07 g/m*3 12.6 C 0 km/h
706 16-09-2010 21:13:02 12.7 C 10.13 g/m*3 12.7 C 0 km/h
707 16-09-2010 21:25:01 12.7 C 10.13 g/m*3 12.7 C 0 km/h
708 16-09-2010 21:37:02 12.6 C 10.07 g/m*3 12.6 C 0 km/h
709 16-09-2010 21:49:02 12.5 C 10 g/m*3 12.5 C 0 km/h
710 16-09-2010 22:01:02 12.2 C 9.71 g/m*3 12.2 C 0 km/h
711 16-09-2010 22:13:02 12.2 C 9.6 g/m*3 12.2 C 0 km/h
712 16-09-2010 22:25:02 12.2 C 9.6 g/m*3 12.2 C 0 km/h
713 16-09-2010 22:38:02 12.2 C 9.5 g/m*3 12.2 C 0 km/h
714 16-09-2010 22:50:02 12.2 C 9.5 g/m*3 12.2 C 0 km/h
715 16-09-2010 23:02:02 12.2 C 9.5 g/m*3 12.2 C 0 km/h
716 16-09-2010 23:14:02 12.1 C 9.33 g/m*3 12.1 C 0 km/h
717 16-09-2010 23:26:02 12.1 C 9.22 g/m*3 12.1 C 0 km/h
718 16-09-2010 23:38:02 12.1 C 9.22 g/m*3 12.1 C 0 km/h
719 16-09-2010 23:50:02 12 C 9.17 g/m*3 12 C 0 km/h
720 17-09-2010 00:02:02 12.1 C 9.12 g/m*3 12.1 C 0 km/h
721 17-09-2010 00:14:02 12.1 C 9.22 g/m*3 12.1 C 0 km/h
722 17-09-2010 00:26:02 12.2 C 9.28 g/m*3 12.2 C 0 km/h
723 17-09-2010 00:38:02 12.2 C 9.28 g/m*3 12.2 C 0 km/h
724 17-09-2010 00:50:02 12.2 C 9.28 g/m*3 12.2 C 0 km/h
725 17-09-2010 01:02:02 12.1 C 9.22 g/m*3 12.1 C 0 km/h
Sensor: Nr:Datum:Temp:Abs-Feuchte:Windchill:Wind:
Aussen-T/F 726 17-09-2010 01:14:03 12.1 C 9.22 g/m*3 12.1 C 0 km/h
727 17-09-2010 01:26:03 12.1 C 9.33 g/m*3 12.1 C 0 km/h
728 17-09-2010 01:38:03 12 C 9.27 g/m*3 12 C 0 km/h
729 17-09-2010 01:50:03 12 C 9.27 g/m*3 12 C 0 km/h
730 17-09-2010 02:02:03 11.9 C 9.32 g/m*3 11.9 C 0 km/h
731 17-09-2010 02:14:03 11.9 C 9.32 g/m*3 11.9 C 0 km/h
732 17-09-2010 02:26:03 12 C 9.38 g/m*3 12 C 0 km/h
733 17-09-2010 02:38:03 12 C 9.27 g/m*3 12 C 0 km/h
734 17-09-2010 02:50:03 12 C 9.17 g/m*3 12 C 0 km/h
735 17-09-2010 03:02:03 12.1 C 9.01 g/m*3 12.1 C 0 km/h
736 17-09-2010 03:14:03 12.1 C 8.9 g/m*3 12.1 C 0 km/h
737 17-09-2010 03:26:03 12.1 C 8.9 g/m*3 12.1 C 0 km/h
738 17-09-2010 03:38:03 12 C 8.95 g/m*3 12 C 0 km/h
739 17-09-2010 03:50:03 12 C 8.95 g/m*3 12 C 0 km/h
740 17-09-2010 04:02:03 12 C 9.06 g/m*3 12 C 0 km/h
741 17-09-2010 04:14:03 11.9 C 8.9 g/m*3 11.9 C 0 km/h
742 17-09-2010 04:26:03 12 C 8.85 g/m*3 12 C 0 km/h
743 17-09-2010 04:38:03 11.8 C 8.63 g/m*3 11.8 C 0 km/h
744 17-09-2010 04:50:03 12 C 8.21 g/m*3 12 C 0 km/h
745 17-09-2010 05:02:03 11.9 C 8.15 g/m*3 11.9 C 0 km/h
746 17-09-2010 05:14:03 11.5 C 8.16 g/m*3 11.5 C 0 km/h
747 17-09-2010 05:26:04 11.1 C 8.16 g/m*3 11.1 C 0 km/h
748 17-09-2010 05:38:04 10.8 C 8.3 g/m*3 10.8 C 0 km/h
749 17-09-2010 05:50:04 10.7 C 8.35 g/m*3 10.7 C 0 km/h
750 17-09-2010 06:02:04 10.5 C 8.34 g/m*3 10.5 C 0 km/h
Sensor: Nr:Datum:Temp:Abs-Feuchte:Windchill:Wind:
Aussen-T/F 751 17-09-2010 06:14:04 10.5 C 8.44 g/m*3 10.5 C 0 km/h
752 17-09-2010 06:26:04 10.7 C 8.74 g/m*3 10.7 C 0 km/h
753 17-09-2010 06:38:04 10.8 C 8.8 g/m*3 10.8 C 0 km/h
754 17-09-2010 06:50:04 10.5 C 8.63 g/m*3 10.5 C 0 km/h
755 17-09-2010 07:02:02 10.2 C 8.37 g/m*3 10.2 C 0 km/h
756 17-09-2010 07:14:02 10 C 8.27 g/m*3 10 C 0 km/h
757 17-09-2010 07:26:02 9.9 C 8.31 g/m*3 9.9 C 0 km/h
758 17-09-2010 07:38:01 10 C 7.99 g/m*3 10 C 0 km/h
759 17-09-2010 07:50:02 10 C 7.8 g/m*3 10 C 0 km/h
760 17-09-2010 08:02:01 9.9 C 7.84 g/m*3 9.9 C 0 km/h
761 17-09-2010 08:14:01 10 C 7.8 g/m*3 10 C 0 km/h
762 17-09-2010 08:26:01 10.1 C 7.66 g/m*3 10.1 C 0 km/h
763 17-09-2010 08:38:01 10.3 C 7.57 g/m*3 10.3 C 0 km/h
764 17-09-2010 08:50:01 10.8 C 7.41 g/m*3 10.8 C 0 km/h
765 17-09-2010 09:02:01 10.8 C 7.31 g/m*3 10.8 C 0 km/h
766 17-09-2010 09:14:01 10.7 C 7.27 g/m*3 10.7 C 0 km/h
767 17-09-2010 09:26:02 10.8 C 7.31 g/m*3 10.8 C 0 km/h
768 17-09-2010 09:38:01 10.9 C 7.26 g/m*3 10.9 C 0 km/h
769 17-09-2010 09:50:02 11.1 C 7.25 g/m*3 11.1 C 0 km/h
770 17-09-2010 10:02:02 11.4 C 7.39 g/m*3 11.4 C 0 km/h
771 17-09-2010 10:14:02 11.7 C 7.53 g/m*3 11.7 C 0 km/h
772 17-09-2010 10:26:02 12.1 C 7.61 g/m*3 12.1 C 0 km/h
773 17-09-2010 10:38:01 12.4 C 7.54 g/m*3 12.4 C 0 km/h
774 17-09-2010 10:50:02 12.7 C 7.68 g/m*3 12.7 C 0 km/h
775 17-09-2010 11:02:01 13.1 C 7.65 g/m*3 13.1 C 0 km/h
Sensor: Nr:Datum:Temp:Abs-Feuchte:Windchill:Wind:
Aussen-T/F 776 17-09-2010 11:14:01 13.3 C 7.63 g/m*3 13.3 C 0 km/h
777 17-09-2010 11:26:01 13.8 C 7.74 g/m*3 13.8 C 0 km/h
778 17-09-2010 11:38:02 14.1 C 7.4 g/m*3 14.1 C 0 km/h
779 17-09-2010 11:50:02 14.3 C 7.37 g/m*3 14.3 C 0 km/h
780 17-09-2010 12:02:02 15.2 C 7.01 g/m*3 15.2 C 0 km/h
781 17-09-2010 12:14:02 15.2 C 6.62 g/m*3 15.2 C 0 km/h
782 17-09-2010 12:26:02 15.7 C 6.42 g/m*3 15.7 C 0 km/h
783 17-09-2010 12:38:02 16.2 C 6.62 g/m*3 16.2 C 0 km/h
784 17-09-2010 12:50:02 16.2 C 6.21 g/m*3 16.2 C 0 km/h
785 17-09-2010 13:02:02 15.9 C 6.23 g/m*3 15.9 C 0 km/h
786 17-09-2010 13:14:02 16.2 C 5.93 g/m*3 16.2 C 0 km/h
787 17-09-2010 13:26:02 16.3 C 5.83 g/m*3 16.3 C 0 km/h
788 17-09-2010 13:38:02 17 C 5.79 g/m*3 17 C 0 km/h
789 17-09-2010 13:50:02 17.9 C 5.65 g/m*3 17.9 C 0 km/h
790 17-09-2010 14:02:02 18.5 C 5.54 g/m*3 18.5 C 0 km/h
791 17-09-2010 14:14:02 17.1 C 5.24 g/m*3 17.1 C 0 km/h
792 17-09-2010 14:26:02 16.8 C 5.29 g/m*3 16.8 C 0 km/h
793 17-09-2010 14:38:02 17.4 C 5.34 g/m*3 17.4 C 0 km/h
794 17-09-2010 14:50:02 18.3 C 5 g/m*3 18.3 C 0 km/h
795 17-09-2010 15:02:02 18.6 C 4.93 g/m*3 18.6 C 0 km/h
796 17-09-2010 15:14:02 18.2 C 4.97 g/m*3 18.2 C 0 km/h
797 17-09-2010 15:26:02 17.2 C 5.13 g/m*3 17.2 C 0 km/h
798 17-09-2010 15:38:02 16.6 C 5.09 g/m*3 16.6 C 0 km/h
799 17-09-2010 15:50:02 16.8 C 5.15 g/m*3 16.8 C 0 km/h
800 17-09-2010 16:02:02 18.4 C 5.19 g/m*3 18.4 C 0 km/h
Sensor: Nr:Datum:Temp:Abs-Feuchte:Windchill:Wind:
Aussen-T/F 801 17-09-2010 16:14:02 18.9 C 5.02 g/m*3 18.9 C 0 km/h
802 17-09-2010 16:26:02 19.3 C 4.81 g/m*3 19.3 C 0 km/h
803 17-09-2010 16:38:01 18.9 C 4.86 g/m*3 18.9 C 0 km/h
804 17-09-2010 16:50:02 19.8 C 4.78 g/m*3 19.8 C 0 km/h
805 17-09-2010 17:02:01 20.1 C 4.69 g/m*3 20.1 C 0 km/h
806 17-09-2010 17:14:01 19.7 C 4.25 g/m*3 19.7 C 0 km/h
807 17-09-2010 17:26:01 18.8 C 4.35 g/m*3 18.8 C 0 km/h
808 17-09-2010 17:38:02 19.3 C 4.31 g/m*3 19.3 C 0 km/h
809 17-09-2010 17:50:02 19.4 C 4.67 g/m*3 19.4 C 0 km/h
810 17-09-2010 18:02:02 17.5 C 5.22 g/m*3 17.5 C 0 km/h
811 17-09-2010 18:14:02 16 C 5.99 g/m*3 16 C 0 km/h
812 17-09-2010 18:26:02 17.2 C 6.3 g/m*3 17.2 C 0 km/h
813 17-09-2010 18:38:02 16.3 C 6.24 g/m*3 16.3 C 0 km/h
814 17-09-2010 18:50:01 16.3 C 6.66 g/m*3 16.3 C 0 km/h
815 17-09-2010 19:02:01 16.3 C 6.66 g/m*3 16.3 C 0 km/h
816 17-09-2010 19:14:02 15.7 C 6.56 g/m*3 15.7 C 0 km/h
817 17-09-2010 19:26:01 15 C 6.54 g/m*3 15 C 0 km/h
818 17-09-2010 19:38:01 14.7 C 6.8 g/m*3 14.7 C 0 km/h
819 17-09-2010 19:50:02 14.5 C 6.84 g/m*3 14.5 C 0 km/h
820 17-09-2010 20:02:02 14.5 C 6.96 g/m*3 14.5 C 0 km/h
821 17-09-2010 20:14:02 14.5 C 6.96 g/m*3 14.5 C 0 km/h
822 17-09-2010 20:26:02 14.5 C 7.09 g/m*3 14.5 C 0 km/h
823 17-09-2010 20:38:02 14.1 C 7.28 g/m*3 14.1 C 0 km/h
824 17-09-2010 20:50:01 13.7 C 6.99 g/m*3 13.7 C 0 km/h
825 17-09-2010 21:02:02 13.7 C 7.22 g/m*3 13.7 C 0 km/h
Sensor: Nr:Datum:Temp:Abs-Feuchte:Windchill:Wind:
Aussen-T/F 826 17-09-2010 21:14:02 13.5 C 7.13 g/m*3 13.5 C 0 km/h
827 17-09-2010 21:26:01 13.4 C 7.09 g/m*3 13.4 C 0 km/h
828 17-09-2010 21:38:01 13.4 C 7.09 g/m*3 13.4 C 0 km/h
829 17-09-2010 21:50:01 13.4 C 7.21 g/m*3 13.4 C 0 km/h
830 17-09-2010 22:02:01 13.6 C 6.94 g/m*3 13.6 C 0 km/h
831 17-09-2010 22:14:01 13.6 C 6.71 g/m*3 13.6 C 0 km/h
832 17-09-2010 22:26:02 13.4 C 6.63 g/m*3 13.4 C 0 km/h
833 17-09-2010 22:39:36 13.1 C 6.62 g/m*3 13.1 C 0 km/h
834 17-09-2010 22:51:37 13 C 6.69 g/m*3 13 C 0 km/h
835 17-09-2010 23:03:37 12.8 C 6.72 g/m*3 12.8 C 0 km/h
836 17-09-2010 23:15:37 12.6 C 6.75 g/m*3 12.6 C 0 km/h
837 17-09-2010 23:27:37 12.6 C 6.86 g/m*3 12.6 C 0 km/h
838 17-09-2010 23:39:37 12.5 C 6.82 g/m*3 12.5 C 0 km/h
839 17-09-2010 23:51:37 12.4 C 6.88 g/m*3 12.4 C 0 km/h
840 18-09-2010 00:03:37 12.2 C 6.8 g/m*3 12.2 C 0 km/h
841 18-09-2010 00:15:37 12.3 C 6.95 g/m*3 12.3 C 0 km/h
842 18-09-2010 00:27:37 12 C 6.82 g/m*3 12 C 0 km/h
843 18-09-2010 00:39:37 12 C 7.03 g/m*3 12 C 0 km/h
844 18-09-2010 00:51:37 12.1 C 7.08 g/m*3 12.1 C 0 km/h
845 18-09-2010 01:03:37 11.9 C 7.2 g/m*3 11.9 C 0 km/h
846 18-09-2010 01:15:37 11.2 C 6.99 g/m*3 11.2 C 0 km/h
847 18-09-2010 01:27:37 10.8 C 7.02 g/m*3 10.8 C 0 km/h
848 18-09-2010 01:39:37 10.4 C 6.94 g/m*3 10.4 C 0 km/h
849 18-09-2010 01:51:37 10.2 C 6.85 g/m*3 10.2 C 0 km/h
850 18-09-2010 02:03:37 10.2 C 6.95 g/m*3 10.2 C 0 km/h
Sensor: Nr:Datum:Temp:Abs-Feuchte:Windchill:Wind:
Aussen-T/F 851 18-09-2010 02:15:37 10 C 7.05 g/m*3 10 C 0 km/h
852 18-09-2010 02:27:37 10 C 7.24 g/m*3 10 C 0 km/h
853 18-09-2010 02:39:37 9.8 C 7.33 g/m*3 9.8 C 0 km/h
854 18-09-2010 02:51:37 10 C 7.42 g/m*3 10 C 0 km/h
855 18-09-2010 03:03:38 9.9 C 7.47 g/m*3 9.9 C 0 km/h
856 18-09-2010 03:15:38 9.5 C 7.28 g/m*3 9.5 C 0 km/h
857 18-09-2010 03:27:38 9.4 C 7.33 g/m*3 9.4 C 0 km/h
858 18-09-2010 03:39:38 9.1 C 7.19 g/m*3 9.1 C 0 km/h
859 18-09-2010 03:51:38 9 C 7.23 g/m*3 9 C 0 km/h
860 18-09-2010 04:03:38 8.9 C 7.36 g/m*3 8.9 C 0 km/h
861 18-09-2010 04:15:38 8.7 C 7.26 g/m*3 8.7 C 0 km/h
862 18-09-2010 04:27:38 8.5 C 7.17 g/m*3 8.5 C 0 km/h
863 18-09-2010 04:39:38 8.4 C 7.13 g/m*3 8.4 C 0 km/h
864 18-09-2010 04:51:38 8.2 C 7.03 g/m*3 8.2 C 0 km/h
865 18-09-2010 05:03:38 8.2 C 7.12 g/m*3 8.2 C 0 km/h
866 18-09-2010 05:15:38 8.1 C 7.16 g/m*3 8.1 C 0 km/h
867 18-09-2010 05:27:38 7.9 C 7.23 g/m*3 7.9 C 0 km/h
868 18-09-2010 05:39:38 7.7 C 7.14 g/m*3 7.7 C 0 km/h
869 18-09-2010 05:51:38 7.8 C 7.26 g/m*3 7.8 C 0 km/h
870 18-09-2010 06:03:38 7.8 C 7.35 g/m*3 7.8 C 0 km/h
871 18-09-2010 06:15:38 7.5 C 7.28 g/m*3 7.5 C 0 km/h
872 18-09-2010 06:27:38 7.5 C 7.28 g/m*3 7.5 C 0 km/h
873 18-09-2010 06:39:38 7.6 C 7.41 g/m*3 7.6 C 0 km/h
874 18-09-2010 06:51:38 7.7 C 7.46 g/m*3 7.7 C 0 km/h
875 18-09-2010 07:03:39 7.7 C 7.46 g/m*3 7.7 C 0 km/h
Sensor: Nr:Datum:Temp:Abs-Feuchte:Windchill:Wind:
Aussen-T/F 876 18-09-2010 07:15:39 7.6 C 7.33 g/m*3 7.6 C 0 km/h
877 18-09-2010 07:27:39 7.5 C 7.28 g/m*3 7.5 C 0 km/h
878 18-09-2010 07:39:39 7.3 C 7.19 g/m*3 7.3 C 0 km/h
879 18-09-2010 07:51:39 7.4 C 7.24 g/m*3 7.4 C 0 km/h
880 18-09-2010 08:03:02 7.3 C 7.11 g/m*3 7.3 C 0 km/h
881 18-09-2010 08:15:03 7.4 C 7.16 g/m*3 7.4 C 0 km/h
882 18-09-2010 08:27:03 7.5 C 7.28 g/m*3 7.5 C 0 km/h
883 18-09-2010 08:39:02 7.5 C 7.28 g/m*3 7.5 C 0 km/h
884 18-09-2010 08:51:02 7.6 C 7.33 g/m*3 7.6 C 0 km/h
885 18-09-2010 09:03:02 7.7 C 7.38 g/m*3 7.7 C 0 km/h
886 18-09-2010 09:15:02 7.8 C 7.43 g/m*3 7.8 C 0 km/h
887 18-09-2010 09:27:02 8 C 7.44 g/m*3 8 C 0 km/h
888 18-09-2010 09:39:02 8.2 C 7.54 g/m*3 8.2 C 0 km/h
889 18-09-2010 09:51:02 8.9 C 7.97 g/m*3 8.9 C 0 km/h
890 18-09-2010 10:03:02 9.3 C 8.09 g/m*3 9.3 C 0 km/h
891 18-09-2010 10:15:02 9.5 C 8.1 g/m*3 9.5 C 0 km/h
892 18-09-2010 10:27:03 9.8 C 8.07 g/m*3 9.8 C 0 km/h
893 18-09-2010 10:39:01 10.7 C 8.25 g/m*3 10.7 C 0 km/h
894 18-09-2010 10:51:02 11.7 C 8.37 g/m*3 11.7 C 0 km/h
895 18-09-2010 11:03:02 12.2 C 6.91 g/m*3 12.2 C 0 km/h
896 18-09-2010 11:15:02 13 C 6.8 g/m*3 13 C 0 km/h
897 18-09-2010 11:27:02 13.6 C 6.59 g/m*3 13.6 C 0 km/h
898 18-09-2010 11:39:02 14 C 6.39 g/m*3 14 C 0 km/h
899 18-09-2010 11:51:01 14.5 C 6.47 g/m*3 14.5 C 0 km/h
900 18-09-2010 12:03:02 14.6 C 6.13 g/m*3 14.6 C 0 km/h
Sensor: Nr:Datum:Temp:Abs-Feuchte:Windchill:Wind:
Aussen-T/F 901 18-09-2010 12:15:01 15.7 C 6.15 g/m*3 15.7 C 0 km/h
902 18-09-2010 12:27:01 15.1 C 5.42 g/m*3 15.1 C 0 km/h
903 18-09-2010 12:39:01 15.4 C 6.04 g/m*3 15.4 C 0 km/h
904 18-09-2010 12:51:01 14.9 C 5.86 g/m*3 14.9 C 0 km/h
905 18-09-2010 13:03:02 14.9 C 5.86 g/m*3 14.9 C 0 km/h
906 18-09-2010 13:15:01 15.3 C 5.48 g/m*3 15.3 C 0 km/h
907 18-09-2010 13:27:01 15.6 C 5.32 g/m*3 15.6 C 0 km/h
908 18-09-2010 13:39:01 15.8 C 5.25 g/m*3 15.8 C 0 km/h
909 18-09-2010 13:51:01 16.4 C 5.16 g/m*3 16.4 C 0 km/h
910 18-09-2010 14:03:01 16.2 C 4.96 g/m*3 16.2 C 0 km/h
911 18-09-2010 14:15:02 15.4 C 4.73 g/m*3 15.4 C 0 km/h
912 18-09-2010 14:27:02 14.7 C 4.66 g/m*3 14.7 C 0 km/h
913 18-09-2010 14:39:01 14.9 C 4.72 g/m*3 14.9 C 0 km/h
914 18-09-2010 14:51:02 15.1 C 4.77 g/m*3 15.1 C 0 km/h
915 18-09-2010 15:03:02 15.4 C 4.6 g/m*3 15.4 C 0 km/h
916 18-09-2010 15:15:02 16.1 C 4.52 g/m*3 16.1 C 0 km/h
917 18-09-2010 15:27:02 15.9 C 4.74 g/m*3 15.9 C 0 km/h
918 18-09-2010 15:39:02 17.3 C 4.57 g/m*3 17.3 C 0 km/h
919 18-09-2010 15:51:02 16.8 C 4.43 g/m*3 16.8 C 0 km/h
920 18-09-2010 16:03:01 16.4 C 4.75 g/m*3 16.4 C 0 km/h
921 18-09-2010 16:15:02 16.2 C 4.55 g/m*3 16.2 C 0 km/h
922 18-09-2010 16:27:03 16.1 C 4.66 g/m*3 16.1 C 0 km/h
923 18-09-2010 16:39:01 16.1 C 4.8 g/m*3 16.1 C 0 km/h
924 18-09-2010 16:51:02 16.3 C 5.55 g/m*3 16.3 C 0 km/h
925 18-09-2010 17:03:02 16.3 C 4.99 g/m*3 16.3 C 0 km/h
Sensor: Nr:Datum:Temp:Abs-Feuchte:Windchill:Wind:
Aussen-T/F 926 18-09-2010 17:15:02 16.4 C 6.14 g/m*3 16.4 C 0 km/h
927 18-09-2010 17:27:02 16.3 C 5.41 g/m*3 16.3 C 0 km/h
928 18-09-2010 17:39:02 15.6 C 6.12 g/m*3 15.6 C 0 km/h
929 18-09-2010 17:51:01 14.7 C 5.92 g/m*3 14.7 C 0 km/h
930 18-09-2010 18:03:02 14.5 C 6.09 g/m*3 14.5 C 0 km/h
931 18-09-2010 18:15:01 15.6 C 5.98 g/m*3 15.6 C 0 km/h
932 18-09-2010 18:27:01 16.2 C 5.93 g/m*3 16.2 C 0 km/h
933 18-09-2010 18:39:01 16.2 C 6.07 g/m*3 16.2 C 0 km/h
934 18-09-2010 18:51:01 15.8 C 6.19 g/m*3 15.8 C 0 km/h
935 18-09-2010 19:03:02 15.2 C 6.1 g/m*3 15.2 C 0 km/h
936 18-09-2010 19:15:01 14 C 5.91 g/m*3 14 C 0 km/h
937 18-09-2010 19:27:01 13 C 6.12 g/m*3 13 C 0 km/h
938 18-09-2010 19:39:01 12.2 C 6.04 g/m*3 12.2 C 0 km/h
939 18-09-2010 19:51:01 11.9 C 6.14 g/m*3 11.9 C 0 km/h
940 18-09-2010 20:03:02 11.4 C 6.36 g/m*3 11.4 C 0 km/h
941 18-09-2010 20:15:02 11.2 C 6.39 g/m*3 11.2 C 0 km/h
942 18-09-2010 20:27:02 11.1 C 6.75 g/m*3 11.1 C 0 km/h
943 18-09-2010 20:39:01 10.9 C 6.76 g/m*3 10.9 C 0 km/h
944 18-09-2010 20:51:01 10.8 C 6.72 g/m*3 10.8 C 0 km/h
945 18-09-2010 21:03:01 10.6 C 6.73 g/m*3 10.6 C 0 km/h
946 18-09-2010 21:15:02 10.2 C 6.66 g/m*3 10.2 C 0 km/h
947 18-09-2010 21:27:02 10 C 6.48 g/m*3 10 C 0 km/h
948 18-09-2010 21:39:01 9.7 C 6.64 g/m*3 9.7 C 0 km/h
949 18-09-2010 21:51:02 9.6 C 6.6 g/m*3 9.6 C 0 km/h
950 18-09-2010 22:03:02 9.3 C 6.56 g/m*3 9.3 C 0 km/h
Sensor: Nr:Datum:Temp:Abs-Feuchte:Windchill:Wind:
Aussen-T/F 951 18-09-2010 22:15:02 9.2 C 6.61 g/m*3 9.2 C 0 km/h
952 18-09-2010 22:27:02 9 C 6.7 g/m*3 9 C 0 km/h
953 18-09-2010 22:40:03 8.8 C 6.79 g/m*3 8.8 C 0 km/h
954 18-09-2010 22:52:03 8.6 C 6.79 g/m*3 8.6 C 0 km/h
955 18-09-2010 23:04:03 8.5 C 6.74 g/m*3 8.5 C 0 km/h
956 18-09-2010 23:16:03 8.4 C 6.87 g/m*3 8.4 C 0 km/h
957 18-09-2010 23:28:03 8.2 C 6.78 g/m*3 8.2 C 0 km/h
958 18-09-2010 23:40:03 8 C 6.7 g/m*3 8 C 0 km/h
959 18-09-2010 23:52:03 7.9 C 6.74 g/m*3 7.9 C 0 km/h
960 19-09-2010 00:04:03 7.8 C 6.77 g/m*3 7.8 C 0 km/h
961 19-09-2010 00:16:03 7.7 C 6.73 g/m*3 7.7 C 0 km/h
962 19-09-2010 00:28:03 7.6 C 6.77 g/m*3 7.6 C 0 km/h
963 19-09-2010 00:40:03 7.4 C 6.68 g/m*3 7.4 C 0 km/h
964 19-09-2010 00:52:03 7.3 C 6.64 g/m*3 7.3 C 0 km/h
965 19-09-2010 01:04:04 7.1 C 6.47 g/m*3 7.1 C 0 km/h
966 19-09-2010 01:16:04 7.1 C 6.55 g/m*3 7.1 C 0 km/h
967 19-09-2010 01:28:04 6.9 C 6.54 g/m*3 6.9 C 0 km/h
968 19-09-2010 01:40:04 6.8 C 6.58 g/m*3 6.8 C 0 km/h
969 19-09-2010 01:52:04 6.7 C 6.53 g/m*3 6.7 C 0 km/h
970 19-09-2010 02:04:04 6.6 C 6.57 g/m*3 6.6 C 0 km/h
971 19-09-2010 02:16:04 6.4 C 6.48 g/m*3 6.4 C 0 km/h
972 19-09-2010 02:28:04 6.4 C 6.48 g/m*3 6.4 C 0 km/h
973 19-09-2010 02:40:04 6.4 C 6.56 g/m*3 6.4 C 0 km/h
974 19-09-2010 02:52:04 6.4 C 6.56 g/m*3 6.4 C 0 km/h
975 19-09-2010 03:04:04 6.4 C 6.56 g/m*3 6.4 C 0 km/h
Sensor: Nr:Datum:Temp:Abs-Feuchte:Windchill:Wind:
Aussen-T/F 976 19-09-2010 03:16:04 6.4 C 6.56 g/m*3 6.4 C 0 km/h
977 19-09-2010 03:28:04 6.4 C 6.56 g/m*3 6.4 C 0 km/h
978 19-09-2010 03:40:04 6.5 C 6.6 g/m*3 6.5 C 0 km/h
979 19-09-2010 03:52:04 6.4 C 6.56 g/m*3 6.4 C 0 km/h
980 19-09-2010 04:04:04 6.3 C 6.51 g/m*3 6.3 C 0 km/h
981 19-09-2010 04:16:04 6.1 C 6.43 g/m*3 6.1 C 0 km/h
982 19-09-2010 04:28:04 5.9 C 6.42 g/m*3 5.9 C 0 km/h
983 19-09-2010 04:40:04 6.2 C 6.47 g/m*3 6.2 C 0 km/h
984 19-09-2010 04:52:04 6.5 C 6.67 g/m*3 6.5 C 0 km/h
985 19-09-2010 05:04:05 6.6 C 6.72 g/m*3 6.6 C 0 km/h
986 19-09-2010 05:16:05 6.2 C 6.47 g/m*3 6.2 C 0 km/h
987 19-09-2010 05:28:05 6 C 6.39 g/m*3 6 C 0 km/h
988 19-09-2010 05:40:05 5.8 C 6.3 g/m*3 5.8 C 0 km/h
989 19-09-2010 05:52:05 5.6 C 6.22 g/m*3 5.6 C 0 km/h
990 19-09-2010 06:04:05 5.5 C 6.18 g/m*3 5.5 C 0 km/h
991 19-09-2010 06:16:05 5.5 C 6.18 g/m*3 5.5 C 0 km/h
992 19-09-2010 06:28:05 5.7 C 6.33 g/m*3 5.7 C 0 km/h
993 19-09-2010 06:40:05 6 C 6.46 g/m*3 6 C 0 km/h
994 19-09-2010 06:52:05 6.1 C 6.5 g/m*3 6.1 C 0 km/h
995 19-09-2010 07:04:05 6.3 C 6.59 g/m*3 6.3 C 0 km/h
996 19-09-2010 07:16:05 6.1 C 6.5 g/m*3 6.1 C 0 km/h
997 19-09-2010 07:28:05 5.8 C 6.38 g/m*3 5.8 C 0 km/h
998 19-09-2010 07:40:05 5.9 C 6.42 g/m*3 5.9 C 0 km/h
999 19-09-2010 07:52:05 5.9 C 6.42 g/m*3 5.9 C 0 km/h
1000 19-09-2010 08:04:05 6.2 C 6.47 g/m*3 6.2 C 0 km/h
Sensor: Nr:Datum:Temp:Abs-Feuchte:Windchill:Wind:
Aussen-T/F 1001 19-09-2010 08:16:05 6.7 C 6.76 g/m*3 6.7 C 0 km/h
1002 19-09-2010 08:28:05 7.3 C 6.95 g/m*3 7.3 C 0 km/h
1003 19-09-2010 08:40:05 7.4 C 7 g/m*3 7.4 C 0 km/h
1004 19-09-2010 08:52:02 7.2 C 6.75 g/m*3 7.2 C 0 km/h
1005 19-09-2010 09:04:02 7.2 C 6.67 g/m*3 7.2 C 0 km/h
1006 19-09-2010 09:16:02 7.3 C 6.79 g/m*3 7.3 C 0 km/h
1007 19-09-2010 09:28:02 7.7 C 6.97 g/m*3 7.7 C 0 km/h
1008 19-09-2010 09:40:02 8.8 C 7.31 g/m*3 8.8 C 0 km/h
1009 19-09-2010 09:52:01 9.6 C 7.15 g/m*3 9.6 C 0 km/h
1010 19-09-2010 10:04:01 10.2 C 6.76 g/m*3 10.2 C 0 km/h
1011 19-09-2010 10:16:01 10.9 C 6.86 g/m*3 10.9 C 0 km/h
1012 19-09-2010 10:28:01 10.8 C 6.62 g/m*3 10.8 C 0 km/h
1013 19-09-2010 10:40:01 10.7 C 6.58 g/m*3 10.7 C 0 km/h
1014 19-09-2010 10:52:01 11 C 6.61 g/m*3 11 C 0 km/h
1015 19-09-2010 11:04:01 11.5 C 6.51 g/m*3 11.5 C 0 km/h
1016 19-09-2010 11:16:02 12.2 C 6.58 g/m*3 12.2 C 0 km/h
1017 19-09-2010 11:28:02 13.3 C 6.47 g/m*3 13.3 C 0 km/h
1018 19-09-2010 11:40:01 13.8 C 5.96 g/m*3 13.8 C 0 km/h
1019 19-09-2010 11:52:03 13.8 C 5.72 g/m*3 13.8 C 0 km/h
1020 19-09-2010 12:04:02 13.8 C 5.84 g/m*3 13.8 C 0 km/h
1021 19-09-2010 12:16:02 14.3 C 5.9 g/m*3 14.3 C 0 km/h
1022 19-09-2010 12:28:02 15.2 C 5.84 g/m*3 15.2 C 0 km/h
1023 19-09-2010 12:40:02 15.7 C 5.35 g/m*3 15.7 C 0 km/h
1024 19-09-2010 12:52:02 15.7 C 5.35 g/m*3 15.7 C 0 km/h
1025 19-09-2010 13:04:01 16.2 C 5.52 g/m*3 16.2 C 0 km/h
Sensor: Nr:Datum:Temp:Abs-Feuchte:Windchill:Wind:
Aussen-T/F 1026 19-09-2010 13:16:02 16.4 C 5.58 g/m*3 16.4 C 0 km/h
1027 19-09-2010 13:28:02 16.1 C 5.48 g/m*3 16.1 C 0 km/h
1028 19-09-2010 13:40:02 16 C 5.59 g/m*3 16 C 0 km/h
1029 19-09-2010 13:52:01 15.9 C 5.55 g/m*3 15.9 C 0 km/h
1030 19-09-2010 14:04:02 16.5 C 5.62 g/m*3 16.5 C 0 km/h
1031 19-09-2010 14:16:01 17.5 C 5.67 g/m*3 17.5 C 0 km/h
1032 19-09-2010 14:28:01 17.5 C 5.67 g/m*3 17.5 C 0 km/h
1033 19-09-2010 14:40:01 17.5 C 5.67 g/m*3 17.5 C 0 km/h
1034 19-09-2010 14:52:01 17.9 C 5.8 g/m*3 17.9 C 0 km/h
1035 19-09-2010 15:04:02 17.8 C 5.46 g/m*3 17.8 C 0 km/h
1036 19-09-2010 15:16:01 18.6 C 5.73 g/m*3 18.6 C 0 km/h
1037 19-09-2010 15:28:01 18.4 C 5.66 g/m*3 18.4 C 0 km/h
1038 19-09-2010 15:40:02 19 C 5.38 g/m*3 19 C 0 km/h
1039 19-09-2010 15:52:01 19.3 C 4.98 g/m*3 19.3 C 0 km/h
1040 19-09-2010 16:04:02 18.8 C 5.31 g/m*3 18.8 C 0 km/h
1041 19-09-2010 16:16:01 18.6 C 5.41 g/m*3 18.6 C 0 km/h
1042 19-09-2010 16:28:01 18.8 C 5.31 g/m*3 18.8 C 0 km/h
1043 19-09-2010 16:40:02 19.6 C 5.4 g/m*3 19.6 C 0 km/h
1044 19-09-2010 16:52:01 19.4 C 5.01 g/m*3 19.4 C 0 km/h
1045 19-09-2010 17:04:02 19.8 C 5.3 g/m*3 19.8 C 0 km/h
1046 19-09-2010 17:16:02 19.1 C 5.25 g/m*3 19.1 C 0 km/h
1047 19-09-2010 17:28:02 18.6 C 5.57 g/m*3 18.6 C 0 km/h
1048 19-09-2010 17:40:01 18.4 C 6.29 g/m*3 18.4 C 0 km/h
1049 19-09-2010 17:52:02 18 C 5.99 g/m*3 18 C 0 km/h
1050 19-09-2010 18:04:01 17.6 C 6 g/m*3 17.6 C 0 km/h
Sensor: Nr:Datum:Temp:Abs-Feuchte:Windchill:Wind:
Aussen-T/F 1051 19-09-2010 18:16:02 17.2 C 6.3 g/m*3 17.2 C 0 km/h
1052 19-09-2010 18:28:03 17.1 C 5.82 g/m*3 17.1 C 0 km/h
1053 19-09-2010 18:40:01 17 C 6.08 g/m*3 17 C 0 km/h
1054 19-09-2010 18:52:02 16.5 C 5.76 g/m*3 16.5 C 0 km/h
1055 19-09-2010 19:04:02 16.2 C 5.79 g/m*3 16.2 C 0 km/h
1056 19-09-2010 19:16:02 16 C 5.99 g/m*3 16 C 0 km/h
1057 19-09-2010 19:28:02 15.8 C 5.92 g/m*3 15.8 C 0 km/h
1058 19-09-2010 19:40:03 15.6 C 5.98 g/m*3 15.6 C 0 km/h
1059 19-09-2010 19:52:02 15.3 C 6.14 g/m*3 15.3 C 0 km/h
1060 19-09-2010 20:04:02 14.8 C 6.33 g/m*3 14.8 C 0 km/h
1061 19-09-2010 20:16:02 14.5 C 6.34 g/m*3 14.5 C 0 km/h
1062 19-09-2010 20:28:02 14.3 C 6.27 g/m*3 14.3 C 0 km/h
1063 19-09-2010 20:40:02 14.3 C 6.39 g/m*3 14.3 C 0 km/h
1064 19-09-2010 20:52:02 14.4 C 6.18 g/m*3 14.4 C 0 km/h
1065 19-09-2010 21:04:02 14.4 C 6.43 g/m*3 14.4 C 0 km/h
1066 19-09-2010 21:16:02 14.2 C 6.47 g/m*3 14.2 C 0 km/h
1067 19-09-2010 21:28:02 14 C 6.51 g/m*3 14 C 0 km/h
1068 19-09-2010 21:40:02 13.7 C 6.87 g/m*3 13.7 C 0 km/h
1069 19-09-2010 21:52:03 13.5 C 6.78 g/m*3 13.5 C 0 km/h
1070 19-09-2010 22:04:03 13.4 C 6.74 g/m*3 13.4 C 0 km/h
1071 19-09-2010 22:17:01 13.3 C 6.7 g/m*3 13.3 C 0 km/h
1072 19-09-2010 22:29:01 13.4 C 6.86 g/m*3 13.4 C 0 km/h
1073 19-09-2010 22:41:01 13.3 C 6.82 g/m*3 13.3 C 0 km/h
1074 19-09-2010 22:53:01 13.2 C 6.77 g/m*3 13.2 C 0 km/h
1075 19-09-2010 23:05:01 13 C 6.8 g/m*3 13 C 0 km/h
Sensor: Nr:Datum:Temp:Abs-Feuchte:Windchill:Wind:
Aussen-T/F 1076 19-09-2010 23:17:01 12.5 C 6.82 g/m*3 12.5 C 0 km/h
1077 19-09-2010 23:29:01 12.2 C 6.8 g/m*3 12.2 C 0 km/h
1078 19-09-2010 23:41:01 11.9 C 6.67 g/m*3 11.9 C 0 km/h
1079 19-09-2010 23:53:01 11.8 C 6.74 g/m*3 11.8 C 0 km/h
1080 20-09-2010 00:05:01 11.9 C 6.88 g/m*3 11.9 C 0 km/h
1081 20-09-2010 00:17:01 11.9 C 6.99 g/m*3 11.9 C 0 km/h
1082 20-09-2010 00:29:02 11.9 C 6.88 g/m*3 11.9 C 0 km/h
1083 20-09-2010 00:41:02 11.4 C 6.77 g/m*3 11.4 C 0 km/h
1084 20-09-2010 00:53:02 11.3 C 6.83 g/m*3 11.3 C 0 km/h
1085 20-09-2010 01:05:02 10.8 C 6.72 g/m*3 10.8 C 0 km/h
1086 20-09-2010 01:17:02 10.5 C 6.69 g/m*3 10.5 C 0 km/h
1087 20-09-2010 01:29:02 10.4 C 6.75 g/m*3 10.4 C 0 km/h
1088 20-09-2010 01:41:02 10.2 C 6.85 g/m*3 10.2 C 0 km/h
1089 20-09-2010 01:53:02 10.3 C 6.9 g/m*3 10.3 C 0 km/h
1090 20-09-2010 02:05:02 10.1 C 6.81 g/m*3 10.1 C 0 km/h
1091 20-09-2010 02:17:02 10 C 6.77 g/m*3 10 C 0 km/h
1092 20-09-2010 02:29:02 9.8 C 6.96 g/m*3 9.8 C 0 km/h
1093 20-09-2010 02:41:02 9.6 C 6.87 g/m*3 9.6 C 0 km/h
1094 20-09-2010 02:53:02 9.7 C 7.01 g/m*3 9.7 C 0 km/h
1095 20-09-2010 03:05:02 9.8 C 6.96 g/m*3 9.8 C 0 km/h
1096 20-09-2010 03:17:02 9.6 C 6.96 g/m*3 9.6 C 0 km/h
1097 20-09-2010 03:29:02 9.7 C 7.1 g/m*3 9.7 C 0 km/h
1098 20-09-2010 03:41:02 9.7 C 7.1 g/m*3 9.7 C 0 km/h
1099 20-09-2010 03:53:02 9.4 C 6.96 g/m*3 9.4 C 0 km/h
1100 20-09-2010 04:05:02 9.3 C 6.92 g/m*3 9.3 C 0 km/h
Sensor: Nr:Datum:Temp:Abs-Feuchte:Windchill:Wind:
Aussen-T/F 1101 20-09-2010 04:17:02 9.2 C 6.88 g/m*3 9.2 C 0 km/h
1102 20-09-2010 04:29:02 9 C 6.88 g/m*3 9 C 0 km/h
1103 20-09-2010 04:41:03 8.8 C 6.88 g/m*3 8.8 C 0 km/h
1104 20-09-2010 04:53:03 8.6 C 6.87 g/m*3 8.6 C 0 km/h
1105 20-09-2010 05:05:03 8.4 C 6.87 g/m*3 8.4 C 0 km/h
1106 20-09-2010 05:17:03 8.4 C 6.87 g/m*3 8.4 C 0 km/h
1107 20-09-2010 05:29:03 8.3 C 6.91 g/m*3 8.3 C 0 km/h
1108 20-09-2010 05:41:03 8.2 C 6.87 g/m*3 8.2 C 0 km/h
1109 20-09-2010 05:53:03 8.3 C 6.91 g/m*3 8.3 C 0 km/h
1110 20-09-2010 06:05:03 8.3 C 6.91 g/m*3 8.3 C 0 km/h
1111 20-09-2010 06:17:03 8.4 C 7.04 g/m*3 8.4 C 0 km/h
1112 20-09-2010 06:29:03 8.5 C 7 g/m*3 8.5 C 0 km/h
1113 20-09-2010 06:41:03 8.5 C 7 g/m*3 8.5 C 0 km/h
1114 20-09-2010 06:53:03 8.7 C 7.18 g/m*3 8.7 C 0 km/h
1115 20-09-2010 07:05:01 8.6 C 7.13 g/m*3 8.6 C 0 km/h
1116 20-09-2010 07:17:02 8.4 C 7.04 g/m*3 8.4 C 0 km/h
1117 20-09-2010 07:29:02 8.5 C 7.09 g/m*3 8.5 C 0 km/h
1118 20-09-2010 07:41:01 8.5 C 7.09 g/m*3 8.5 C 0 km/h
1119 20-09-2010 07:53:02 8.6 C 7.13 g/m*3 8.6 C 0 km/h
1120 20-09-2010 08:05:02 9 C 7.14 g/m*3 9 C 0 km/h
1121 20-09-2010 08:17:02 9.2 C 6.97 g/m*3 9.2 C 0 km/h
1122 20-09-2010 08:29:02 9.2 C 6.79 g/m*3 9.2 C 0 km/h
1123 20-09-2010 08:41:02 9.3 C 6.74 g/m*3 9.3 C 0 km/h
1124 20-09-2010 08:53:01 9.2 C 6.7 g/m*3 9.2 C 0 km/h
1125 20-09-2010 09:05:02 9.3 C 6.83 g/m*3 9.3 C 0 km/h
Sensor: Nr:Datum:Temp:Abs-Feuchte:Windchill:Wind:
Aussen-T/F 1126 20-09-2010 09:17:01 9.6 C 6.87 g/m*3 9.6 C 0 km/h
1127 20-09-2010 09:29:01 9.7 C 6.82 g/m*3 9.7 C 0 km/h
1128 20-09-2010 09:41:01 10 C 6.95 g/m*3 10 C 0 km/h
1129 20-09-2010 09:53:01 10.6 C 7.12 g/m*3 10.6 C 0 km/h
1130 20-09-2010 10:05:02 11.4 C 7.29 g/m*3 11.4 C 0 km/h
1131 20-09-2010 10:17:02 12.1 C 7.18 g/m*3 12.1 C 0 km/h
1132 20-09-2010 10:29:02 12.4 C 7.1 g/m*3 12.4 C 0 km/h
1133 20-09-2010 10:41:01 12.9 C 7.33 g/m*3 12.9 C 0 km/h
1134 20-09-2010 10:53:01 13.2 C 7.12 g/m*3 13.2 C 0 km/h
1135 20-09-2010 11:05:01 13.3 C 7.39 g/m*3 13.3 C 0 km/h
1136 20-09-2010 11:17:02 13.8 C 7.15 g/m*3 13.8 C 0 km/h
1137 20-09-2010 11:29:02 14.8 C 6.84 g/m*3 14.8 C 0 km/h
1138 20-09-2010 11:41:01 15.3 C 6.66 g/m*3 15.3 C 0 km/h
1139 20-09-2010 11:53:02 15.9 C 6.77 g/m*3 15.9 C 0 km/h
1140 20-09-2010 12:05:02 16.1 C 6.31 g/m*3 16.1 C 0 km/h
1141 20-09-2010 12:17:02 15.9 C 6.5 g/m*3 15.9 C 0 km/h
1142 20-09-2010 12:29:03 16.1 C 6.31 g/m*3 16.1 C 0 km/h
1143 20-09-2010 12:41:02 16.4 C 6.42 g/m*3 16.4 C 0 km/h
1144 20-09-2010 12:53:02 16.8 C 6.15 g/m*3 16.8 C 0 km/h
1145 20-09-2010 13:05:01 17.1 C 6.11 g/m*3 17.1 C 0 km/h
1146 20-09-2010 13:17:02 17.5 C 6.26 g/m*3 17.5 C 0 km/h
1147 20-09-2010 13:29:02 18.1 C 6.33 g/m*3 18.1 C 0 km/h
1148 20-09-2010 13:41:02 18.5 C 6.01 g/m*3 18.5 C 0 km/h
1149 20-09-2010 13:53:02 18.9 C 5.83 g/m*3 18.9 C 0 km/h
1150 20-09-2010 14:05:03 19.5 C 6.04 g/m*3 19.5 C 0 km/h
Sensor: Nr:Datum:Temp:Abs-Feuchte:Windchill:Wind:
Aussen-T/F 1151 20-09-2010 14:17:02 19.7 C 5.94 g/m*3 19.7 C 0 km/h
1152 20-09-2010 14:29:02 20.1 C 5.91 g/m*3 20.1 C 0 km/h
1153 20-09-2010 14:41:02 20.5 C 5.69 g/m*3 20.5 C 0 km/h
1154 20-09-2010 14:53:01 20.3 C 5.45 g/m*3 20.3 C 0 km/h
1155 20-09-2010 15:05:02 20.8 C 5.79 g/m*3 20.8 C 0 km/h
1156 20-09-2010 15:17:01 21.4 C 5.81 g/m*3 21.4 C 0 km/h
1157 20-09-2010 15:29:01 21.5 C 5.85 g/m*3 21.5 C 0 km/h
1158 20-09-2010 15:41:01 21.6 C 5.88 g/m*3 21.6 C 0 km/h
1159 20-09-2010 15:53:01 21.8 C 5.95 g/m*3 21.8 C 0 km/h
1160 20-09-2010 16:05:01 22.2 C 6.48 g/m*3 22.2 C 0 km/h
1161 20-09-2010 16:17:02 22.6 C 6.23 g/m*3 22.6 C 0 km/h
1162 20-09-2010 16:29:02 22.8 C 6.1 g/m*3 22.8 C 0 km/h
1163 20-09-2010 16:41:01 22.6 C 6.23 g/m*3 22.6 C 0 km/h
1164 20-09-2010 16:53:01 22.1 C 6.05 g/m*3 22.1 C 0 km/h
1165 20-09-2010 17:05:01 22.2 C 6.28 g/m*3 22.2 C 0 km/h
1166 20-09-2010 17:17:02 22.1 C 5.86 g/m*3 22.1 C 0 km/h
1167 20-09-2010 17:29:02 22.3 C 6.32 g/m*3 22.3 C 0 km/h
1168 20-09-2010 17:41:01 22.1 C 5.86 g/m*3 22.1 C 0 km/h
1169 20-09-2010 17:53:02 22.7 C 6.26 g/m*3 22.7 C 0 km/h
1170 20-09-2010 18:05:02 22.7 C 6.47 g/m*3 22.7 C 0 km/h
1171 20-09-2010 18:17:02 22.2 C 6.28 g/m*3 22.2 C 0 km/h
1172 20-09-2010 18:29:02 21.6 C 6.64 g/m*3 21.6 C 0 km/h
1173 20-09-2010 18:41:02 20.6 C 6.8 g/m*3 20.6 C 0 km/h
1174 20-09-2010 18:53:02 19.4 C 7.01 g/m*3 19.4 C 0 km/h
1175 20-09-2010 19:05:01 18.9 C 6.97 g/m*3 18.9 C 0 km/h
Sensor: Nr:Datum:Temp:Abs-Feuchte:Windchill:Wind:
Aussen-T/F 1176 20-09-2010 19:17:01 18.1 C 7.11 g/m*3 18.1 C 0 km/h
1177 20-09-2010 19:29:01 17.5 C 7.31 g/m*3 17.5 C 0 km/h
1178 20-09-2010 19:41:02 16.8 C 7.29 g/m*3 16.8 C 0 km/h
1179 20-09-2010 19:53:02 16.2 C 7.17 g/m*3 16.2 C 0 km/h
1180 20-09-2010 20:05:02 15.9 C 7.31 g/m*3 15.9 C 0 km/h
1181 20-09-2010 20:17:02 15.6 C 7.45 g/m*3 15.6 C 0 km/h
1182 20-09-2010 20:29:02 15.3 C 7.57 g/m*3 15.3 C 0 km/h
1183 20-09-2010 20:41:02 15.1 C 7.74 g/m*3 15.1 C 0 km/h
1184 20-09-2010 20:53:02 14.8 C 7.6 g/m*3 14.8 C 0 km/h
1185 20-09-2010 21:05:02 14.7 C 7.68 g/m*3 14.7 C 0 km/h
1186 20-09-2010 21:17:02 14.4 C 7.66 g/m*3 14.4 C 0 km/h
1187 20-09-2010 21:29:02 14.2 C 7.69 g/m*3 14.2 C 0 km/h
1188 20-09-2010 21:41:02 14 C 7.72 g/m*3 14 C 0 km/h
1189 20-09-2010 21:53:02 13.7 C 7.82 g/m*3 13.7 C 0 km/h
1190 20-09-2010 22:06:02 13.6 C 8 g/m*3 13.6 C 0 km/h
1191 20-09-2010 22:18:02 13.5 C 7.95 g/m*3 13.5 C 0 km/h
1192 20-09-2010 22:30:02 13.5 C 8.07 g/m*3 13.5 C 0 km/h
1193 20-09-2010 22:42:02 12.9 C 8.11 g/m*3 12.9 C 0 km/h
1194 20-09-2010 22:54:02 12.6 C 8.19 g/m*3 12.6 C 0 km/h
1195 20-09-2010 23:06:02 12.6 C 8.19 g/m*3 12.6 C 0 km/h
1196 20-09-2010 23:18:02 12.5 C 8.14 g/m*3 12.5 C 0 km/h
1197 20-09-2010 23:30:02 12.3 C 8.04 g/m*3 12.3 C 0 km/h
1198 20-09-2010 23:42:02 12.1 C 7.94 g/m*3 12.1 C 0 km/h
1199 20-09-2010 23:54:02 11.9 C 7.94 g/m*3 11.9 C 0 km/h
1200 21-09-2010 00:06:03 11.8 C 7.89 g/m*3 11.8 C 0 km/h
Sensor: Nr:Datum:Temp:Abs-Feuchte:Windchill:Wind:
Aussen-T/F 1201 21-09-2010 00:18:03 11.6 C 7.9 g/m*3 11.6 C 0 km/h
1202 21-09-2010 00:30:03 11.5 C 7.85 g/m*3 11.5 C 0 km/h
1203 21-09-2010 00:42:03 11.4 C 7.9 g/m*3 11.4 C 0 km/h
1204 21-09-2010 00:54:03 11.3 C 7.85 g/m*3 11.3 C 0 km/h
1205 21-09-2010 01:06:03 11.2 C 7.8 g/m*3 11.2 C 0 km/h
1206 21-09-2010 01:18:03 11.1 C 7.86 g/m*3 11.1 C 0 km/h
1207 21-09-2010 01:30:03 10.9 C 7.86 g/m*3 10.9 C 0 km/h
1208 21-09-2010 01:42:03 10.8 C 7.81 g/m*3 10.8 C 0 km/h
1209 21-09-2010 01:54:03 10.5 C 7.66 g/m*3 10.5 C 0 km/h
1210 21-09-2010 02:06:03 10.4 C 7.71 g/m*3 10.4 C 0 km/h
1211 21-09-2010 02:18:03 10.4 C 7.71 g/m*3 10.4 C 0 km/h
1212 21-09-2010 02:30:03 10.3 C 7.76 g/m*3 10.3 C 0 km/h
1213 21-09-2010 02:42:03 10.1 C 7.66 g/m*3 10.1 C 0 km/h
1214 21-09-2010 02:54:03 10 C 7.61 g/m*3 10 C 0 km/h
1215 21-09-2010 03:06:03 10 C 7.71 g/m*3 10 C 0 km/h
1216 21-09-2010 03:18:03 9.9 C 7.75 g/m*3 9.9 C 0 km/h
1217 21-09-2010 03:30:03 9.8 C 7.79 g/m*3 9.8 C 0 km/h
1218 21-09-2010 03:42:03 9.5 C 7.65 g/m*3 9.5 C 0 km/h
1219 21-09-2010 03:54:03 9.5 C 7.65 g/m*3 9.5 C 0 km/h
1220 21-09-2010 04:06:04 9.4 C 7.6 g/m*3 9.4 C 0 km/h
1221 21-09-2010 04:18:04 9.3 C 7.55 g/m*3 9.3 C 0 km/h
1222 21-09-2010 04:30:04 9.2 C 7.5 g/m*3 9.2 C 0 km/h
1223 21-09-2010 04:42:04 9.2 C 7.5 g/m*3 9.2 C 0 km/h
1224 21-09-2010 04:54:04 9 C 7.41 g/m*3 9 C 0 km/h
1225 21-09-2010 05:06:04 9 C 7.49 g/m*3 9 C 0 km/h
Sensor: Nr:Datum:Temp:Abs-Feuchte:Windchill:Wind:
Aussen-T/F 1226 21-09-2010 05:18:04 8.8 C 7.49 g/m*3 8.8 C 0 km/h
1227 21-09-2010 05:30:04 8.8 C 7.49 g/m*3 8.8 C 0 km/h
1228 21-09-2010 05:42:04 8.7 C 7.44 g/m*3 8.7 C 0 km/h
1229 21-09-2010 05:54:04 8.6 C 7.39 g/m*3 8.6 C 0 km/h
1230 21-09-2010 06:06:04 8.5 C 7.43 g/m*3 8.5 C 0 km/h
1231 21-09-2010 06:18:04 8.4 C 7.38 g/m*3 8.4 C 0 km/h
1232 21-09-2010 06:30:04 8.3 C 7.33 g/m*3 8.3 C 0 km/h
1233 21-09-2010 06:42:04 8.2 C 7.29 g/m*3 8.2 C 0 km/h
1234 21-09-2010 06:54:04 8.3 C 7.42 g/m*3 8.3 C 0 km/h
1235 21-09-2010 07:06:02 8.2 C 7.37 g/m*3 8.2 C 0 km/h
1236 21-09-2010 07:18:02 8.2 C 7.37 g/m*3 8.2 C 0 km/h
1237 21-09-2010 07:30:02 8.1 C 7.32 g/m*3 8.1 C 0 km/h
1238 21-09-2010 07:42:03 8.1 C 7.32 g/m*3 8.1 C 0 km/h
1239 21-09-2010 07:54:02 8.1 C 7.32 g/m*3 8.1 C 0 km/h
1240 21-09-2010 08:06:01 8 C 7.36 g/m*3 8 C 0 km/h
1241 21-09-2010 08:18:02 8.1 C 7.41 g/m*3 8.1 C 0 km/h
1242 21-09-2010 08:30:02 8.2 C 7.54 g/m*3 8.2 C 0 km/h
1243 21-09-2010 08:42:02 8.4 C 7.63 g/m*3 8.4 C 0 km/h
1244 21-09-2010 08:54:02 8.6 C 7.73 g/m*3 8.6 C 0 km/h
1245 21-09-2010 09:06:02 8.7 C 7.78 g/m*3 8.7 C 0 km/h
1246 21-09-2010 09:18:02 8.9 C 7.88 g/m*3 8.9 C 0 km/h
1247 21-09-2010 09:30:02 9.3 C 8 g/m*3 9.3 C 0 km/h
1248 21-09-2010 09:42:02 9.5 C 8.1 g/m*3 9.5 C 0 km/h
1249 21-09-2010 09:54:01 9.5 C 8.1 g/m*3 9.5 C 0 km/h
1250 21-09-2010 10:06:02 9.9 C 8.31 g/m*3 9.9 C 0 km/h
Sensor: Nr:Datum:Temp:Abs-Feuchte:Windchill:Wind:
Aussen-T/F 1251 21-09-2010 10:18:01 10.5 C 8.53 g/m*3 10.5 C 0 km/h
1252 21-09-2010 10:30:01 11.1 C 8.76 g/m*3 11.1 C 0 km/h
1253 21-09-2010 10:42:01 11.7 C 8.99 g/m*3 11.7 C 0 km/h
1254 21-09-2010 10:54:01 12.4 C 8.96 g/m*3 12.4 C 0 km/h
1255 21-09-2010 11:06:01 13 C 8.51 g/m*3 13 C 0 km/h
1256 21-09-2010 11:18:02 13.6 C 8.59 g/m*3 13.6 C 0 km/h
1257 21-09-2010 11:30:02 14 C 8.56 g/m*3 14 C 0 km/h
1258 21-09-2010 11:42:01 14.7 C 8.81 g/m*3 14.7 C 0 km/h
1259 21-09-2010 11:54:03 15.3 C 8.75 g/m*3 15.3 C 0 km/h
1260 21-09-2010 12:06:02 15.8 C 8.75 g/m*3 15.8 C 0 km/h
1261 21-09-2010 12:18:02 16.5 C 8.85 g/m*3 16.5 C 0 km/h
1262 21-09-2010 12:30:03 16.5 C 9.13 g/m*3 16.5 C 0 km/h
1263 21-09-2010 12:42:02 16 C 8.86 g/m*3 16 C 0 km/h
1264 21-09-2010 12:54:02 15.9 C 9.34 g/m*3 15.9 C 0 km/h
1265 21-09-2010 13:06:02 16.4 C 9.77 g/m*3 16.4 C 0 km/h
1266 21-09-2010 13:18:02 16.6 C 9.46 g/m*3 16.6 C 0 km/h
1267 21-09-2010 13:30:02 16.8 C 9.72 g/m*3 16.8 C 0 km/h
1268 21-09-2010 13:42:02 17.3 C 9.87 g/m*3 17.3 C 0 km/h
1269 21-09-2010 13:54:02 18 C 9.37 g/m*3 18 C 0 km/h
1270 21-09-2010 14:06:02 17.5 C 9.54 g/m*3 17.5 C 0 km/h
1271 21-09-2010 14:18:01 17.4 C 9.63 g/m*3 17.4 C 0 km/h
1272 21-09-2010 14:30:01 17.2 C 9.52 g/m*3 17.2 C 0 km/h
1273 21-09-2010 14:42:02 17.5 C 9.54 g/m*3 17.5 C 0 km/h
1274 21-09-2010 14:54:02 19.5 C 9.06 g/m*3 19.5 C 0 km/h
1275 21-09-2010 15:06:02 21.3 C 8.76 g/m*3 21.3 C 0 km/h
Sensor: Nr:Datum:Temp:Abs-Feuchte:Windchill:Wind:
Aussen-T/F 1276 21-09-2010 15:18:02 22.6 C 8.44 g/m*3 22.6 C 0 km/h
1277 21-09-2010 15:30:02 23.3 C 7.95 g/m*3 23.3 C 0 km/h
1278 21-09-2010 15:42:02 23.9 C 7.79 g/m*3 23.9 C 0 km/h
1279 21-09-2010 15:54:02 24.5 C 7.83 g/m*3 24.5 C 0 km/h
1280 21-09-2010 16:06:02 25 C 7.6 g/m*3 25 C 0 km/h
1281 21-09-2010 16:18:02 25.2 C 7.45 g/m*3 25.2 C 0 km/h
1282 21-09-2010 16:30:02 25.2 C 7.68 g/m*3 25.2 C 0 km/h
1283 21-09-2010 16:42:02 25.1 C 7.87 g/m*3 25.1 C 0 km/h
1284 21-09-2010 16:54:02 25.3 C 7.49 g/m*3 25.3 C 0 km/h
1285 21-09-2010 17:06:02 25.4 C 7.53 g/m*3 25.4 C 0 km/h
1286 21-09-2010 17:18:02 25.5 C 7.81 g/m*3 25.5 C 0 km/h
1287 21-09-2010 17:30:02 24.5 C 7.39 g/m*3 24.5 C 0 km/h
1288 21-09-2010 17:42:02 24.1 C 7.44 g/m*3 24.1 C 0 km/h
1289 21-09-2010 17:54:02 23.5 C 7.61 g/m*3 23.5 C 0 km/h
1290 21-09-2010 18:06:02 23.2 C 7.69 g/m*3 23.2 C 0 km/h
1291 21-09-2010 18:18:02 22.7 C 7.88 g/m*3 22.7 C 0 km/h
1292 21-09-2010 18:30:02 22.2 C 7.85 g/m*3 22.2 C 0 km/h
1293 21-09-2010 18:42:02 21.7 C 8.01 g/m*3 21.7 C 0 km/h
1294 21-09-2010 18:54:02 21.1 C 7.92 g/m*3 21.1 C 0 km/h
1295 21-09-2010 19:06:01 20.2 C 8.04 g/m*3 20.2 C 0 km/h
1296 21-09-2010 19:18:02 19.5 C 8.22 g/m*3 19.5 C 0 km/h
1297 21-09-2010 19:30:02 18.5 C 8.39 g/m*3 18.5 C 0 km/h
1298 21-09-2010 19:42:02 17.8 C 8.5 g/m*3 17.8 C 0 km/h
1299 21-09-2010 19:54:02 17.2 C 8.49 g/m*3 17.2 C 0 km/h
1300 21-09-2010 20:06:03 16.8 C 8.58 g/m*3 16.8 C 0 km/h
Sensor: Nr:Datum:Temp:Abs-Feuchte:Windchill:Wind:
Aussen-T/F 1301 21-09-2010 20:18:02 16.5 C 8.43 g/m*3 16.5 C 0 km/h
1302 21-09-2010 20:30:02 16.3 C 8.46 g/m*3 16.3 C 0 km/h
1303 21-09-2010 20:42:02 16.1 C 8.5 g/m*3 16.1 C 0 km/h
1304 21-09-2010 20:54:02 15.8 C 8.62 g/m*3 15.8 C 0 km/h
1305 21-09-2010 21:06:02 15.6 C 8.51 g/m*3 15.6 C 0 km/h
1306 21-09-2010 21:18:01 15.4 C 8.41 g/m*3 15.4 C 0 km/h
1307 21-09-2010 21:30:01 15.1 C 8.51 g/m*3 15.1 C 0 km/h
1308 21-09-2010 21:42:02 14.7 C 8.56 g/m*3 14.7 C 0 km/h
1309 21-09-2010 21:54:02 14.5 C 8.46 g/m*3 14.5 C 0 km/h
1310 21-09-2010 22:06:02 14.4 C 8.53 g/m*3 14.4 C 0 km/h
1311 21-09-2010 22:18:01 14.1 C 8.5 g/m*3 14.1 C 0 km/h
1312 21-09-2010 22:30:01 13.9 C 8.51 g/m*3 13.9 C 0 km/h
1313 21-09-2010 22:42:01 13.6 C 8.47 g/m*3 13.6 C 0 km/h
1314 21-09-2010 22:54:01 13.5 C 8.54 g/m*3 13.5 C 0 km/h
1315 21-09-2010 23:06:01 13.2 C 8.38 g/m*3 13.2 C 0 km/h
1316 21-09-2010 23:18:01 13.1 C 8.44 g/m*3 13.1 C 0 km/h
1317 21-09-2010 23:30:01 13 C 8.51 g/m*3 13 C 0 km/h
1318 21-09-2010 23:42:01 12.9 C 8.68 g/m*3 12.9 C 0 km/h
1319 21-09-2010 23:54:01 12.7 C 8.68 g/m*3 12.7 C 0 km/h
1320 22-09-2010 00:06:01 12.5 C 8.69 g/m*3 12.5 C 0 km/h
1321 22-09-2010 00:18:01 12.3 C 8.58 g/m*3 12.3 C 0 km/h
1322 22-09-2010 00:30:01 12.2 C 8.52 g/m*3 12.2 C 0 km/h
1323 22-09-2010 00:42:01 12.1 C 8.47 g/m*3 12.1 C 0 km/h
1324 22-09-2010 00:54:01 11.9 C 8.47 g/m*3 11.9 C 0 km/h
1325 22-09-2010 01:06:02 11.8 C 8.53 g/m*3 11.8 C 0 km/h
Sensor: Nr:Datum:Temp:Abs-Feuchte:Windchill:Wind:
Aussen-T/F 1326 22-09-2010 01:18:02 11.6 C 8.42 g/m*3 11.6 C 0 km/h
1327 22-09-2010 01:30:02 11.5 C 8.47 g/m*3 11.5 C 0 km/h
1328 22-09-2010 01:42:02 11.3 C 8.26 g/m*3 11.3 C 0 km/h
1329 22-09-2010 01:54:02 11.3 C 8.36 g/m*3 11.3 C 0 km/h
1330 22-09-2010 02:06:02 11 C 8.21 g/m*3 11 C 0 km/h
1331 22-09-2010 02:18:02 10.9 C 8.16 g/m*3 10.9 C 0 km/h
1332 22-09-2010 02:30:02 10.8 C 8.2 g/m*3 10.8 C 0 km/h
1333 22-09-2010 02:42:02 10.7 C 8.15 g/m*3 10.7 C 0 km/h
1334 22-09-2010 02:54:02 10.5 C 8.05 g/m*3 10.5 C 0 km/h
1335 22-09-2010 03:06:02 10.4 C 8 g/m*3 10.4 C 0 km/h
1336 22-09-2010 03:18:02 10.4 C 8 g/m*3 10.4 C 0 km/h
1337 22-09-2010 03:30:02 10.3 C 8.04 g/m*3 10.3 C 0 km/h
1338 22-09-2010 03:42:02 10.1 C 7.94 g/m*3 10.1 C 0 km/h
1339 22-09-2010 03:54:02 9.9 C 8.03 g/m*3 9.9 C 0 km/h
1340 22-09-2010 04:06:02 9.9 C 8.03 g/m*3 9.9 C 0 km/h
1341 22-09-2010 04:18:02 9.7 C 7.93 g/m*3 9.7 C 0 km/h
1342 22-09-2010 04:30:02 9.6 C 7.79 g/m*3 9.6 C 0 km/h
1343 22-09-2010 04:42:02 9.6 C 7.88 g/m*3 9.6 C 0 km/h
1344 22-09-2010 04:54:02 9.8 C 8.07 g/m*3 9.8 C 0 km/h
1345 22-09-2010 05:06:02 9.8 C 8.07 g/m*3 9.8 C 0 km/h
1346 22-09-2010 05:18:02 9.9 C 8.22 g/m*3 9.9 C 0 km/h
1347 22-09-2010 05:30:03 9.9 C 8.22 g/m*3 9.9 C 0 km/h
1348 22-09-2010 05:42:03 9.9 C 8.22 g/m*3 9.9 C 0 km/h
1349 22-09-2010 05:54:03 9.7 C 8.02 g/m*3 9.7 C 0 km/h
1350 22-09-2010 06:06:03 9.8 C 8.16 g/m*3 9.8 C 0 km/h
Sensor: Nr:Datum:Temp:Abs-Feuchte:Windchill:Wind:
Aussen-T/F 1351 22-09-2010 06:18:03 9.8 C 8.16 g/m*3 9.8 C 0 km/h
1352 22-09-2010 06:30:03 9.8 C 8.16 g/m*3 9.8 C 0 km/h
1353 22-09-2010 06:42:03 9.7 C 8.11 g/m*3 9.7 C 0 km/h
1354 22-09-2010 06:54:03 9.8 C 8.16 g/m*3 9.8 C 0 km/h
1355 22-09-2010 07:06:01 9.8 C 8.16 g/m*3 9.8 C 0 km/h
1356 22-09-2010 07:18:02 9.8 C 8.16 g/m*3 9.8 C 0 km/h
1357 22-09-2010 07:30:02 9.6 C 8.06 g/m*3 9.6 C 0 km/h
1358 22-09-2010 07:42:01 9.3 C 7.91 g/m*3 9.3 C 0 km/h
1359 22-09-2010 07:54:01 9.3 C 7.91 g/m*3 9.3 C 0 km/h
1360 22-09-2010 08:06:01 9.3 C 7.91 g/m*3 9.3 C 0 km/h
1361 22-09-2010 08:18:02 9.3 C 7.91 g/m*3 9.3 C 0 km/h
1362 22-09-2010 08:30:02 9.6 C 8.15 g/m*3 9.6 C 0 km/h
1363 22-09-2010 08:42:01 9.3 C 7.91 g/m*3 9.3 C 0 km/h
1364 22-09-2010 08:54:02 9.3 C 7.91 g/m*3 9.3 C 0 km/h
1365 22-09-2010 09:06:01 9.6 C 8.06 g/m*3 9.6 C 0 km/h
1366 22-09-2010 09:18:02 9.8 C 8.16 g/m*3 9.8 C 0 km/h
1367 22-09-2010 09:30:02 10.2 C 8.09 g/m*3 10.2 C 0 km/h
1368 22-09-2010 09:42:01 10.3 C 8.04 g/m*3 10.3 C 0 km/h
1369 22-09-2010 09:54:02 11 C 8.41 g/m*3 11 C 0 km/h
1370 22-09-2010 10:06:01 11.8 C 8.63 g/m*3 11.8 C 0 km/h
1371 22-09-2010 10:18:01 12.4 C 8.74 g/m*3 12.4 C 0 km/h
1372 22-09-2010 10:30:01 12 C 8.31 g/m*3 12 C 0 km/h
1373 22-09-2010 10:42:02 12.7 C 8.79 g/m*3 12.7 C 0 km/h
1374 22-09-2010 10:54:01 13.2 C 8.73 g/m*3 13.2 C 0 km/h
1375 22-09-2010 11:06:02 12.9 C 8.68 g/m*3 12.9 C 0 km/h
Sensor: Nr:Datum:Temp:Abs-Feuchte:Windchill:Wind:
Aussen-T/F 1376 22-09-2010 11:18:01 13.1 C 8.9 g/m*3 13.1 C 0 km/h
1377 22-09-2010 11:30:01 13.6 C 9.3 g/m*3 13.6 C 0 km/h
1378 22-09-2010 11:42:02 14.2 C 9.52 g/m*3 14.2 C 0 km/h
1379 22-09-2010 11:54:01 15.1 C 9.55 g/m*3 15.1 C 0 km/h
1380 22-09-2010 12:06:02 15.6 C 9.71 g/m*3 15.6 C 0 km/h
1381 22-09-2010 12:18:01 16 C 9.67 g/m*3 16 C 0 km/h
1382 22-09-2010 12:30:01 16.5 C 9.97 g/m*3 16.5 C 0 km/h
1383 22-09-2010 12:42:01 17.1 C 10.19 g/m*3 17.1 C 0 km/h
1384 22-09-2010 12:54:01 17.5 C 10.29 g/m*3 17.5 C 0 km/h
1385 22-09-2010 13:06:01 18.4 C 9.91 g/m*3 18.4 C 0 km/h
1386 22-09-2010 13:18:02 19.1 C 9.84 g/m*3 19.1 C 0 km/h
1387 22-09-2010 13:30:02 19.7 C 10.19 g/m*3 19.7 C 0 km/h
1388 22-09-2010 13:42:01 20.4 C 10.26 g/m*3 20.4 C 0 km/h
1389 22-09-2010 13:54:01 21.2 C 10.19 g/m*3 21.2 C 0 km/h
1390 22-09-2010 14:06:01 21.8 C 10.36 g/m*3 21.8 C 0 km/h
1391 22-09-2010 14:18:02 22.2 C 10.01 g/m*3 22.2 C 0 km/h
1392 22-09-2010 14:30:02 22.9 C 10.22 g/m*3 22.9 C 0 km/h
1393 22-09-2010 14:42:01 23.4 C 9.88 g/m*3 23.4 C 0 km/h
1394 22-09-2010 14:54:02 24 C 9.79 g/m*3 24 C 0 km/h
1395 22-09-2010 15:06:01 24.2 C 9.9 g/m*3 24.2 C 0 km/h
1396 22-09-2010 15:18:01 24.1 C 9.63 g/m*3 24.1 C 0 km/h
1397 22-09-2010 15:30:01 24.9 C 9.61 g/m*3 24.9 C 0 km/h
1398 22-09-2010 15:42:01 25.6 C 8.81 g/m*3 25.6 C 0 km/h
1399 22-09-2010 15:54:01 26.5 C 8.26 g/m*3 26.5 C 0 km/h
1400 22-09-2010 16:06:01 26.9 C 8.7 g/m*3 26.9 C 0 km/h
Sensor: Nr:Datum:Temp:Abs-Feuchte:Windchill:Wind:
Aussen-T/F 1401 22-09-2010 16:18:01 27.1 C 8.8 g/m*3 27.1 C 0 km/h
1402 22-09-2010 16:30:01 27.4 C 8.68 g/m*3 27.4 C 0 km/h
1403 22-09-2010 16:42:02 27.6 C 8.51 g/m*3 27.6 C 0 km/h
1404 22-09-2010 16:54:01 27.6 C 8.25 g/m*3 27.6 C 0 km/h
1405 22-09-2010 17:06:02 27.3 C 7.85 g/m*3 27.3 C 0 km/h
1406 22-09-2010 17:18:01 27.4 C 8.16 g/m*3 27.4 C 0 km/h
1407 22-09-2010 17:30:01 27.2 C 8.07 g/m*3 27.2 C 0 km/h
1408 22-09-2010 17:42:01 26.9 C 7.93 g/m*3 26.9 C 0 km/h
1409 22-09-2010 17:54:01 26.5 C 8.76 g/m*3 26.5 C 0 km/h
1410 22-09-2010 18:06:02 26.1 C 8.81 g/m*3 26.1 C 0 km/h
1411 22-09-2010 18:18:01 25.6 C 9.05 g/m*3 25.6 C 0 km/h
1412 22-09-2010 18:30:01 25.3 C 9.36 g/m*3 25.3 C 0 km/h
1413 22-09-2010 18:42:01 24.1 C 8.97 g/m*3 24.1 C 0 km/h
1414 22-09-2010 18:54:01 23.3 C 9.2 g/m*3 23.3 C 0 km/h
1415 22-09-2010 19:06:01 22.5 C 9.19 g/m*3 22.5 C 0 km/h
1416 22-09-2010 19:18:02 21.8 C 9.4 g/m*3 21.8 C 0 km/h
1417 22-09-2010 19:30:02 20.6 C 9.31 g/m*3 20.6 C 0 km/h
1418 22-09-2010 19:42:01 20 C 8.99 g/m*3 20 C 0 km/h
1419 22-09-2010 19:54:01 19.5 C 9.06 g/m*3 19.5 C 0 km/h
1420 22-09-2010 20:06:01 19 C 9.13 g/m*3 19 C 0 km/h
1421 22-09-2010 20:18:02 18.7 C 9.13 g/m*3 18.7 C 0 km/h
1422 22-09-2010 20:30:02 18.5 C 9.02 g/m*3 18.5 C 0 km/h
1423 22-09-2010 20:42:01 18.4 C 9.12 g/m*3 18.4 C 0 km/h
1424 22-09-2010 20:54:02 18.1 C 9.12 g/m*3 18.1 C 0 km/h
1425 22-09-2010 21:06:01 17.9 C 9.31 g/m*3 17.9 C 0 km/h
Sensor: Nr:Datum:Temp:Abs-Feuchte:Windchill:Wind:
Aussen-T/F 1426 22-09-2010 21:18:01 17.6 C 9.45 g/m*3 17.6 C 0 km/h
1427 22-09-2010 21:30:01 17.5 C 9.24 g/m*3 17.5 C 0 km/h
1428 22-09-2010 21:42:01 17.3 C 9.28 g/m*3 17.3 C 0 km/h
1429 22-09-2010 21:54:01 17 C 9.26 g/m*3 17 C 0 km/h
1430 22-09-2010 22:08:02 16.8 C 9.29 g/m*3 16.8 C 0 km/h
1431 22-09-2010 22:20:02 16.4 C 9.35 g/m*3 16.4 C 0 km/h
1432 22-09-2010 22:32:02 16.1 C 9.32 g/m*3 16.1 C 0 km/h
1433 22-09-2010 22:44:02 15.9 C 9.21 g/m*3 15.9 C 0 km/h
1434 22-09-2010 22:56:02 15.7 C 9.1 g/m*3 15.7 C 0 km/h
1435 22-09-2010 23:08:02 15.4 C 8.8 g/m*3 15.4 C 0 km/h
1436 22-09-2010 23:20:02 15.1 C 8.77 g/m*3 15.1 C 0 km/h
1437 22-09-2010 23:32:02 14.9 C 8.79 g/m*3 14.9 C 0 km/h
1438 22-09-2010 23:44:02 14.7 C 8.81 g/m*3 14.7 C 0 km/h
1439 22-09-2010 23:56:02 14.5 C 8.71 g/m*3 14.5 C 0 km/h
1440 23-09-2010 00:08:02 14.4 C 8.53 g/m*3 14.4 C 0 km/h
1441 23-09-2010 00:20:02 14.2 C 8.67 g/m*3 14.2 C 0 km/h
1442 23-09-2010 00:32:02 14 C 8.56 g/m*3 14 C 0 km/h
1443 23-09-2010 00:44:02 13.8 C 8.7 g/m*3 13.8 C 0 km/h
1444 23-09-2010 00:56:02 13.7 C 8.76 g/m*3 13.7 C 0 km/h
1445 23-09-2010 01:08:02 13.5 C 8.77 g/m*3 13.5 C 0 km/h
1446 23-09-2010 01:20:02 13.4 C 8.72 g/m*3 13.4 C 0 km/h
1447 23-09-2010 01:32:02 13.2 C 8.73 g/m*3 13.2 C 0 km/h
1448 23-09-2010 01:44:02 13.1 C 8.67 g/m*3 13.1 C 0 km/h
1449 23-09-2010 01:56:03 12.9 C 8.68 g/m*3 12.9 C 0 km/h
1450 23-09-2010 02:08:03 12.8 C 8.74 g/m*3 12.8 C 0 km/h
Sensor: Nr:Datum:Temp:Abs-Feuchte:Windchill:Wind:
Aussen-T/F 1451 23-09-2010 02:20:03 12.6 C 8.74 g/m*3 12.6 C 0 km/h
1452 23-09-2010 02:32:03 12.4 C 8.74 g/m*3 12.4 C 0 km/h
1453 23-09-2010 02:44:03 12.3 C 8.69 g/m*3 12.3 C 0 km/h
1454 23-09-2010 02:56:03 12.1 C 8.58 g/m*3 12.1 C 0 km/h
1455 23-09-2010 03:08:03 12 C 8.53 g/m*3 12 C 0 km/h
1456 23-09-2010 03:20:03 11.8 C 8.53 g/m*3 11.8 C 0 km/h
1457 23-09-2010 03:32:03 11.8 C 8.53 g/m*3 11.8 C 0 km/h
1458 23-09-2010 03:44:03 11.8 C 8.63 g/m*3 11.8 C 0 km/h
1459 23-09-2010 03:56:03 11.6 C 8.63 g/m*3 11.6 C 0 km/h
1460 23-09-2010 04:08:03 11.4 C 8.52 g/m*3 11.4 C 0 km/h
1461 23-09-2010 04:20:03 11.2 C 8.41 g/m*3 11.2 C 0 km/h
1462 23-09-2010 04:32:03 11.2 C 8.41 g/m*3 11.2 C 0 km/h
1463 23-09-2010 04:44:03 11 C 8.31 g/m*3 11 C 0 km/h
1464 23-09-2010 04:56:03 11 C 8.31 g/m*3 11 C 0 km/h
1465 23-09-2010 05:08:03 10.9 C 8.36 g/m*3 10.9 C 0 km/h
1466 23-09-2010 05:20:03 10.7 C 8.25 g/m*3 10.7 C 0 km/h
1467 23-09-2010 05:32:03 10.6 C 8.2 g/m*3 10.6 C 0 km/h
1468 23-09-2010 05:44:03 10.5 C 8.15 g/m*3 10.5 C 0 km/h
1469 23-09-2010 05:56:03 10.5 C 8.15 g/m*3 10.5 C 0 km/h
1470 23-09-2010 06:08:03 10.4 C 8.1 g/m*3 10.4 C 0 km/h
1471 23-09-2010 06:20:04 10.5 C 8.24 g/m*3 10.5 C 0 km/h
1472 23-09-2010 06:32:04 10.6 C 8.3 g/m*3 10.6 C 0 km/h
1473 23-09-2010 06:44:04 10.4 C 8.19 g/m*3 10.4 C 0 km/h
1474 23-09-2010 06:56:04 10.4 C 8.19 g/m*3 10.4 C 0 km/h
1475 23-09-2010 07:08:02 10.5 C 8.24 g/m*3 10.5 C 0 km/h
Sensor: Nr:Datum:Temp:Abs-Feuchte:Windchill:Wind:
Aussen-T/F 1476 23-09-2010 07:20:01 10.4 C 8.19 g/m*3 10.4 C 0 km/h
1477 23-09-2010 07:32:02 10.5 C 8.24 g/m*3 10.5 C 0 km/h
1478 23-09-2010 07:44:02 10.6 C 8.3 g/m*3 10.6 C 0 km/h
1479 23-09-2010 07:56:02 10.6 C 8.3 g/m*3 10.6 C 0 km/h
1480 23-09-2010 08:08:02 10.6 C 8.3 g/m*3 10.6 C 0 km/h
1481 23-09-2010 08:20:01 10.7 C 8.35 g/m*3 10.7 C 0 km/h
1482 23-09-2010 08:32:02 10.8 C 8.4 g/m*3 10.8 C 0 km/h
1483 23-09-2010 08:44:02 11 C 8.51 g/m*3 11 C 0 km/h
1484 23-09-2010 08:56:02 11.3 C 8.57 g/m*3 11.3 C 0 km/h
1485 23-09-2010 09:08:01 11.4 C 8.52 g/m*3 11.4 C 0 km/h
1486 23-09-2010 09:20:01 11.4 C 8.52 g/m*3 11.4 C 0 km/h
1487 23-09-2010 09:32:02 11.4 C 8.52 g/m*3 11.4 C 0 km/h
1488 23-09-2010 09:44:02 11.7 C 8.79 g/m*3 11.7 C 0 km/h
1489 23-09-2010 09:56:02 12.3 C 8.9 g/m*3 12.3 C 0 km/h
1490 23-09-2010 10:08:02 12.4 C 8.96 g/m*3 12.4 C 0 km/h
1491 23-09-2010 10:20:02 12.5 C 9.02 g/m*3 12.5 C 0 km/h
1492 23-09-2010 10:32:02 12.9 C 9.24 g/m*3 12.9 C 0 km/h
1493 23-09-2010 10:44:02 13.3 C 9.36 g/m*3 13.3 C 0 km/h
1494 23-09-2010 10:56:02 13.8 C 9.65 g/m*3 13.8 C 0 km/h
1495 23-09-2010 11:08:02 14.1 C 9.71 g/m*3 14.1 C 0 km/h
1496 23-09-2010 11:20:02 15 C 10 g/m*3 15 C 0 km/h
1497 23-09-2010 11:32:02 15.8 C 10.23 g/m*3 15.8 C 0 km/h
1498 23-09-2010 11:44:02 16.3 C 10.13 g/m*3 16.3 C 0 km/h
1499 23-09-2010 11:56:02 17 C 10.27 g/m*3 17 C 0 km/h
1500 23-09-2010 12:08:02 17.5 C 10.44 g/m*3 17.5 C 0 km/h
Sensor: Nr:Datum:Temp:Abs-Feuchte:Windchill:Wind:
Aussen-T/F 1501 23-09-2010 12:20:02 18 C 10.44 g/m*3 18 C 0 km/h
1502 23-09-2010 12:32:02 18.7 C 10.73 g/m*3 18.7 C 0 km/h
1503 23-09-2010 12:44:02 19.2 C 10.55 g/m*3 19.2 C 0 km/h
1504 23-09-2010 12:56:02 19.9 C 10.82 g/m*3 19.9 C 0 km/h
1505 23-09-2010 13:08:02 20.5 C 11.03 g/m*3 20.5 C 0 km/h
1506 23-09-2010 13:20:02 21.4 C 11.06 g/m*3 21.4 C 0 km/h
1507 23-09-2010 13:32:01 22.3 C 11.26 g/m*3 22.3 C 0 km/h
1508 23-09-2010 13:44:01 23.3 C 10.66 g/m*3 23.3 C 0 km/h
1509 23-09-2010 13:56:02 24 C 9.14 g/m*3 24 C 0 km/h
1510 23-09-2010 14:08:01 24.5 C 9.62 g/m*3 24.5 C 0 km/h
1511 23-09-2010 14:20:02 23.8 C 10.11 g/m*3 23.8 C 0 km/h
1512 23-09-2010 14:32:02 23.7 C 10.48 g/m*3 23.7 C 0 km/h
1513 23-09-2010 14:44:02 23.8 C 10.54 g/m*3 23.8 C 0 km/h
1514 23-09-2010 14:56:02 24.5 C 10.3 g/m*3 24.5 C 0 km/h
1515 23-09-2010 15:08:02 25.2 C 8.85 g/m*3 25.2 C 0 km/h
1516 23-09-2010 15:20:02 25.2 C 9.78 g/m*3 25.2 C 0 km/h
1517 23-09-2010 15:32:02 24.8 C 9.33 g/m*3 24.8 C 0 km/h
1518 23-09-2010 15:44:03 25.1 C 9.26 g/m*3 25.1 C 0 km/h
1519 23-09-2010 15:56:01 24.9 C 9.61 g/m*3 24.9 C 0 km/h
1520 23-09-2010 16:08:02 25.1 C 10.19 g/m*3 25.1 C 0 km/h
1521 23-09-2010 16:20:01 26 C 9.74 g/m*3 26 C 0 km/h
1522 23-09-2010 16:32:01 25.6 C 9.05 g/m*3 25.6 C 0 km/h
1523 23-09-2010 16:44:01 24.9 C 10.07 g/m*3 24.9 C 0 km/h
1524 23-09-2010 16:56:01 24.1 C 10.28 g/m*3 24.1 C 0 km/h
1525 23-09-2010 17:08:01 23.7 C 10.91 g/m*3 23.7 C 0 km/h
Sensor: Nr:Datum:Temp:Abs-Feuchte:Windchill:Wind:
Aussen-T/F 1526 23-09-2010 17:20:02 23.4 C 10.72 g/m*3 23.4 C 0 km/h
1527 23-09-2010 17:32:01 23.2 C 10.81 g/m*3 23.2 C 0 km/h
1528 23-09-2010 17:44:01 23.3 C 10.45 g/m*3 23.3 C 0 km/h
1529 23-09-2010 17:56:02 23.8 C 10.76 g/m*3 23.8 C 0 km/h
1530 23-09-2010 18:08:01 23.3 C 10.45 g/m*3 23.3 C 0 km/h
1531 23-09-2010 18:20:02 22.6 C 10.25 g/m*3 22.6 C 0 km/h
1532 23-09-2010 18:32:01 21.7 C 10.68 g/m*3 21.7 C 0 km/h
1533 23-09-2010 18:44:01 21.6 C 10.81 g/m*3 21.6 C 0 km/h
1534 23-09-2010 18:56:02 21.4 C 10.87 g/m*3 21.4 C 0 km/h
1535 23-09-2010 19:08:02 20.9 C 10.93 g/m*3 20.9 C 0 km/h
1536 23-09-2010 19:20:02 20.4 C 10.97 g/m*3 20.4 C 0 km/h
1537 23-09-2010 19:32:02 19.8 C 11.1 g/m*3 19.8 C 0 km/h
1538 23-09-2010 19:44:02 19.4 C 11.18 g/m*3 19.4 C 0 km/h
1539 23-09-2010 19:56:02 19 C 11.08 g/m*3 19 C 0 km/h
1540 23-09-2010 20:08:01 18.8 C 11.43 g/m*3 18.8 C 0 km/h
1541 23-09-2010 20:20:02 18.6 C 11.3 g/m*3 18.6 C 0 km/h
1542 23-09-2010 20:32:02 18.6 C 11.3 g/m*3 18.6 C 0 km/h
1543 23-09-2010 20:44:02 18.4 C 11.32 g/m*3 18.4 C 0 km/h
1544 23-09-2010 20:56:02 18.1 C 11.12 g/m*3 18.1 C 0 km/h
1545 23-09-2010 21:08:02 18.4 C 11.48 g/m*3 18.4 C 0 km/h
1546 23-09-2010 21:20:01 18.3 C 11.41 g/m*3 18.3 C 0 km/h
1547 23-09-2010 21:32:02 18.4 C 11.64 g/m*3 18.4 C 0 km/h
1548 23-09-2010 21:44:02 18.7 C 11.53 g/m*3 18.7 C 0 km/h
1549 23-09-2010 21:57:02 18.7 C 11.37 g/m*3 18.7 C 0 km/h
1550 23-09-2010 22:09:02 18.5 C 11.23 g/m*3 18.5 C 0 km/h
Sensor: Nr:Datum:Temp:Abs-Feuchte:Windchill:Wind:
Aussen-T/F 1551 23-09-2010 22:21:02 18.5 C 11.39 g/m*3 18.5 C 0 km/h
1552 23-09-2010 22:33:02 17.9 C 11.6 g/m*3 17.9 C 0 km/h
1553 23-09-2010 22:45:02 17.7 C 12.52 g/m*3 17.7 C 0 km/h
1554 23-09-2010 22:57:02 17.1 C 12.23 g/m*3 17.1 C 0 km/h
1555 23-09-2010 23:09:02 16.9 C 12.37 g/m*3 16.9 C 0 km/h
1556 23-09-2010 23:21:02 16.5 C 12.22 g/m*3 16.5 C 0 km/h
1557 23-09-2010 23:33:02 16.4 C 12.28 g/m*3 16.4 C 0 km/h
1558 23-09-2010 23:45:02 16.2 C 12.14 g/m*3 16.2 C 0 km/h
1559 23-09-2010 23:57:02 16.2 C 12.27 g/m*3 16.2 C 0 km/h
1560 24-09-2010 00:09:02 16 C 12.13 g/m*3 16 C 0 km/h
1561 24-09-2010 00:21:02 15.9 C 12.32 g/m*3 15.9 C 0 km/h
1562 24-09-2010 00:33:02 15.6 C 12.1 g/m*3 15.6 C 0 km/h
1563 24-09-2010 00:45:02 15.5 C 12.16 g/m*3 15.5 C 0 km/h
1564 24-09-2010 00:57:02 15.5 C 12.16 g/m*3 15.5 C 0 km/h
1565 24-09-2010 01:09:02 15.5 C 12.16 g/m*3 15.5 C 0 km/h
1566 24-09-2010 01:21:02 15.5 C 12.29 g/m*3 15.5 C 0 km/h
1567 24-09-2010 01:33:02 15.6 C 12.37 g/m*3 15.6 C 0 km/h
1568 24-09-2010 01:45:02 15.6 C 12.37 g/m*3 15.6 C 0 km/h
1569 24-09-2010 01:57:03 15.5 C 12.29 g/m*3 15.5 C 0 km/h
1570 24-09-2010 02:09:03 15.5 C 12.29 g/m*3 15.5 C 0 km/h
1571 24-09-2010 02:21:03 15.5 C 12.29 g/m*3 15.5 C 0 km/h
1572 24-09-2010 02:33:03 15.4 C 12.22 g/m*3 15.4 C 0 km/h
1573 24-09-2010 02:45:03 15.3 C 12.01 g/m*3 15.3 C 0 km/h
1574 24-09-2010 02:57:03 15.2 C 11.94 g/m*3 15.2 C 0 km/h
1575 24-09-2010 03:09:03 15.1 C 11.87 g/m*3 15.1 C 0 km/h
Sensor: Nr:Datum:Temp:Abs-Feuchte:Windchill:Wind:
Aussen-T/F 1576 24-09-2010 03:21:03 14.9 C 11.85 g/m*3 14.9 C 0 km/h
1577 24-09-2010 03:33:03 14.9 C 11.85 g/m*3 14.9 C 0 km/h
1578 24-09-2010 03:45:03 14.9 C 11.98 g/m*3 14.9 C 0 km/h
1579 24-09-2010 03:57:03 14.9 C 11.98 g/m*3 14.9 C 0 km/h
1580 24-09-2010 04:09:03 14.8 C 11.91 g/m*3 14.8 C 0 km/h
1581 24-09-2010 04:21:03 14.8 C 11.91 g/m*3 14.8 C 0 km/h
1582 24-09-2010 04:33:03 14.8 C 11.91 g/m*3 14.8 C 0 km/h
1583 24-09-2010 04:45:03 14.8 C 11.91 g/m*3 14.8 C 0 km/h
1584 24-09-2010 04:57:03 14.7 C 11.83 g/m*3 14.7 C 0 km/h
1585 24-09-2010 05:09:03 14.5 C 11.69 g/m*3 14.5 C 0 km/h
1586 24-09-2010 05:21:03 14.5 C 11.69 g/m*3 14.5 C 0 km/h
1587 24-09-2010 05:33:03 14.5 C 11.69 g/m*3 14.5 C 0 km/h
1588 24-09-2010 05:45:03 14.6 C 11.76 g/m*3 14.6 C 0 km/h
1589 24-09-2010 05:57:03 14.6 C 11.76 g/m*3 14.6 C 0 km/h
1590 24-09-2010 06:09:03 14.7 C 11.83 g/m*3 14.7 C 0 km/h
1591 24-09-2010 06:21:04 14.7 C 11.83 g/m*3 14.7 C 0 km/h
1592 24-09-2010 06:33:04 14.7 C 11.83 g/m*3 14.7 C 0 km/h
1593 24-09-2010 06:45:04 14.7 C 11.83 g/m*3 14.7 C 0 km/h
1594 24-09-2010 06:57:04 14.7 C 11.83 g/m*3 14.7 C 0 km/h
1595 24-09-2010 07:09:04 14.5 C 11.69 g/m*3 14.5 C 0 km/h
1596 24-09-2010 07:21:04 14.4 C 11.62 g/m*3 14.4 C 0 km/h
1597 24-09-2010 07:33:02 14.3 C 11.55 g/m*3 14.3 C 0 km/h
1598 24-09-2010 07:45:02 14.4 C 11.62 g/m*3 14.4 C 0 km/h
1599 24-09-2010 07:57:02 14.4 C 11.62 g/m*3 14.4 C 0 km/h
1600 24-09-2010 08:09:02 14.4 C 11.62 g/m*3 14.4 C 0 km/h
Sensor: Nr:Datum:Temp:Abs-Feuchte:Windchill:Wind:
Aussen-T/F 1601 24-09-2010 08:21:01 14.3 C 11.55 g/m*3 14.3 C 0 km/h
1602 24-09-2010 08:33:02 14.6 C 11.89 g/m*3 14.6 C 0 km/h
1603 24-09-2010 08:45:02 14.8 C 12.03 g/m*3 14.8 C 0 km/h
1604 24-09-2010 08:57:02 14.8 C 12.03 g/m*3 14.8 C 0 km/h
1605 24-09-2010 09:09:01 14.8 C 12.03 g/m*3 14.8 C 0 km/h
1606 24-09-2010 09:21:02 14.8 C 12.03 g/m*3 14.8 C 0 km/h
1607 24-09-2010 09:33:01 14.9 C 12.11 g/m*3 14.9 C 0 km/h
1608 24-09-2010 09:45:02 14.9 C 12.11 g/m*3 14.9 C 0 km/h
1609 24-09-2010 09:57:02 15 C 12.05 g/m*3 15 C 0 km/h
1610 24-09-2010 10:09:02 15 C 12.05 g/m*3 15 C 0 km/h
1611 24-09-2010 10:21:02 14.9 C 12.11 g/m*3 14.9 C 0 km/h
1612 24-09-2010 10:33:02 15 C 12.05 g/m*3 15 C 0 km/h
1613 24-09-2010 10:45:01 15 C 12.05 g/m*3 15 C 0 km/h
1614 24-09-2010 10:57:01 15 C 12.05 g/m*3 15 C 0 km/h
1615 24-09-2010 11:09:02 15.1 C 12.13 g/m*3 15.1 C 0 km/h
1616 24-09-2010 11:21:01 15.1 C 12.13 g/m*3 15.1 C 0 km/h
1617 24-09-2010 11:33:01 15.4 C 12.35 g/m*3 15.4 C 0 km/h
1618 24-09-2010 11:45:02 15.4 C 12.35 g/m*3 15.4 C 0 km/h
1619 24-09-2010 11:57:02 15.1 C 12.13 g/m*3 15.1 C 0 km/h
1620 24-09-2010 12:09:02 15.1 C 12.13 g/m*3 15.1 C 0 km/h
1621 24-09-2010 12:21:02 15.1 C 12.13 g/m*3 15.1 C 0 km/h
1622 24-09-2010 12:33:03 15.4 C 12.48 g/m*3 15.4 C 0 km/h
1623 24-09-2010 12:45:02 15.1 C 12.13 g/m*3 15.1 C 0 km/h
1624 24-09-2010 12:57:03 15 C 12.05 g/m*3 15 C 0 km/h
1625 24-09-2010 13:09:02 14.8 C 11.91 g/m*3 14.8 C 0 km/h
Sensor: Nr:Datum:Temp:Abs-Feuchte:Windchill:Wind:
Aussen-T/F 1626 24-09-2010 13:21:02 14.6 C 11.76 g/m*3 14.6 C 0 km/h
1627 24-09-2010 13:33:02 14.5 C 11.69 g/m*3 14.5 C 0 km/h
1628 24-09-2010 13:45:02 14.5 C 11.69 g/m*3 14.5 C 0 km/h
1629 24-09-2010 13:57:02 14.4 C 11.62 g/m*3 14.4 C 0 km/h
1630 24-09-2010 14:09:03 14.1 C 11.41 g/m*3 14.1 C 0 km/h
1631 24-09-2010 14:21:02 13.8 C 11.2 g/m*3 13.8 C 0 km/h
1632 24-09-2010 14:33:03 13.5 C 10.99 g/m*3 13.5 C 0 km/h
1633 24-09-2010 14:45:02 13.2 C 10.79 g/m*3 13.2 C 0 km/h
1634 24-09-2010 14:57:02 13.1 C 10.73 g/m*3 13.1 C 0 km/h
1635 24-09-2010 15:09:02 12.9 C 10.71 g/m*3 12.9 C 0 km/h
1636 24-09-2010 15:21:03 13.1 C 10.73 g/m*3 13.1 C 0 km/h
1637 24-09-2010 15:33:02 13 C 10.77 g/m*3 13 C 0 km/h
1638 24-09-2010 15:45:03 13.2 C 10.91 g/m*3 13.2 C 0 km/h
1639 24-09-2010 15:57:03 13.2 C 10.91 g/m*3 13.2 C 0 km/h
1640 24-09-2010 16:09:02 13.3 C 10.98 g/m*3 13.3 C 0 km/h
1641 24-09-2010 16:21:02 13.7 C 11.25 g/m*3 13.7 C 0 km/h
1642 24-09-2010 16:33:02 14 C 11.46 g/m*3 14 C 0 km/h
1643 24-09-2010 16:45:02 14.1 C 11.53 g/m*3 14.1 C 0 km/h
1644 24-09-2010 16:57:02 13.9 C 11.39 g/m*3 13.9 C 0 km/h
1645 24-09-2010 17:09:02 13.9 C 11.39 g/m*3 13.9 C 0 km/h
1646 24-09-2010 17:21:02 13.9 C 11.39 g/m*3 13.9 C 0 km/h
1647 24-09-2010 17:33:02 13.4 C 10.93 g/m*3 13.4 C 0 km/h
1648 24-09-2010 17:45:02 13.2 C 10.79 g/m*3 13.2 C 0 km/h
1649 24-09-2010 17:57:02 13 C 10.66 g/m*3 13 C 0 km/h
1650 24-09-2010 18:09:01 13.2 C 10.79 g/m*3 13.2 C 0 km/h
Sensor: Nr:Datum:Temp:Abs-Feuchte:Windchill:Wind:
Aussen-T/F 1651 24-09-2010 18:21:01 13.3 C 10.86 g/m*3 13.3 C 0 km/h
1652 24-09-2010 18:33:02 13.3 C 10.86 g/m*3 13.3 C 0 km/h
1653 24-09-2010 18:45:02 13.3 C 10.86 g/m*3 13.3 C 0 km/h
1654 24-09-2010 18:57:02 13.2 C 10.79 g/m*3 13.2 C 0 km/h
1655 24-09-2010 19:09:02 13.1 C 10.73 g/m*3 13.1 C 0 km/h
1656 24-09-2010 19:21:01 12.9 C 10.71 g/m*3 12.9 C 0 km/h
1657 24-09-2010 19:33:02 12.8 C 10.64 g/m*3 12.8 C 0 km/h
1658 24-09-2010 19:45:02 12.7 C 10.58 g/m*3 12.7 C 0 km/h
1659 24-09-2010 19:57:02 12.7 C 10.58 g/m*3 12.7 C 0 km/h
1660 24-09-2010 20:09:02 12.7 C 10.58 g/m*3 12.7 C 0 km/h
1661 24-09-2010 20:21:01 12.7 C 10.58 g/m*3 12.7 C 0 km/h
1662 24-09-2010 20:33:02 12.7 C 10.58 g/m*3 12.7 C 0 km/h
1663 24-09-2010 20:45:01 12.7 C 10.58 g/m*3 12.7 C 0 km/h
1664 24-09-2010 20:57:01 12.7 C 10.58 g/m*3 12.7 C 0 km/h
1665 24-09-2010 21:09:02 12.8 C 10.64 g/m*3 12.8 C 0 km/h
1666 24-09-2010 21:21:02 12.8 C 10.64 g/m*3 12.8 C 0 km/h
1667 24-09-2010 21:33:02 12.9 C 10.71 g/m*3 12.9 C 0 km/h
1668 24-09-2010 21:45:02 12.8 C 10.64 g/m*3 12.8 C 0 km/h
1669 24-09-2010 21:57:02 12.8 C 10.64 g/m*3 12.8 C 0 km/h
1670 24-09-2010 22:09:01 12.8 C 10.64 g/m*3 12.8 C 0 km/h
1671 24-09-2010 22:21:02 12.8 C 10.64 g/m*3 12.8 C 0 km/h
1672 24-09-2010 22:33:02 12.7 C 10.58 g/m*3 12.7 C 0 km/h
1673 24-09-2010 22:46:04 12.6 C 10.51 g/m*3 12.6 C 0 km/h
1674 24-09-2010 22:58:04 12.6 C 10.51 g/m*3 12.6 C 0 km/h
1675 24-09-2010 23:10:04 12.5 C 10.44 g/m*3 12.5 C 0 km/h
Sensor: Nr:Datum:Temp:Abs-Feuchte:Windchill:Wind:
Aussen-T/F 1676 24-09-2010 23:22:04 12.4 C 10.38 g/m*3 12.4 C 0 km/h
1677 24-09-2010 23:34:04 12.4 C 10.38 g/m*3 12.4 C 0 km/h
1678 24-09-2010 23:46:04 12.3 C 10.32 g/m*3 12.3 C 0 km/h
1679 24-09-2010 23:58:04 12.4 C 10.38 g/m*3 12.4 C 0 km/h
1680 25-09-2010 00:10:04 12.4 C 10.38 g/m*3 12.4 C 0 km/h
1681 25-09-2010 00:22:04 12.5 C 10.44 g/m*3 12.5 C 0 km/h
1682 25-09-2010 00:34:04 12.5 C 10.44 g/m*3 12.5 C 0 km/h
1683 25-09-2010 00:46:04 12.5 C 10.44 g/m*3 12.5 C 0 km/h
1684 25-09-2010 00:58:05 12.5 C 10.44 g/m*3 12.5 C 0 km/h
1685 25-09-2010 01:10:05 12.5 C 10.44 g/m*3 12.5 C 0 km/h
1686 25-09-2010 01:22:05 12.5 C 10.44 g/m*3 12.5 C 0 km/h
1687 25-09-2010 01:34:05 12.5 C 10.44 g/m*3 12.5 C 0 km/h
1688 25-09-2010 01:46:05 12.5 C 10.44 g/m*3 12.5 C 0 km/h
1689 25-09-2010 01:58:05 12.6 C 10.51 g/m*3 12.6 C 0 km/h
1690 25-09-2010 02:10:05 12.6 C 10.51 g/m*3 12.6 C 0 km/h
1691 25-09-2010 02:22:05 12.6 C 10.51 g/m*3 12.6 C 0 km/h
1692 25-09-2010 02:34:05 12.6 C 10.51 g/m*3 12.6 C 0 km/h
1693 25-09-2010 02:46:05 12.6 C 10.51 g/m*3 12.6 C 0 km/h
1694 25-09-2010 02:58:05 12.6 C 10.51 g/m*3 12.6 C 0 km/h
1695 25-09-2010 03:10:05 12.7 C 10.58 g/m*3 12.7 C 0 km/h
1696 25-09-2010 03:22:05 12.6 C 10.51 g/m*3 12.6 C 0 km/h
1697 25-09-2010 03:34:05 12.6 C 10.51 g/m*3 12.6 C 0 km/h
1698 25-09-2010 03:46:05 12.6 C 10.51 g/m*3 12.6 C 0 km/h
1699 25-09-2010 03:58:05 12.6 C 10.51 g/m*3 12.6 C 0 km/h
1700 25-09-2010 04:10:05 12.6 C 10.51 g/m*3 12.6 C 0 km/h
Sensor: Nr:Datum:Temp:Abs-Feuchte:Windchill:Wind:
Aussen-T/F 1701 25-09-2010 04:22:05 12.5 C 10.44 g/m*3 12.5 C 0 km/h
1702 25-09-2010 04:34:05 12.6 C 10.51 g/m*3 12.6 C 0 km/h
1703 25-09-2010 04:46:05 12.5 C 10.44 g/m*3 12.5 C 0 km/h
1704 25-09-2010 04:58:06 12.5 C 10.44 g/m*3 12.5 C 0 km/h
1705 25-09-2010 05:10:06 12.5 C 10.44 g/m*3 12.5 C 0 km/h
1706 25-09-2010 05:22:06 12.4 C 10.38 g/m*3 12.4 C 0 km/h
1707 25-09-2010 05:34:06 12.4 C 10.38 g/m*3 12.4 C 0 km/h
1708 25-09-2010 05:46:06 12.3 C 10.32 g/m*3 12.3 C 0 km/h
1709 25-09-2010 05:58:06 12.3 C 10.21 g/m*3 12.3 C 0 km/h
1710 25-09-2010 06:10:06 12.1 C 10.08 g/m*3 12.1 C 0 km/h
1711 25-09-2010 06:22:06 12.1 C 10.08 g/m*3 12.1 C 0 km/h
1712 25-09-2010 06:34:06 12.1 C 10.08 g/m*3 12.1 C 0 km/h
1713 25-09-2010 06:46:06 12 C 10.02 g/m*3 12 C 0 km/h
1714 25-09-2010 06:58:06 12 C 10.02 g/m*3 12 C 0 km/h
1715 25-09-2010 07:10:06 12 C 10.02 g/m*3 12 C 0 km/h
1716 25-09-2010 07:22:06 11.9 C 9.96 g/m*3 11.9 C 0 km/h
1717 25-09-2010 07:34:06 11.9 C 9.96 g/m*3 11.9 C 0 km/h
1718 25-09-2010 07:46:02 11.8 C 9.89 g/m*3 11.8 C 0 km/h
1719 25-09-2010 07:58:02 11.8 C 9.89 g/m*3 11.8 C 0 km/h
1720 25-09-2010 08:10:02 11.7 C 9.83 g/m*3 11.7 C 0 km/h
1721 25-09-2010 08:22:02 11.6 C 9.77 g/m*3 11.6 C 0 km/h
1722 25-09-2010 08:34:02 11.2 C 9.43 g/m*3 11.2 C 0 km/h
1723 25-09-2010 08:46:02 11 C 9.31 g/m*3 11 C 0 km/h
1724 25-09-2010 08:58:02 10.8 C 9.19 g/m*3 10.8 C 0 km/h
1725 25-09-2010 09:10:01 10.6 C 9.08 g/m*3 10.6 C 0 km/h
Sensor: Nr:Datum:Temp:Abs-Feuchte:Windchill:Wind:
Aussen-T/F 1726 25-09-2010 09:22:02 10.4 C 8.96 g/m*3 10.4 C 0 km/h
1727 25-09-2010 09:34:02 10.5 C 8.92 g/m*3 10.5 C 0 km/h
1728 25-09-2010 09:46:02 10.5 C 8.83 g/m*3 10.5 C 0 km/h
1729 25-09-2010 09:58:02 10.4 C 8.29 g/m*3 10.4 C 0 km/h
1730 25-09-2010 10:10:03 10.5 C 8.15 g/m*3 10.5 C 0 km/h
1731 25-09-2010 10:22:02 10.8 C 8.2 g/m*3 10.8 C 0 km/h
1732 25-09-2010 10:34:02 11.1 C 8.36 g/m*3 11.1 C 0 km/h
1733 25-09-2010 10:46:01 11.3 C 8.36 g/m*3 11.3 C 0 km/h
1734 25-09-2010 10:58:01 11.5 C 8.16 g/m*3 11.5 C 0 km/h
1735 25-09-2010 11:10:02 11.6 C 7.8 g/m*3 11.6 C 0 km/h
1736 25-09-2010 11:22:01 12.1 C 7.72 g/m*3 12.1 C 0 km/h
1737 25-09-2010 11:34:02 12.3 C 7.38 g/m*3 12.3 C 0 km/h
1738 25-09-2010 11:46:01 12.5 C 7.26 g/m*3 12.5 C 0 km/h
1739 25-09-2010 11:58:01 13 C 7.03 g/m*3 13 C 0 km/h
1740 25-09-2010 12:10:02 12.8 C 6.83 g/m*3 12.8 C 0 km/h
1741 25-09-2010 12:22:01 12.8 C 7.06 g/m*3 12.8 C 0 km/h
1742 25-09-2010 12:34:02 12.4 C 6.88 g/m*3 12.4 C 0 km/h
1743 25-09-2010 12:46:02 11.8 C 6.84 g/m*3 11.8 C 0 km/h
1744 25-09-2010 12:58:02 12.4 C 6.88 g/m*3 12.4 C 0 km/h
1745 25-09-2010 13:10:02 12.7 C 6.68 g/m*3 12.7 C 0 km/h
1746 25-09-2010 13:22:01 13 C 6.35 g/m*3 13 C 0 km/h
1747 25-09-2010 13:34:02 13.8 C 6.43 g/m*3 13.8 C 0 km/h
1748 25-09-2010 13:46:01 13.5 C 5.38 g/m*3 13.5 C 0 km/h
1749 25-09-2010 13:58:01 13.3 C 5.31 g/m*3 13.3 C 0 km/h
1750 25-09-2010 14:10:02 13.7 C 5.45 g/m*3 13.7 C 0 km/h
Sensor: Nr:Datum:Temp:Abs-Feuchte:Windchill:Wind:
Aussen-T/F 1751 25-09-2010 14:22:01 13.5 C 5.5 g/m*3 13.5 C 0 km/h
1752 25-09-2010 14:34:02 13.8 C 5.36 g/m*3 13.8 C 0 km/h
1753 25-09-2010 14:46:01 14.4 C 5.32 g/m*3 14.4 C 0 km/h
1754 25-09-2010 14:58:01 15.8 C 5.12 g/m*3 15.8 C 0 km/h
1755 25-09-2010 15:10:02 14.8 C 4.43 g/m*3 14.8 C 0 km/h
1756 25-09-2010 15:22:02 14.5 C 4.6 g/m*3 14.5 C 0 km/h
1757 25-09-2010 15:34:01 15.7 C 4.68 g/m*3 15.7 C 0 km/h
1758 25-09-2010 15:46:02 15.5 C 4.63 g/m*3 15.5 C 0 km/h
1759 25-09-2010 15:58:02 14.7 C 5.04 g/m*3 14.7 C 0 km/h
1760 25-09-2010 16:10:01 14.2 C 4.88 g/m*3 14.2 C 0 km/h
1761 25-09-2010 16:22:02 14.4 C 5.07 g/m*3 14.4 C 0 km/h
1762 25-09-2010 16:34:01 14.7 C 5.16 g/m*3 14.7 C 0 km/h
1763 25-09-2010 16:46:02 15.6 C 4.79 g/m*3 15.6 C 0 km/h
1764 25-09-2010 16:58:02 14.7 C 4.91 g/m*3 14.7 C 0 km/h
1765 25-09-2010 17:10:02 14.3 C 4.91 g/m*3 14.3 C 0 km/h
1766 25-09-2010 17:22:02 14.8 C 5.32 g/m*3 14.8 C 0 km/h
1767 25-09-2010 17:34:03 15.6 C 5.19 g/m*3 15.6 C 0 km/h
1768 25-09-2010 17:46:02 16.8 C 5.15 g/m*3 16.8 C 0 km/h
1769 25-09-2010 17:58:02 16.5 C 4.77 g/m*3 16.5 C 0 km/h
1770 25-09-2010 18:10:01 15.4 C 4.47 g/m*3 15.4 C 0 km/h
1771 25-09-2010 18:22:01 14.3 C 4.67 g/m*3 14.3 C 0 km/h
1772 25-09-2010 18:34:02 13.9 C 4.92 g/m*3 13.9 C 0 km/h
1773 25-09-2010 18:46:02 13.8 C 5.36 g/m*3 13.8 C 0 km/h
1774 25-09-2010 18:58:02 13.7 C 5.8 g/m*3 13.7 C 0 km/h
1775 25-09-2010 19:10:02 13.5 C 5.5 g/m*3 13.5 C 0 km/h
Sensor: Nr:Datum:Temp:Abs-Feuchte:Windchill:Wind:
Aussen-T/F 1776 25-09-2010 19:22:02 13.1 C 5.59 g/m*3 13.1 C 0 km/h
1777 25-09-2010 19:34:02 13 C 5.67 g/m*3 13 C 0 km/h
1778 25-09-2010 19:46:02 12.7 C 5.9 g/m*3 12.7 C 0 km/h
1779 25-09-2010 19:58:02 12.6 C 6.08 g/m*3 12.6 C 0 km/h
1780 25-09-2010 20:10:02 12.5 C 5.72 g/m*3 12.5 C 0 km/h
1781 25-09-2010 20:22:02 12.2 C 5.61 g/m*3 12.2 C 0 km/h
1782 25-09-2010 20:34:02 11.8 C 5.79 g/m*3 11.8 C 0 km/h
1783 25-09-2010 20:46:02 11.1 C 6.04 g/m*3 11.1 C 0 km/h
1784 25-09-2010 20:58:02 10.9 C 6.17 g/m*3 10.9 C 0 km/h
1785 25-09-2010 21:10:02 10.4 C 6.17 g/m*3 10.4 C 0 km/h
1786 25-09-2010 21:22:03 10.2 C 6.28 g/m*3 10.2 C 0 km/h
1787 25-09-2010 21:34:02 10.1 C 6.34 g/m*3 10.1 C 0 km/h
1788 25-09-2010 21:46:03 10 C 6.3 g/m*3 10 C 0 km/h
1789 25-09-2010 21:58:03 9.9 C 6.44 g/m*3 9.9 C 0 km/h
1790 25-09-2010 22:10:02 9.9 C 6.54 g/m*3 9.9 C 0 km/h
1791 25-09-2010 22:22:02 10.2 C 6.57 g/m*3 10.2 C 0 km/h
1792 25-09-2010 22:34:02 10.5 C 6.69 g/m*3 10.5 C 0 km/h
1793 25-09-2010 22:46:02 10.5 C 6.69 g/m*3 10.5 C 0 km/h
1794 25-09-2010 22:58:02 10.3 C 6.9 g/m*3 10.3 C 0 km/h
1795 25-09-2010 23:10:02 9.6 C 7.15 g/m*3 9.6 C 0 km/h
1796 25-09-2010 23:22:02 9.3 C 7.28 g/m*3 9.3 C 0 km/h
1797 25-09-2010 23:34:01 9.2 C 7.5 g/m*3 9.2 C 0 km/h
1798 25-09-2010 23:46:02 9.1 C 7.45 g/m*3 9.1 C 0 km/h
1799 25-09-2010 23:58:02 9.2 C 7.59 g/m*3 9.2 C 0 km/h
1800 26-09-2010 00:10:01 9.1 C 7.63 g/m*3 9.1 C 0 km/h
Sensor: Nr:Datum:Temp:Abs-Feuchte:Windchill:Wind:
Aussen-T/F 1801 26-09-2010 00:22:02 9.5 C 7.92 g/m*3 9.5 C 0 km/h
1802 26-09-2010 00:34:02 9.5 C 7.92 g/m*3 9.5 C 0 km/h
1803 26-09-2010 00:46:02 9.6 C 7.79 g/m*3 9.6 C 0 km/h
1804 26-09-2010 00:58:02 9.5 C 7.55 g/m*3 9.5 C 0 km/h
1805 26-09-2010 01:10:02 9.5 C 7.37 g/m*3 9.5 C 0 km/h
1806 26-09-2010 01:22:02 9.5 C 7.28 g/m*3 9.5 C 0 km/h
1807 26-09-2010 01:34:02 9.4 C 7.15 g/m*3 9.4 C 0 km/h
1808 26-09-2010 01:46:01 9.5 C 7.19 g/m*3 9.5 C 0 km/h
1809 26-09-2010 01:58:01 9.5 C 7.19 g/m*3 9.5 C 0 km/h
1810 26-09-2010 02:10:02 9.5 C 7.19 g/m*3 9.5 C 0 km/h
1811 26-09-2010 02:22:01 9.5 C 7.1 g/m*3 9.5 C 0 km/h
1812 26-09-2010 02:34:01 9.3 C 7.01 g/m*3 9.3 C 0 km/h
1813 26-09-2010 02:46:01 9.4 C 6.96 g/m*3 9.4 C 0 km/h
1814 26-09-2010 02:58:01 9.4 C 6.96 g/m*3 9.4 C 0 km/h
1815 26-09-2010 03:10:01 9.3 C 6.92 g/m*3 9.3 C 0 km/h
1816 26-09-2010 03:22:01 9.3 C 7.01 g/m*3 9.3 C 0 km/h
1817 26-09-2010 03:34:01 9.3 C 7.1 g/m*3 9.3 C 0 km/h
1818 26-09-2010 03:46:01 9.1 C 7.1 g/m*3 9.1 C 0 km/h
1819 26-09-2010 03:58:01 9 C 7.23 g/m*3 9 C 0 km/h
1820 26-09-2010 04:10:01 9 C 7.32 g/m*3 9 C 0 km/h
1821 26-09-2010 04:22:01 9 C 7.23 g/m*3 9 C 0 km/h
1822 26-09-2010 04:34:02 8.9 C 7.27 g/m*3 8.9 C 0 km/h
1823 26-09-2010 04:46:01 8.7 C 7.26 g/m*3 8.7 C 0 km/h
1824 26-09-2010 04:58:01 8.8 C 7.31 g/m*3 8.8 C 0 km/h
1825 26-09-2010 05:10:02 9 C 7.32 g/m*3 9 C 0 km/h
Sensor: Nr:Datum:Temp:Abs-Feuchte:Windchill:Wind:
Aussen-T/F 1826 26-09-2010 05:22:01 9.1 C 7.36 g/m*3 9.1 C 0 km/h
1827 26-09-2010 05:34:01 9 C 7.32 g/m*3 9 C 0 km/h
1828 26-09-2010 05:46:01 9 C 7.32 g/m*3 9 C 0 km/h
1829 26-09-2010 05:58:01 9 C 7.32 g/m*3 9 C 0 km/h
1830 26-09-2010 06:10:02 9 C 7.32 g/m*3 9 C 0 km/h
1831 26-09-2010 06:22:01 9.1 C 7.36 g/m*3 9.1 C 0 km/h
1832 26-09-2010 06:34:01 8.8 C 7.31 g/m*3 8.8 C 0 km/h
1833 26-09-2010 06:46:01 8.8 C 7.4 g/m*3 8.8 C 0 km/h
1834 26-09-2010 06:58:01 8.8 C 7.49 g/m*3 8.8 C 0 km/h
1835 26-09-2010 07:10:01 8.8 C 7.49 g/m*3 8.8 C 0 km/h
1836 26-09-2010 07:22:02 8.5 C 7.26 g/m*3 8.5 C 0 km/h
1837 26-09-2010 07:34:01 8.6 C 7.39 g/m*3 8.6 C 0 km/h
1838 26-09-2010 07:46:02 8.9 C 7.62 g/m*3 8.9 C 0 km/h
1839 26-09-2010 07:58:02 9.2 C 7.5 g/m*3 9.2 C 0 km/h
1840 26-09-2010 08:10:01 9.5 C 7.55 g/m*3 9.5 C 0 km/h
1841 26-09-2010 08:22:02 9.6 C 7.33 g/m*3 9.6 C 0 km/h
1842 26-09-2010 08:34:01 9.7 C 7.19 g/m*3 9.7 C 0 km/h
1843 26-09-2010 08:46:02 9.7 C 7.19 g/m*3 9.7 C 0 km/h
1844 26-09-2010 08:58:02 9.6 C 7.24 g/m*3 9.6 C 0 km/h
1845 26-09-2010 09:10:01 9.4 C 7.24 g/m*3 9.4 C 0 km/h
1846 26-09-2010 09:22:01 9.4 C 7.33 g/m*3 9.4 C 0 km/h
1847 26-09-2010 09:34:02 10.5 C 7.57 g/m*3 10.5 C 0 km/h
1848 26-09-2010 09:46:01 11 C 7.11 g/m*3 11 C 0 km/h
1849 26-09-2010 09:58:01 11 C 6.61 g/m*3 11 C 0 km/h
1850 26-09-2010 10:10:02 11 C 6.61 g/m*3 11 C 0 km/h
Sensor: Nr:Datum:Temp:Abs-Feuchte:Windchill:Wind:
Aussen-T/F 1851 26-09-2010 10:22:01 11.6 C 6.76 g/m*3 11.6 C 0 km/h
1852 26-09-2010 10:34:02 12 C 6.61 g/m*3 12 C 0 km/h
1853 26-09-2010 10:46:01 11.9 C 6.78 g/m*3 11.9 C 0 km/h
1854 26-09-2010 10:58:01 12.7 C 7.01 g/m*3 12.7 C 0 km/h
1855 26-09-2010 11:10:02 12.9 C 6.42 g/m*3 12.9 C 0 km/h
1856 26-09-2010 11:22:01 13.1 C 6.5 g/m*3 13.1 C 0 km/h
1857 26-09-2010 11:34:02 13.2 C 6.66 g/m*3 13.2 C 0 km/h
1858 26-09-2010 11:46:02 13.5 C 6.32 g/m*3 13.5 C 0 km/h
1859 26-09-2010 11:58:02 13.4 C 6.28 g/m*3 13.4 C 0 km/h
1860 26-09-2010 12:10:01 14 C 6.39 g/m*3 14 C 0 km/h
1861 26-09-2010 12:22:02 14.3 C 6.51 g/m*3 14.3 C 0 km/h
1862 26-09-2010 12:34:01 14.6 C 6.51 g/m*3 14.6 C 0 km/h
1863 26-09-2010 12:46:01 15 C 6.28 g/m*3 15 C 0 km/h
1864 26-09-2010 12:58:01 14.5 C 6.22 g/m*3 14.5 C 0 km/h
1865 26-09-2010 13:10:02 14.5 C 6.34 g/m*3 14.5 C 0 km/h
1866 26-09-2010 13:22:01 13.2 C 7.12 g/m*3 13.2 C 0 km/h
1867 26-09-2010 13:34:01 12.6 C 7.63 g/m*3 12.6 C 0 km/h
1868 26-09-2010 13:46:01 12.4 C 8.3 g/m*3 12.4 C 0 km/h
1869 26-09-2010 13:58:01 12.3 C 8.25 g/m*3 12.3 C 0 km/h
1870 26-09-2010 14:10:01 13.2 C 8.61 g/m*3 13.2 C 0 km/h
1871 26-09-2010 14:22:01 13.4 C 8.37 g/m*3 13.4 C 0 km/h
1872 26-09-2010 14:34:01 13.3 C 8.43 g/m*3 13.3 C 0 km/h
1873 26-09-2010 14:46:01 13.2 C 8.15 g/m*3 13.2 C 0 km/h
1874 26-09-2010 14:58:01 13.4 C 7.9 g/m*3 13.4 C 0 km/h
1875 26-09-2010 15:10:01 13.6 C 7.89 g/m*3 13.6 C 0 km/h
Sensor: Nr:Datum:Temp:Abs-Feuchte:Windchill:Wind:
Aussen-T/F 1876 26-09-2010 15:22:02 13.9 C 8.39 g/m*3 13.9 C 0 km/h
1877 26-09-2010 15:34:01 14.4 C 8.16 g/m*3 14.4 C 0 km/h
1878 26-09-2010 15:46:02 14.5 C 7.96 g/m*3 14.5 C 0 km/h
1879 26-09-2010 15:58:02 14.5 C 8.21 g/m*3 14.5 C 0 km/h
1880 26-09-2010 16:10:01 13.7 C 7.7 g/m*3 13.7 C 0 km/h
1881 26-09-2010 16:22:02 13.8 C 7.51 g/m*3 13.8 C 0 km/h
1882 26-09-2010 16:34:01 15.7 C 7.09 g/m*3 15.7 C 0 km/h
1883 26-09-2010 16:46:01 15.5 C 6.21 g/m*3 15.5 C 0 km/h
1884 26-09-2010 16:58:01 15.9 C 6.5 g/m*3 15.9 C 0 km/h
1885 26-09-2010 17:10:01 16.1 C 6.44 g/m*3 16.1 C 0 km/h
1886 26-09-2010 17:22:01 15.6 C 6.38 g/m*3 15.6 C 0 km/h
1887 26-09-2010 17:34:02 15.4 C 6.7 g/m*3 15.4 C 0 km/h
1888 26-09-2010 17:46:01 14.6 C 6.76 g/m*3 14.6 C 0 km/h
1889 26-09-2010 17:58:01 14.2 C 6.72 g/m*3 14.2 C 0 km/h
1890 26-09-2010 18:10:02 13.6 C 6.83 g/m*3 13.6 C 0 km/h
1891 26-09-2010 18:22:01 13.1 C 6.85 g/m*3 13.1 C 0 km/h
1892 26-09-2010 18:34:01 12.9 C 6.99 g/m*3 12.9 C 0 km/h
1893 26-09-2010 18:46:01 12.7 C 7.01 g/m*3 12.7 C 0 km/h
1894 26-09-2010 18:58:01 12.5 C 7.04 g/m*3 12.5 C 0 km/h
1895 26-09-2010 19:10:02 12.4 C 7.1 g/m*3 12.4 C 0 km/h
1896 26-09-2010 19:22:01 12.4 C 7.1 g/m*3 12.4 C 0 km/h
1897 26-09-2010 19:34:01 12.2 C 7.01 g/m*3 12.2 C 0 km/h
1898 26-09-2010 19:46:01 12.1 C 7.18 g/m*3 12.1 C 0 km/h
1899 26-09-2010 19:58:01 12.1 C 7.08 g/m*3 12.1 C 0 km/h
1900 26-09-2010 20:10:02 12 C 7.25 g/m*3 12 C 0 km/h
Sensor: Nr:Datum:Temp:Abs-Feuchte:Windchill:Wind:
Aussen-T/F 1901 26-09-2010 20:22:01 11.9 C 7.31 g/m*3 11.9 C 0 km/h
1902 26-09-2010 20:34:01 11.7 C 7.22 g/m*3 11.7 C 0 km/h
1903 26-09-2010 20:46:01 11.7 C 7.22 g/m*3 11.7 C 0 km/h
1904 26-09-2010 20:58:01 11.6 C 7.07 g/m*3 11.6 C 0 km/h
1905 26-09-2010 21:10:01 11.6 C 7.07 g/m*3 11.6 C 0 km/h
1906 26-09-2010 21:22:01 11.4 C 7.08 g/m*3 11.4 C 0 km/h
1907 26-09-2010 21:34:01 11.2 C 7.1 g/m*3 11.2 C 0 km/h
1908 26-09-2010 21:46:01 10.9 C 7.16 g/m*3 10.9 C 0 km/h
1909 26-09-2010 21:58:01 10.7 C 7.17 g/m*3 10.7 C 0 km/h
1910 26-09-2010 22:10:01 10.3 C 6.99 g/m*3 10.3 C 0 km/h
1911 26-09-2010 22:22:01 10 C 7.05 g/m*3 10 C 0 km/h
1912 26-09-2010 22:34:01 9.7 C 7.1 g/m*3 9.7 C 0 km/h
1913 26-09-2010 22:47:04 9.3 C 7.1 g/m*3 9.3 C 0 km/h
1914 26-09-2010 22:59:04 9.2 C 7.05 g/m*3 9.2 C 0 km/h
1915 26-09-2010 23:11:04 9 C 7.05 g/m*3 9 C 0 km/h
1916 26-09-2010 23:23:04 8.9 C 7.18 g/m*3 8.9 C 0 km/h
1917 26-09-2010 23:35:04 8.9 C 7.27 g/m*3 8.9 C 0 km/h
1918 26-09-2010 23:47:04 8.8 C 7.22 g/m*3 8.8 C 0 km/h
1919 26-09-2010 23:59:04 8.6 C 7.13 g/m*3 8.6 C 0 km/h
1920 27-09-2010 00:11:04 8.5 C 7.17 g/m*3 8.5 C 0 km/h
1921 27-09-2010 00:23:04 8.2 C 7.03 g/m*3 8.2 C 0 km/h
1922 27-09-2010 00:35:04 8.1 C 6.99 g/m*3 8.1 C 0 km/h
1923 27-09-2010 00:47:04 7.9 C 6.98 g/m*3 7.9 C 0 km/h
1924 27-09-2010 00:59:04 7.9 C 7.15 g/m*3 7.9 C 0 km/h
1925 27-09-2010 01:11:04 7.8 C 7.18 g/m*3 7.8 C 0 km/h
Sensor: Nr:Datum:Temp:Abs-Feuchte:Windchill:Wind:
Aussen-T/F 1926 27-09-2010 01:23:04 7.6 C 7.09 g/m*3 7.6 C 0 km/h
1927 27-09-2010 01:35:04 7.5 C 7.04 g/m*3 7.5 C 0 km/h
1928 27-09-2010 01:47:04 7.3 C 6.95 g/m*3 7.3 C 0 km/h
1929 27-09-2010 01:59:04 7.1 C 6.94 g/m*3 7.1 C 0 km/h
1930 27-09-2010 02:11:04 7 C 6.9 g/m*3 7 C 0 km/h
1931 27-09-2010 02:23:04 7 C 6.9 g/m*3 7 C 0 km/h
1932 27-09-2010 02:35:05 6.8 C 6.81 g/m*3 6.8 C 0 km/h
1933 27-09-2010 02:47:05 6.7 C 6.84 g/m*3 6.7 C 0 km/h
1934 27-09-2010 02:59:05 6.7 C 6.84 g/m*3 6.7 C 0 km/h
1935 27-09-2010 03:11:05 6.5 C 6.75 g/m*3 6.5 C 0 km/h
1936 27-09-2010 03:23:05 6.7 C 6.84 g/m*3 6.7 C 0 km/h
1937 27-09-2010 03:35:05 6.4 C 6.71 g/m*3 6.4 C 0 km/h
1938 27-09-2010 03:47:05 6.3 C 6.66 g/m*3 6.3 C 0 km/h
1939 27-09-2010 03:59:05 6.4 C 6.78 g/m*3 6.4 C 0 km/h
1940 27-09-2010 04:11:05 6.5 C 6.9 g/m*3 6.5 C 0 km/h
1941 27-09-2010 04:23:05 6.4 C 6.85 g/m*3 6.4 C 0 km/h
1942 27-09-2010 04:35:05 6.3 C 6.81 g/m*3 6.3 C 0 km/h
1943 27-09-2010 04:47:05 6.1 C 6.72 g/m*3 6.1 C 0 km/h
1944 27-09-2010 04:59:05 5.9 C 6.71 g/m*3 5.9 C 0 km/h
1945 27-09-2010 05:11:05 5.9 C 6.71 g/m*3 5.9 C 0 km/h
1946 27-09-2010 05:23:05 6.1 C 6.72 g/m*3 6.1 C 0 km/h
1947 27-09-2010 05:35:05 6.3 C 6.81 g/m*3 6.3 C 0 km/h
1948 27-09-2010 05:47:05 6.4 C 6.93 g/m*3 6.4 C 0 km/h
1949 27-09-2010 05:59:05 6.5 C 6.97 g/m*3 6.5 C 0 km/h
1950 27-09-2010 06:11:05 6.5 C 6.97 g/m*3 6.5 C 0 km/h
Sensor: Nr:Datum:Temp:Abs-Feuchte:Windchill:Wind:
Aussen-T/F 1951 27-09-2010 06:23:05 6.4 C 6.93 g/m*3 6.4 C 0 km/h
1952 27-09-2010 06:35:05 6.2 C 6.84 g/m*3 6.2 C 0 km/h
1953 27-09-2010 06:47:06 6.2 C 6.84 g/m*3 6.2 C 0 km/h
1954 27-09-2010 06:59:06 6.3 C 6.88 g/m*3 6.3 C 0 km/h
1955 27-09-2010 07:11:04 6.3 C 6.88 g/m*3 6.3 C 0 km/h
1956 27-09-2010 07:23:04 6.6 C 7.02 g/m*3 6.6 C 0 km/h
1957 27-09-2010 07:35:04 6.7 C 7.14 g/m*3 6.7 C 0 km/h
1958 27-09-2010 07:47:02 6.9 C 7.24 g/m*3 6.9 C 0 km/h
1959 27-09-2010 07:59:02 7.2 C 7.38 g/m*3 7.2 C 0 km/h
1960 27-09-2010 08:11:02 7.5 C 7.52 g/m*3 7.5 C 0 km/h
1961 27-09-2010 08:23:02 7.5 C 7.52 g/m*3 7.5 C 0 km/h
1962 27-09-2010 08:35:02 7.6 C 7.57 g/m*3 7.6 C 0 km/h
1963 27-09-2010 08:47:02 7.8 C 7.67 g/m*3 7.8 C 0 km/h
1964 27-09-2010 08:59:02 8.1 C 7.74 g/m*3 8.1 C 0 km/h
1965 27-09-2010 09:11:02 8.5 C 7.94 g/m*3 8.5 C 0 km/h
1966 27-09-2010 09:23:02 8.8 C 8.09 g/m*3 8.8 C 0 km/h
1967 27-09-2010 09:35:02 9.2 C 8.22 g/m*3 9.2 C 0 km/h
1968 27-09-2010 09:47:01 9.6 C 8.34 g/m*3 9.6 C 0 km/h
1969 27-09-2010 09:59:01 10.1 C 8.42 g/m*3 10.1 C 0 km/h
1970 27-09-2010 10:11:02 10.4 C 8.29 g/m*3 10.4 C 0 km/h
1971 27-09-2010 10:23:01 10.4 C 7.9 g/m*3 10.4 C 0 km/h
1972 27-09-2010 10:35:02 10.8 C 7.51 g/m*3 10.8 C 0 km/h
1973 27-09-2010 10:47:01 11 C 7.11 g/m*3 11 C 0 km/h
1974 27-09-2010 10:59:01 11.2 C 6.99 g/m*3 11.2 C 0 km/h
1975 27-09-2010 11:11:02 11.7 C 7.01 g/m*3 11.7 C 0 km/h
Sensor: Nr:Datum:Temp:Abs-Feuchte:Windchill:Wind:
Aussen-T/F 1976 27-09-2010 11:23:01 11.8 C 6.74 g/m*3 11.8 C 0 km/h
1977 27-09-2010 11:35:02 12.2 C 6.8 g/m*3 12.2 C 0 km/h
1978 27-09-2010 11:47:01 12 C 6.61 g/m*3 12 C 0 km/h
1979 27-09-2010 11:59:01 12.2 C 6.8 g/m*3 12.2 C 0 km/h
1980 27-09-2010 12:11:02 12.4 C 6.77 g/m*3 12.4 C 0 km/h
1981 27-09-2010 12:23:01 12.8 C 6.94 g/m*3 12.8 C 0 km/h
1982 27-09-2010 12:35:02 12.8 C 6.83 g/m*3 12.8 C 0 km/h
1983 27-09-2010 12:47:01 13 C 6.8 g/m*3 13 C 0 km/h
1984 27-09-2010 12:59:01 12.9 C 6.76 g/m*3 12.9 C 0 km/h
1985 27-09-2010 13:11:02 13.1 C 6.73 g/m*3 13.1 C 0 km/h
1986 27-09-2010 13:23:02 13.4 C 6.97 g/m*3 13.4 C 0 km/h
1987 27-09-2010 13:35:01 13.6 C 6.71 g/m*3 13.6 C 0 km/h
1988 27-09-2010 13:47:02 13.6 C 6.71 g/m*3 13.6 C 0 km/h
1989 27-09-2010 13:59:02 13.7 C 6.51 g/m*3 13.7 C 0 km/h
1990 27-09-2010 14:11:01 13.4 C 6.51 g/m*3 13.4 C 0 km/h
1991 27-09-2010 14:23:02 13.3 C 6.7 g/m*3 13.3 C 0 km/h
1992 27-09-2010 14:35:01 13.4 C 6.74 g/m*3 13.4 C 0 km/h
1993 27-09-2010 14:47:03 13.2 C 6.77 g/m*3 13.2 C 0 km/h
1994 27-09-2010 14:59:03 13 C 6.58 g/m*3 13 C 0 km/h
1995 27-09-2010 15:11:02 13.4 C 6.74 g/m*3 13.4 C 0 km/h
1996 27-09-2010 15:23:02 13.6 C 6.59 g/m*3 13.6 C 0 km/h
1997 27-09-2010 15:35:02 13.6 C 6.47 g/m*3 13.6 C 0 km/h
1998 27-09-2010 15:47:02 13.2 C 6.66 g/m*3 13.2 C 0 km/h
1999 27-09-2010 15:59:02 13.2 C 6.77 g/m*3 13.2 C 0 km/h
2000 27-09-2010 16:11:01 13.4 C 6.97 g/m*3 13.4 C 0 km/h
Sensor: Nr:Datum:Temp:Abs-Feuchte:Windchill:Wind:
Aussen-T/F 2001 27-09-2010 16:23:02 13.4 C 7.44 g/m*3 13.4 C 0 km/h
2002 27-09-2010 16:35:02 13.4 C 7.44 g/m*3 13.4 C 0 km/h
2003 27-09-2010 16:47:01 13.3 C 7.05 g/m*3 13.3 C 0 km/h
2004 27-09-2010 16:59:01 13.4 C 7.09 g/m*3 13.4 C 0 km/h
2005 27-09-2010 17:11:01 13.2 C 7.58 g/m*3 13.2 C 0 km/h
2006 27-09-2010 17:23:01 13 C 7.6 g/m*3 13 C 0 km/h
2007 27-09-2010 17:35:02 12.8 C 7.73 g/m*3 12.8 C 0 km/h
2008 27-09-2010 17:47:02 12.8 C 7.84 g/m*3 12.8 C 0 km/h
2009 27-09-2010 17:59:02 12.7 C 7.68 g/m*3 12.7 C 0 km/h
2010 27-09-2010 18:11:02 12.5 C 7.59 g/m*3 12.5 C 0 km/h
2011 27-09-2010 18:23:01 12.3 C 7.71 g/m*3 12.3 C 0 km/h
2012 27-09-2010 18:35:02 11.9 C 7.73 g/m*3 11.9 C 0 km/h
2013 27-09-2010 18:47:02 11.7 C 7.74 g/m*3 11.7 C 0 km/h
2014 27-09-2010 18:59:02 11.3 C 7.85 g/m*3 11.3 C 0 km/h
2015 27-09-2010 19:11:02 10.8 C 8.01 g/m*3 10.8 C 0 km/h
2016 27-09-2010 19:23:02 10.7 C 8.15 g/m*3 10.7 C 0 km/h
2017 27-09-2010 19:35:02 10.5 C 8.15 g/m*3 10.5 C 0 km/h
2018 27-09-2010 19:47:02 10.5 C 8.15 g/m*3 10.5 C 0 km/h
2019 27-09-2010 19:59:02 10.4 C 8.19 g/m*3 10.4 C 0 km/h
2020 27-09-2010 20:11:02 10.3 C 8.24 g/m*3 10.3 C 0 km/h
2021 27-09-2010 20:23:02 10.3 C 8.33 g/m*3 10.3 C 0 km/h
2022 27-09-2010 20:35:02 10.3 C 8.43 g/m*3 10.3 C 0 km/h
2023 27-09-2010 20:47:01 10.3 C 8.43 g/m*3 10.3 C 0 km/h
2024 27-09-2010 20:59:01 10.3 C 8.52 g/m*3 10.3 C 0 km/h
2025 27-09-2010 21:11:02 10.4 C 8.58 g/m*3 10.4 C 0 km/h
Sensor: Nr:Datum:Temp:Abs-Feuchte:Windchill:Wind:
Aussen-T/F 2026 27-09-2010 21:23:01 10.2 C 8.47 g/m*3 10.2 C 0 km/h
2027 27-09-2010 21:35:02 10.3 C 8.52 g/m*3 10.3 C 0 km/h
2028 27-09-2010 21:47:02 10.4 C 8.58 g/m*3 10.4 C 0 km/h
2029 27-09-2010 21:59:03 10.4 C 8.58 g/m*3 10.4 C 0 km/h
2030 27-09-2010 22:11:02 10.4 C 8.58 g/m*3 10.4 C 0 km/h
2031 27-09-2010 22:24:10 10.4 C 8.67 g/m*3 10.4 C 0 km/h
2032 27-09-2010 22:36:10 10.2 C 8.56 g/m*3 10.2 C 0 km/h
2033 27-09-2010 22:48:10 10.2 C 8.56 g/m*3 10.2 C 0 km/h
2034 27-09-2010 23:00:10 10.2 C 8.56 g/m*3 10.2 C 0 km/h
2035 27-09-2010 23:12:10 10.2 C 8.66 g/m*3 10.2 C 0 km/h
2036 27-09-2010 23:24:10 10.2 C 8.66 g/m*3 10.2 C 0 km/h
2037 27-09-2010 23:36:10 10.1 C 8.61 g/m*3 10.1 C 0 km/h
2038 27-09-2010 23:48:10 10.1 C 8.7 g/m*3 10.1 C 0 km/h
2039 28-09-2010 00:00:10 10.1 C 8.7 g/m*3 10.1 C 0 km/h
2040 28-09-2010 00:12:10 10 C 8.64 g/m*3 10 C 0 km/h
2041 28-09-2010 00:24:10 10 C 8.64 g/m*3 10 C 0 km/h
2042 28-09-2010 00:36:10 10 C 8.64 g/m*3 10 C 0 km/h
2043 28-09-2010 00:48:10 9.9 C 8.78 g/m*3 9.9 C 0 km/h
2044 28-09-2010 01:00:10 10 C 8.74 g/m*3 10 C 0 km/h
2045 28-09-2010 01:12:11 10 C 8.74 g/m*3 10 C 0 km/h
2046 28-09-2010 01:24:11 10 C 8.74 g/m*3 10 C 0 km/h
2047 28-09-2010 01:36:11 10 C 8.74 g/m*3 10 C 0 km/h
2048 28-09-2010 01:48:11 9.9 C 8.78 g/m*3 9.9 C 0 km/h
2049 28-09-2010 02:00:11 9.9 C 8.78 g/m*3 9.9 C 0 km/h
2050 28-09-2010 02:12:11 9.9 C 8.78 g/m*3 9.9 C 0 km/h
Sensor: Nr:Datum:Temp:Abs-Feuchte:Windchill:Wind:
Aussen-T/F 2051 28-09-2010 02:24:11 9.9 C 8.78 g/m*3 9.9 C 0 km/h
2052 28-09-2010 02:36:11 9.9 C 8.78 g/m*3 9.9 C 0 km/h
2053 28-09-2010 02:48:11 9.9 C 8.78 g/m*3 9.9 C 0 km/h
2054 28-09-2010 03:00:11 9.9 C 8.87 g/m*3 9.9 C 0 km/h
2055 28-09-2010 03:12:11 9.9 C 8.87 g/m*3 9.9 C 0 km/h
2056 28-09-2010 03:24:11 9.9 C 8.87 g/m*3 9.9 C 0 km/h
2057 28-09-2010 03:36:12 9.9 C 8.87 g/m*3 9.9 C 0 km/h
2058 28-09-2010 03:48:12 9.9 C 8.87 g/m*3 9.9 C 0 km/h
2059 28-09-2010 04:00:12 9.9 C 8.87 g/m*3 9.9 C 0 km/h
2060 28-09-2010 04:12:12 9.9 C 8.87 g/m*3 9.9 C 0 km/h
2061 28-09-2010 04:24:12 9.9 C 8.87 g/m*3 9.9 C 0 km/h
2062 28-09-2010 04:36:12 9.9 C 8.87 g/m*3 9.9 C 0 km/h
2063 28-09-2010 04:48:12 10 C 8.83 g/m*3 10 C 0 km/h
2064 28-09-2010 05:00:12 10 C 8.93 g/m*3 10 C 0 km/h
2065 28-09-2010 05:12:12 10 C 8.93 g/m*3 10 C 0 km/h
2066 28-09-2010 05:24:12 10 C 8.93 g/m*3 10 C 0 km/h
2067 28-09-2010 05:36:12 10 C 8.93 g/m*3 10 C 0 km/h
2068 28-09-2010 05:48:12 10 C 8.93 g/m*3 10 C 0 km/h
2069 28-09-2010 06:00:12 10.1 C 8.98 g/m*3 10.1 C 0 km/h
2070 28-09-2010 06:12:12 10.1 C 8.98 g/m*3 10.1 C 0 km/h
2071 28-09-2010 06:24:12 10.1 C 8.98 g/m*3 10.1 C 0 km/h
2072 28-09-2010 06:36:12 10.1 C 8.98 g/m*3 10.1 C 0 km/h
2073 28-09-2010 06:48:12 10 C 8.93 g/m*3 10 C 0 km/h
2074 28-09-2010 07:00:12 10 C 8.93 g/m*3 10 C 0 km/h
2075 28-09-2010 07:12:12 10 C 8.93 g/m*3 10 C 0 km/h
Sensor: Nr:Datum:Temp:Abs-Feuchte:Windchill:Wind:
Aussen-T/F 2076 28-09-2010 07:24:12 10 C 8.93 g/m*3 10 C 0 km/h
2077 28-09-2010 07:36:13 10 C 8.93 g/m*3 10 C 0 km/h
2078 28-09-2010 07:48:01 10 C 8.93 g/m*3 10 C 0 km/h
2079 28-09-2010 08:00:01 10 C 8.93 g/m*3 10 C 0 km/h
2080 28-09-2010 08:12:02 10 C 8.93 g/m*3 10 C 0 km/h
2081 28-09-2010 08:24:02 10 C 8.93 g/m*3 10 C 0 km/h
2082 28-09-2010 08:36:02 10.1 C 8.98 g/m*3 10.1 C 0 km/h
2083 28-09-2010 08:48:03 10.1 C 8.98 g/m*3 10.1 C 0 km/h
2084 28-09-2010 09:00:03 10.1 C 8.98 g/m*3 10.1 C 0 km/h
2085 28-09-2010 09:12:03 10.2 C 9.04 g/m*3 10.2 C 0 km/h
2086 28-09-2010 09:24:02 10.2 C 9.04 g/m*3 10.2 C 0 km/h
2087 28-09-2010 09:36:02 10.3 C 9.1 g/m*3 10.3 C 0 km/h
2088 28-09-2010 09:48:02 10.4 C 9.16 g/m*3 10.4 C 0 km/h
2089 28-09-2010 10:00:02 10.4 C 9.16 g/m*3 10.4 C 0 km/h
2090 28-09-2010 10:12:02 10.5 C 9.21 g/m*3 10.5 C 0 km/h
2091 28-09-2010 10:24:01 10.5 C 9.21 g/m*3 10.5 C 0 km/h
2092 28-09-2010 10:36:02 10.7 C 9.33 g/m*3 10.7 C 0 km/h
2093 28-09-2010 10:48:02 10.8 C 9.39 g/m*3 10.8 C 0 km/h
2094 28-09-2010 11:00:02 11 C 9.51 g/m*3 11 C 0 km/h
2095 28-09-2010 11:12:02 11 C 9.51 g/m*3 11 C 0 km/h
2096 28-09-2010 11:24:02 11.2 C 9.63 g/m*3 11.2 C 0 km/h
2097 28-09-2010 11:36:02 11.3 C 9.69 g/m*3 11.3 C 0 km/h
2098 28-09-2010 11:48:02 11.4 C 9.75 g/m*3 11.4 C 0 km/h
2099 28-09-2010 12:00:02 11.4 C 9.75 g/m*3 11.4 C 0 km/h
2100 28-09-2010 12:12:02 11.4 C 9.65 g/m*3 11.4 C 0 km/h
Sensor: Nr:Datum:Temp:Abs-Feuchte:Windchill:Wind:
Aussen-T/F 2101 28-09-2010 12:24:02 11.4 C 9.65 g/m*3 11.4 C 0 km/h
2102 28-09-2010 12:36:02 11.5 C 9.71 g/m*3 11.5 C 0 km/h
2103 28-09-2010 12:48:02 11.7 C 9.83 g/m*3 11.7 C 0 km/h
2104 28-09-2010 13:00:02 11.6 C 9.67 g/m*3 11.6 C 0 km/h
2105 28-09-2010 13:12:02 11.6 C 9.67 g/m*3 11.6 C 0 km/h
2106 28-09-2010 13:24:03 11.8 C 9.79 g/m*3 11.8 C 0 km/h
2107 28-09-2010 13:36:02 11.8 C 9.68 g/m*3 11.8 C 0 km/h
2108 28-09-2010 13:48:03 11.9 C 9.74 g/m*3 11.9 C 0 km/h
2109 28-09-2010 14:00:03 11.9 C 9.74 g/m*3 11.9 C 0 km/h
2110 28-09-2010 14:12:02 11.8 C 9.68 g/m*3 11.8 C 0 km/h
2111 28-09-2010 14:24:02 11.7 C 9.62 g/m*3 11.7 C 0 km/h
2112 28-09-2010 14:36:02 11.7 C 9.62 g/m*3 11.7 C 0 km/h
2113 28-09-2010 14:48:02 11.7 C 9.62 g/m*3 11.7 C 0 km/h
2114 28-09-2010 15:00:02 11.7 C 9.62 g/m*3 11.7 C 0 km/h
2115 28-09-2010 15:12:02 11.7 C 9.73 g/m*3 11.7 C 0 km/h
2116 28-09-2010 15:24:02 11.7 C 9.73 g/m*3 11.7 C 0 km/h
2117 28-09-2010 15:36:02 11.8 C 9.79 g/m*3 11.8 C 0 km/h
2118 28-09-2010 15:48:02 11.8 C 9.79 g/m*3 11.8 C 0 km/h
2119 28-09-2010 16:00:02 11.8 C 9.79 g/m*3 11.8 C 0 km/h
2120 28-09-2010 16:12:01 11.8 C 9.79 g/m*3 11.8 C 0 km/h
2121 28-09-2010 16:24:01 11.8 C 9.79 g/m*3 11.8 C 0 km/h
2122 28-09-2010 16:36:02 11.9 C 9.96 g/m*3 11.9 C 0 km/h
2123 28-09-2010 16:48:02 11.9 C 9.96 g/m*3 11.9 C 0 km/h
2124 28-09-2010 17:00:02 11.9 C 9.96 g/m*3 11.9 C 0 km/h
2125 28-09-2010 17:12:02 12 C 10.02 g/m*3 12 C 0 km/h
Sensor: Nr:Datum:Temp:Abs-Feuchte:Windchill:Wind:
Aussen-T/F 2126 28-09-2010 17:24:02 12 C 10.02 g/m*3 12 C 0 km/h
2127 28-09-2010 17:36:02 12 C 10.02 g/m*3 12 C 0 km/h
2128 28-09-2010 17:48:02 12 C 10.02 g/m*3 12 C 0 km/h
2129 28-09-2010 18:00:02 11.9 C 9.96 g/m*3 11.9 C 0 km/h
2130 28-09-2010 18:12:02 11.9 C 9.96 g/m*3 11.9 C 0 km/h
2131 28-09-2010 18:24:02 11.9 C 10.06 g/m*3 11.9 C 0 km/h
2132 28-09-2010 18:36:02 11.8 C 10 g/m*3 11.8 C 0 km/h
2133 28-09-2010 18:48:01 11.8 C 10 g/m*3 11.8 C 0 km/h
2134 28-09-2010 19:00:01 11.8 C 10 g/m*3 11.8 C 0 km/h
2135 28-09-2010 19:12:02 11.7 C 9.94 g/m*3 11.7 C 0 km/h
2136 28-09-2010 19:24:01 11.7 C 9.94 g/m*3 11.7 C 0 km/h
2137 28-09-2010 19:36:01 11.7 C 9.94 g/m*3 11.7 C 0 km/h
2138 28-09-2010 19:48:01 11.7 C 9.94 g/m*3 11.7 C 0 km/h
2139 28-09-2010 20:00:01 11.6 C 9.87 g/m*3 11.6 C 0 km/h
2140 28-09-2010 20:12:02 11.6 C 9.87 g/m*3 11.6 C 0 km/h
2141 28-09-2010 20:24:02 11.6 C 9.87 g/m*3 11.6 C 0 km/h
2142 28-09-2010 20:36:01 11.6 C 9.87 g/m*3 11.6 C 0 km/h
2143 28-09-2010 20:48:01 11.6 C 9.87 g/m*3 11.6 C 0 km/h
2144 28-09-2010 21:00:01 11.6 C 9.87 g/m*3 11.6 C 0 km/h
2145 28-09-2010 21:12:01 11.6 C 9.87 g/m*3 11.6 C 0 km/h
2146 28-09-2010 21:24:02 11.6 C 9.87 g/m*3 11.6 C 0 km/h
2147 28-09-2010 21:36:01 11.5 C 9.81 g/m*3 11.5 C 0 km/h
2148 28-09-2010 21:48:03 11.6 C 9.87 g/m*3 11.6 C 0 km/h
2149 28-09-2010 22:00:03 11.6 C 9.87 g/m*3 11.6 C 0 km/h
2150 28-09-2010 22:12:02 11.6 C 9.87 g/m*3 11.6 C 0 km/h
Sensor: Nr:Datum:Temp:Abs-Feuchte:Windchill:Wind:
Aussen-T/F 2151 28-09-2010 22:24:03 11.6 C 9.87 g/m*3 11.6 C 0 km/h
2152 28-09-2010 22:36:02 11.7 C 9.94 g/m*3 11.7 C 0 km/h
2153 28-09-2010 22:48:03 11.6 C 9.87 g/m*3 11.6 C 0 km/h
2154 28-09-2010 23:00:03 11.6 C 9.87 g/m*3 11.6 C 0 km/h
2155 28-09-2010 23:12:02 11.6 C 9.87 g/m*3 11.6 C 0 km/h
2156 28-09-2010 23:24:02 11.6 C 9.87 g/m*3 11.6 C 0 km/h
2157 28-09-2010 23:36:02 11.6 C 9.87 g/m*3 11.6 C 0 km/h
2158 28-09-2010 23:48:02 11.6 C 9.87 g/m*3 11.6 C 0 km/h
2159 29-09-2010 00:00:02 11.6 C 9.87 g/m*3 11.6 C 0 km/h
2160 29-09-2010 00:12:02 11.7 C 9.94 g/m*3 11.7 C 0 km/h
2161 29-09-2010 00:24:02 11.6 C 9.87 g/m*3 11.6 C 0 km/h
2162 29-09-2010 00:36:02 11.7 C 9.94 g/m*3 11.7 C 0 km/h
2163 29-09-2010 00:48:02 11.6 C 9.87 g/m*3 11.6 C 0 km/h
2164 29-09-2010 01:00:02 11.7 C 9.94 g/m*3 11.7 C 0 km/h
2165 29-09-2010 01:12:03 11.6 C 9.87 g/m*3 11.6 C 0 km/h
2166 29-09-2010 01:24:02 11.6 C 9.87 g/m*3 11.6 C 0 km/h
2167 29-09-2010 01:36:02 11.6 C 9.87 g/m*3 11.6 C 0 km/h
2168 29-09-2010 01:48:01 11.6 C 9.87 g/m*3 11.6 C 0 km/h
2169 29-09-2010 02:00:01 11.6 C 9.87 g/m*3 11.6 C 0 km/h
2170 29-09-2010 02:12:02 11.6 C 9.87 g/m*3 11.6 C 0 km/h
2171 29-09-2010 02:24:01 11.5 C 9.81 g/m*3 11.5 C 0 km/h
2172 29-09-2010 02:36:02 11.5 C 9.81 g/m*3 11.5 C 0 km/h
2173 29-09-2010 02:48:01 11.6 C 9.87 g/m*3 11.6 C 0 km/h
2174 29-09-2010 03:00:01 11.4 C 9.75 g/m*3 11.4 C 0 km/h
2175 29-09-2010 03:12:01 11.3 C 9.69 g/m*3 11.3 C 0 km/h
Sensor: Nr:Datum:Temp:Abs-Feuchte:Windchill:Wind:
Aussen-T/F 2176 29-09-2010 03:24:02 11.4 C 9.75 g/m*3 11.4 C 0 km/h
2177 29-09-2010 03:36:01 11.7 C 9.94 g/m*3 11.7 C 0 km/h
2178 29-09-2010 03:48:01 11.6 C 9.87 g/m*3 11.6 C 0 km/h
2179 29-09-2010 04:00:01 11.6 C 9.87 g/m*3 11.6 C 0 km/h
2180 29-09-2010 04:12:02 11.6 C 9.87 g/m*3 11.6 C 0 km/h
2181 29-09-2010 04:24:01 11.6 C 9.87 g/m*3 11.6 C 0 km/h
2182 29-09-2010 04:36:01 11.3 C 9.69 g/m*3 11.3 C 0 km/h
2183 29-09-2010 04:48:01 11.3 C 9.69 g/m*3 11.3 C 0 km/h
2184 29-09-2010 05:00:01 11.4 C 9.75 g/m*3 11.4 C 0 km/h
2185 29-09-2010 05:12:02 11.4 C 9.75 g/m*3 11.4 C 0 km/h
2186 29-09-2010 05:24:01 11.4 C 9.75 g/m*3 11.4 C 0 km/h
2187 29-09-2010 05:36:01 11.4 C 9.75 g/m*3 11.4 C 0 km/h
2188 29-09-2010 05:48:01 11.4 C 9.75 g/m*3 11.4 C 0 km/h
2189 29-09-2010 06:00:01 11.7 C 9.94 g/m*3 11.7 C 0 km/h
2190 29-09-2010 06:12:01 11.6 C 9.87 g/m*3 11.6 C 0 km/h
2191 29-09-2010 06:24:02 11.5 C 9.81 g/m*3 11.5 C 0 km/h
2192 29-09-2010 06:36:01 11.5 C 9.81 g/m*3 11.5 C 0 km/h
2193 29-09-2010 06:48:02 11.3 C 9.69 g/m*3 11.3 C 0 km/h
2194 29-09-2010 07:00:02 11.1 C 9.57 g/m*3 11.1 C 0 km/h
2195 29-09-2010 07:12:01 10.8 C 9.39 g/m*3 10.8 C 0 km/h
2196 29-09-2010 07:24:02 11 C 9.51 g/m*3 11 C 0 km/h
2197 29-09-2010 07:36:01 11.2 C 9.63 g/m*3 11.2 C 0 km/h
2198 29-09-2010 07:48:02 11.1 C 9.57 g/m*3 11.1 C 0 km/h
2199 29-09-2010 08:00:02 11 C 9.51 g/m*3 11 C 0 km/h
2200 29-09-2010 08:12:01 11.2 C 9.63 g/m*3 11.2 C 0 km/h
Sensor: Nr:Datum:Temp:Abs-Feuchte:Windchill:Wind:
Aussen-T/F 2201 29-09-2010 08:24:01 11.2 C 9.63 g/m*3 11.2 C 0 km/h
2202 29-09-2010 08:36:01 11.1 C 9.57 g/m*3 11.1 C 0 km/h
2203 29-09-2010 08:48:02 11.4 C 9.75 g/m*3 11.4 C 0 km/h
2204 29-09-2010 09:00:02 11.6 C 9.87 g/m*3 11.6 C 0 km/h
2205 29-09-2010 09:12:01 11.2 C 9.53 g/m*3 11.2 C 0 km/h
2206 29-09-2010 09:24:01 10.8 C 9.19 g/m*3 10.8 C 0 km/h
2207 29-09-2010 09:36:02 11.7 C 9.62 g/m*3 11.7 C 0 km/h
2208 29-09-2010 09:48:01 11.9 C 9.64 g/m*3 11.9 C 0 km/h
2209 29-09-2010 10:00:01 12.1 C 9.22 g/m*3 12.1 C 0 km/h
2210 29-09-2010 10:12:02 12.5 C 8.91 g/m*3 12.5 C 0 km/h
2211 29-09-2010 10:24:01 12.9 C 8.79 g/m*3 12.9 C 0 km/h
2212 29-09-2010 10:36:02 13.4 C 8.95 g/m*3 13.4 C 0 km/h
2213 29-09-2010 10:48:01 13.7 C 9 g/m*3 13.7 C 0 km/h
2214 29-09-2010 11:00:01 13.8 C 8.94 g/m*3 13.8 C 0 km/h
2215 29-09-2010 11:12:02 13.7 C 8.53 g/m*3 13.7 C 0 km/h
2216 29-09-2010 11:24:01 13.8 C 8.46 g/m*3 13.8 C 0 km/h
2217 29-09-2010 11:36:01 14.1 C 8.01 g/m*3 14.1 C 0 km/h
2218 29-09-2010 11:48:01 14.4 C 8.16 g/m*3 14.4 C 0 km/h
2219 29-09-2010 12:00:01 14.5 C 8.21 g/m*3 14.5 C 0 km/h
2220 29-09-2010 12:12:01 14.6 C 8.01 g/m*3 14.6 C 0 km/h
2221 29-09-2010 12:24:01 14.1 C 7.52 g/m*3 14.1 C 0 km/h
2222 29-09-2010 12:36:01 14 C 8.08 g/m*3 14 C 0 km/h
2223 29-09-2010 12:48:01 14.8 C 8.36 g/m*3 14.8 C 0 km/h
2224 29-09-2010 13:00:01 15.4 C 8.15 g/m*3 15.4 C 0 km/h
2225 29-09-2010 13:12:01 15.7 C 7.89 g/m*3 15.7 C 0 km/h
Sensor: Nr:Datum:Temp:Abs-Feuchte:Windchill:Wind:
Aussen-T/F 2226 29-09-2010 13:24:02 15.8 C 7.81 g/m*3 15.8 C 0 km/h
2227 29-09-2010 13:36:01 15.9 C 7.99 g/m*3 15.9 C 0 km/h
2228 29-09-2010 13:48:02 15.9 C 7.58 g/m*3 15.9 C 0 km/h
2229 29-09-2010 14:00:02 16.3 C 7.35 g/m*3 16.3 C 0 km/h
2230 29-09-2010 14:12:01 15.6 C 7.58 g/m*3 15.6 C 0 km/h
2231 29-09-2010 14:24:02 15.8 C 7.94 g/m*3 15.8 C 0 km/h
2232 29-09-2010 14:36:01 17.4 C 7.85 g/m*3 17.4 C 0 km/h
2233 29-09-2010 14:48:02 19 C 7.33 g/m*3 19 C 0 km/h
2234 29-09-2010 15:00:02 18.8 C 6.76 g/m*3 18.8 C 0 km/h
2235 29-09-2010 15:12:01 18.8 C 6.93 g/m*3 18.8 C 0 km/h
2236 29-09-2010 15:24:01 18.9 C 6.97 g/m*3 18.9 C 0 km/h
2237 29-09-2010 15:36:02 19.6 C 6.92 g/m*3 19.6 C 0 km/h
2238 29-09-2010 15:48:01 19.7 C 6.79 g/m*3 19.7 C 0 km/h
2239 29-09-2010 16:00:02 18.8 C 7.41 g/m*3 18.8 C 0 km/h
2240 29-09-2010 16:12:01 18.1 C 7.26 g/m*3 18.1 C 0 km/h
2241 29-09-2010 16:24:01 18.1 C 7.57 g/m*3 18.1 C 0 km/h
2242 29-09-2010 16:36:02 17.6 C 7.95 g/m*3 17.6 C 0 km/h
2243 29-09-2010 16:48:01 18.1 C 7.88 g/m*3 18.1 C 0 km/h
2244 29-09-2010 17:00:02 19 C 7.33 g/m*3 19 C 0 km/h
2245 29-09-2010 17:12:01 19.4 C 7.01 g/m*3 19.4 C 0 km/h
2246 29-09-2010 17:24:01 18.6 C 7.16 g/m*3 18.6 C 0 km/h
2247 29-09-2010 17:36:02 17.6 C 7.95 g/m*3 17.6 C 0 km/h
2248 29-09-2010 17:48:01 16.9 C 8.05 g/m*3 16.9 C 0 km/h
2249 29-09-2010 18:00:01 15.9 C 7.58 g/m*3 15.9 C 0 km/h
2250 29-09-2010 18:12:04 15.2 C 7.92 g/m*3 15.2 C 0 km/h
Sensor: Nr:Datum:Temp:Abs-Feuchte:Windchill:Wind:
Aussen-T/F 2251 29-09-2010 18:24:02 14.4 C 7.91 g/m*3 14.4 C 0 km/h
2252 29-09-2010 18:36:02 14 C 7.84 g/m*3 14 C 0 km/h
2253 29-09-2010 18:48:01 13.6 C 7.89 g/m*3 13.6 C 0 km/h
2254 29-09-2010 19:00:01 13.2 C 7.81 g/m*3 13.2 C 0 km/h
2255 29-09-2010 19:12:01 13.1 C 7.76 g/m*3 13.1 C 0 km/h
2256 29-09-2010 19:24:01 13 C 7.71 g/m*3 13 C 0 km/h
2257 29-09-2010 19:36:02 13 C 7.6 g/m*3 13 C 0 km/h
2258 29-09-2010 19:48:01 13.1 C 7.53 g/m*3 13.1 C 0 km/h
2259 29-09-2010 20:00:01 13.3 C 7.63 g/m*3 13.3 C 0 km/h
2260 29-09-2010 20:12:02 13.2 C 7.81 g/m*3 13.2 C 0 km/h
2261 29-09-2010 20:24:01 13.2 C 7.81 g/m*3 13.2 C 0 km/h
2262 29-09-2010 20:36:02 13 C 7.6 g/m*3 13 C 0 km/h
2263 29-09-2010 20:48:01 12.9 C 7.66 g/m*3 12.9 C 0 km/h
2264 29-09-2010 21:00:01 12.9 C 7.66 g/m*3 12.9 C 0 km/h
2265 29-09-2010 21:12:02 12.8 C 7.84 g/m*3 12.8 C 0 km/h
2266 29-09-2010 21:24:01 12.4 C 7.98 g/m*3 12.4 C 0 km/h
2267 29-09-2010 21:38:05 12.2 C 8.09 g/m*3 12.2 C 0 km/h
2268 29-09-2010 21:50:05 12.2 C 8.09 g/m*3 12.2 C 0 km/h
2269 29-09-2010 22:02:05 12.3 C 8.25 g/m*3 12.3 C 0 km/h
2270 29-09-2010 22:14:05 12.4 C 8.3 g/m*3 12.4 C 0 km/h
2271 29-09-2010 22:26:05 12.4 C 8.41 g/m*3 12.4 C 0 km/h
2272 29-09-2010 22:38:06 12.5 C 8.47 g/m*3 12.5 C 0 km/h
2273 29-09-2010 22:50:06 12.3 C 8.36 g/m*3 12.3 C 0 km/h
2274 29-09-2010 23:02:06 12 C 8.21 g/m*3 12 C 0 km/h
2275 29-09-2010 23:14:06 11.8 C 8.31 g/m*3 11.8 C 0 km/h
Sensor: Nr:Datum:Temp:Abs-Feuchte:Windchill:Wind:
Aussen-T/F 2276 29-09-2010 23:26:06 11.8 C 8.42 g/m*3 11.8 C 0 km/h
2277 29-09-2010 23:38:06 12 C 8.31 g/m*3 12 C 0 km/h
2278 29-09-2010 23:50:06 12.2 C 8.42 g/m*3 12.2 C 0 km/h
2279 30-09-2010 00:02:06 12.4 C 8.52 g/m*3 12.4 C 0 km/h
2280 30-09-2010 00:14:06 12.3 C 8.47 g/m*3 12.3 C 0 km/h
2281 30-09-2010 00:26:06 12.1 C 8.36 g/m*3 12.1 C 0 km/h
2282 30-09-2010 00:38:06 12.1 C 8.47 g/m*3 12.1 C 0 km/h
2283 30-09-2010 00:50:06 11.9 C 8.37 g/m*3 11.9 C 0 km/h
2284 30-09-2010 01:02:06 11.7 C 8.37 g/m*3 11.7 C 0 km/h
2285 30-09-2010 01:14:06 11.8 C 7.89 g/m*3 11.8 C 0 km/h
2286 30-09-2010 01:26:06 11.8 C 7.79 g/m*3 11.8 C 0 km/h
2287 30-09-2010 01:38:06 12 C 7.46 g/m*3 12 C 0 km/h
2288 30-09-2010 01:50:06 12 C 7.25 g/m*3 12 C 0 km/h
2289 30-09-2010 02:02:06 12.1 C 7.4 g/m*3 12.1 C 0 km/h
2290 30-09-2010 02:14:06 11.5 C 7.54 g/m*3 11.5 C 0 km/h
2291 30-09-2010 02:26:06 11.4 C 7.7 g/m*3 11.4 C 0 km/h
2292 30-09-2010 02:38:06 11.1 C 7.66 g/m*3 11.1 C 0 km/h
2293 30-09-2010 02:50:07 11.2 C 7.8 g/m*3 11.2 C 0 km/h
2294 30-09-2010 03:02:07 11.3 C 7.85 g/m*3 11.3 C 0 km/h
2295 30-09-2010 03:14:07 11.2 C 7.91 g/m*3 11.2 C 0 km/h
2296 30-09-2010 03:26:07 11 C 7.81 g/m*3 11 C 0 km/h
2297 30-09-2010 03:38:07 11.1 C 7.86 g/m*3 11.1 C 0 km/h
2298 30-09-2010 03:50:07 11.2 C 7.91 g/m*3 11.2 C 0 km/h
2299 30-09-2010 04:02:07 11.3 C 7.96 g/m*3 11.3 C 0 km/h
2300 30-09-2010 04:14:07 11.2 C 7.91 g/m*3 11.2 C 0 km/h
Sensor: Nr:Datum:Temp:Abs-Feuchte:Windchill:Wind:
Aussen-T/F 2301 30-09-2010 04:26:07 11 C 7.81 g/m*3 11 C 0 km/h
2302 30-09-2010 04:38:07 10.8 C 7.81 g/m*3 10.8 C 0 km/h
2303 30-09-2010 04:50:07 10.8 C 7.91 g/m*3 10.8 C 0 km/h
2304 30-09-2010 05:02:07 10.8 C 7.91 g/m*3 10.8 C 0 km/h
2305 30-09-2010 05:14:07 10.8 C 7.91 g/m*3 10.8 C 0 km/h
2306 30-09-2010 05:26:07 10.8 C 7.81 g/m*3 10.8 C 0 km/h
2307 30-09-2010 05:38:07 10.7 C 7.76 g/m*3 10.7 C 0 km/h
2308 30-09-2010 05:50:07 10.7 C 7.56 g/m*3 10.7 C 0 km/h
2309 30-09-2010 06:02:07 10.8 C 7.31 g/m*3 10.8 C 0 km/h
2310 30-09-2010 06:14:07 10.8 C 7.31 g/m*3 10.8 C 0 km/h
2311 30-09-2010 06:26:07 10.7 C 7.27 g/m*3 10.7 C 0 km/h
2312 30-09-2010 06:38:05 10.6 C 7.32 g/m*3 10.6 C 0 km/h
2313 30-09-2010 06:50:02 10.6 C 7.42 g/m*3 10.6 C 0 km/h
2314 30-09-2010 07:02:02 10.7 C 7.56 g/m*3 10.7 C 0 km/h
2315 30-09-2010 07:14:02 10.7 C 7.66 g/m*3 10.7 C 0 km/h
2316 30-09-2010 07:26:02 10.6 C 7.61 g/m*3 10.6 C 0 km/h
2317 30-09-2010 07:38:02 10.6 C 7.71 g/m*3 10.6 C 0 km/h
2318 30-09-2010 07:50:01 10.7 C 7.76 g/m*3 10.7 C 0 km/h
2319 30-09-2010 08:02:01 10.7 C 7.66 g/m*3 10.7 C 0 km/h
2320 30-09-2010 08:14:02 10.9 C 7.76 g/m*3 10.9 C 0 km/h
2321 30-09-2010 08:26:01 10.9 C 7.76 g/m*3 10.9 C 0 km/h
2322 30-09-2010 08:38:01 11 C 7.81 g/m*3 11 C 0 km/h
2323 30-09-2010 08:50:01 11 C 7.81 g/m*3 11 C 0 km/h
2324 30-09-2010 09:02:01 11.2 C 7.91 g/m*3 11.2 C 0 km/h
2325 30-09-2010 09:14:01 11.4 C 8.01 g/m*3 11.4 C 0 km/h
Sensor: Nr:Datum:Temp:Abs-Feuchte:Windchill:Wind:
Aussen-T/F 2326 30-09-2010 09:26:01 11.4 C 7.8 g/m*3 11.4 C 0 km/h
2327 30-09-2010 09:38:01 11.5 C 7.75 g/m*3 11.5 C 0 km/h
2328 30-09-2010 09:50:02 11.5 C 7.85 g/m*3 11.5 C 0 km/h
2329 30-09-2010 10:02:02 11.4 C 8.01 g/m*3 11.4 C 0 km/h
2330 30-09-2010 10:14:02 11.4 C 8.11 g/m*3 11.4 C 0 km/h
2331 30-09-2010 10:26:03 11.7 C 8.37 g/m*3 11.7 C 0 km/h
2332 30-09-2010 10:38:02 11.8 C 8.42 g/m*3 11.8 C 0 km/h
2333 30-09-2010 10:50:02 11.9 C 8.47 g/m*3 11.9 C 0 km/h
2334 30-09-2010 11:02:02 12 C 8.42 g/m*3 12 C 0 km/h
2335 30-09-2010 11:14:02 12 C 8.42 g/m*3 12 C 0 km/h
2336 30-09-2010 11:26:02 11.8 C 8.42 g/m*3 11.8 C 0 km/h
2337 30-09-2010 11:38:01 11.7 C 8.47 g/m*3 11.7 C 0 km/h
2338 30-09-2010 11:50:02 11.8 C 8.63 g/m*3 11.8 C 0 km/h
2339 30-09-2010 12:02:01 11.9 C 8.79 g/m*3 11.9 C 0 km/h
2340 30-09-2010 12:14:01 11.9 C 8.9 g/m*3 11.9 C 0 km/h
2341 30-09-2010 12:26:02 12 C 8.95 g/m*3 12 C 0 km/h
2342 30-09-2010 12:38:02 12.1 C 9.01 g/m*3 12.1 C 0 km/h
2343 30-09-2010 12:50:02 12 C 9.06 g/m*3 12 C 0 km/h
2344 30-09-2010 13:02:02 12.4 C 9.4 g/m*3 12.4 C 0 km/h
2345 30-09-2010 13:14:02 12.6 C 9.51 g/m*3 12.6 C 0 km/h
2346 30-09-2010 13:26:02 12.6 C 9.51 g/m*3 12.6 C 0 km/h
2347 30-09-2010 13:38:02 12.6 C 9.62 g/m*3 12.6 C 0 km/h
2348 30-09-2010 13:50:01 12.7 C 9.68 g/m*3 12.7 C 0 km/h
2349 30-09-2010 14:02:02 12.9 C 9.81 g/m*3 12.9 C 0 km/h
2350 30-09-2010 14:14:02 13 C 9.87 g/m*3 13 C 0 km/h
Sensor: Nr:Datum:Temp:Abs-Feuchte:Windchill:Wind:
Aussen-T/F 2351 30-09-2010 14:26:01 12.8 C 9.86 g/m*3 12.8 C 0 km/h
2352 30-09-2010 14:38:01 12.9 C 9.92 g/m*3 12.9 C 0 km/h
2353 30-09-2010 14:50:01 13.1 C 10.04 g/m*3 13.1 C 0 km/h
2354 30-09-2010 15:02:02 13.2 C 10.1 g/m*3 13.2 C 0 km/h
2355 30-09-2010 15:14:03 13.2 C 10.1 g/m*3 13.2 C 0 km/h
2356 30-09-2010 15:26:01 13.4 C 10.23 g/m*3 13.4 C 0 km/h
2357 30-09-2010 15:38:01 13.3 C 10.17 g/m*3 13.3 C 0 km/h
2358 30-09-2010 15:50:01 13.2 C 9.99 g/m*3 13.2 C 0 km/h
2359 30-09-2010 16:02:01 13.5 C 10.29 g/m*3 13.5 C 0 km/h
2360 30-09-2010 16:14:01 13.5 C 10.29 g/m*3 13.5 C 0 km/h
2361 30-09-2010 16:26:02 13.6 C 10.24 g/m*3 13.6 C 0 km/h
2362 30-09-2010 16:38:01 13.3 C 10.05 g/m*3 13.3 C 0 km/h
2363 30-09-2010 16:50:03 13.1 C 9.93 g/m*3 13.1 C 0 km/h
2364 30-09-2010 17:02:02 13.1 C 9.93 g/m*3 13.1 C 0 km/h
2365 30-09-2010 17:14:02 13 C 9.98 g/m*3 13 C 0 km/h
2366 30-09-2010 17:26:02 13 C 9.98 g/m*3 13 C 0 km/h
2367 30-09-2010 17:38:02 12.9 C 10.03 g/m*3 12.9 C 0 km/h
2368 30-09-2010 17:50:02 12.8 C 9.97 g/m*3 12.8 C 0 km/h
2369 30-09-2010 18:02:02 12.7 C 9.91 g/m*3 12.7 C 0 km/h
2370 30-09-2010 18:14:02 12.5 C 9.78 g/m*3 12.5 C 0 km/h
2371 30-09-2010 18:26:02 12.5 C 9.78 g/m*3 12.5 C 0 km/h
2372 30-09-2010 18:38:02 12.4 C 9.83 g/m*3 12.4 C 0 km/h
2373 30-09-2010 18:50:01 12.3 C 9.77 g/m*3 12.3 C 0 km/h
2374 30-09-2010 19:02:02 12.2 C 9.71 g/m*3 12.2 C 0 km/h
2375 30-09-2010 19:14:02 12.1 C 9.76 g/m*3 12.1 C 0 km/h
Sensor: Nr:Datum:Temp:Abs-Feuchte:Windchill:Wind:
Aussen-T/F 2376 30-09-2010 19:26:02 12.1 C 9.76 g/m*3 12.1 C 0 km/h
2377 30-09-2010 19:38:02 12.2 C 9.82 g/m*3 12.2 C 0 km/h
2378 30-09-2010 19:50:02 12.1 C 9.87 g/m*3 12.1 C 0 km/h
2379 30-09-2010 20:02:02 12.2 C 9.93 g/m*3 12.2 C 0 km/h
2380 30-09-2010 20:14:02 12.2 C 9.93 g/m*3 12.2 C 0 km/h
2381 30-09-2010 20:26:02 12.1 C 9.87 g/m*3 12.1 C 0 km/h
2382 30-09-2010 20:38:01 12.1 C 9.87 g/m*3 12.1 C 0 km/h
2383 30-09-2010 20:50:02 12.2 C 10.04 g/m*3 12.2 C 0 km/h
2384 30-09-2010 21:02:01 12.1 C 9.97 g/m*3 12.1 C 0 km/h
2385 30-09-2010 21:14:01 12.1 C 9.97 g/m*3 12.1 C 0 km/h
2386 30-09-2010 21:26:02 12.1 C 9.97 g/m*3 12.1 C 0 km/h
2387 30-09-2010 21:38:01 12.1 C 9.97 g/m*3 12.1 C 0 km/h
2388 30-09-2010 21:50:02 12 C 9.91 g/m*3 12 C 0 km/h
2389 30-09-2010 22:02:02 12 C 9.91 g/m*3 12 C 0 km/h
2390 30-09-2010 22:14:02 12 C 9.91 g/m*3 12 C 0 km/h
2391 30-09-2010 22:26:02 11.9 C 9.96 g/m*3 11.9 C 0 km/h
2392 30-09-2010 22:38:02 11.9 C 9.96 g/m*3 11.9 C 0 km/h
2393 30-09-2010 22:50:01 12 C 9.91 g/m*3 12 C 0 km/h
2394 30-09-2010 23:03:03 12 C 9.91 g/m*3 12 C 0 km/h
2395 30-09-2010 23:15:03 11.9 C 9.96 g/m*3 11.9 C 0 km/h
2396 30-09-2010 23:27:03 12 C 10.02 g/m*3 12 C 0 km/h
2397 30-09-2010 23:39:03 12.1 C 10.08 g/m*3 12.1 C 0 km/h
2398 30-09-2010 23:51:03 12 C 10.02 g/m*3 12 C 0 km/h
2399 01-10-2010 00:03:03 12.1 C 10.08 g/m*3 12.1 C 0 km/h
2400 01-10-2010 00:15:03 12 C 10.02 g/m*3 12 C 0 km/h
Sensor: Nr:Datum:Temp:Abs-Feuchte:Windchill:Wind:
Aussen-T/F 2401 01-10-2010 00:27:03 12.1 C 10.08 g/m*3 12.1 C 0 km/h
2402 01-10-2010 00:39:03 12.1 C 10.08 g/m*3 12.1 C 0 km/h
2403 01-10-2010 00:51:03 11.8 C 10 g/m*3 11.8 C 0 km/h
2404 01-10-2010 01:03:03 11.6 C 9.87 g/m*3 11.6 C 0 km/h
2405 01-10-2010 01:15:04 11.7 C 9.94 g/m*3 11.7 C 0 km/h
2406 01-10-2010 01:27:04 11.6 C 9.87 g/m*3 11.6 C 0 km/h
2407 01-10-2010 01:39:04 11.5 C 9.81 g/m*3 11.5 C 0 km/h
2408 01-10-2010 01:51:04 11.5 C 9.81 g/m*3 11.5 C 0 km/h
2409 01-10-2010 02:03:04 11.5 C 9.81 g/m*3 11.5 C 0 km/h
2410 01-10-2010 02:15:04 11.4 C 9.75 g/m*3 11.4 C 0 km/h
2411 01-10-2010 02:27:04 11.4 C 9.75 g/m*3 11.4 C 0 km/h
2412 01-10-2010 02:39:04 11.4 C 9.75 g/m*3 11.4 C 0 km/h
2413 01-10-2010 02:51:04 11.5 C 9.81 g/m*3 11.5 C 0 km/h
2414 01-10-2010 03:03:04 11.5 C 9.81 g/m*3 11.5 C 0 km/h
2415 01-10-2010 03:15:04 11.5 C 9.81 g/m*3 11.5 C 0 km/h
2416 01-10-2010 03:27:04 11.5 C 9.81 g/m*3 11.5 C 0 km/h
2417 01-10-2010 03:39:04 11.5 C 9.81 g/m*3 11.5 C 0 km/h
2418 01-10-2010 03:51:04 11.8 C 10 g/m*3 11.8 C 0 km/h
2419 01-10-2010 04:03:04 11.7 C 9.94 g/m*3 11.7 C 0 km/h
2420 01-10-2010 04:15:04 11.7 C 9.94 g/m*3 11.7 C 0 km/h
2421 01-10-2010 04:27:04 11.7 C 9.94 g/m*3 11.7 C 0 km/h
2422 01-10-2010 04:39:04 11.7 C 9.94 g/m*3 11.7 C 0 km/h
2423 01-10-2010 04:51:04 11.7 C 9.94 g/m*3 11.7 C 0 km/h
2424 01-10-2010 05:03:04 11.7 C 9.94 g/m*3 11.7 C 0 km/h
2425 01-10-2010 05:15:04 11.7 C 9.94 g/m*3 11.7 C 0 km/h
Sensor: Nr:Datum:Temp:Abs-Feuchte:Windchill:Wind:
Aussen-T/F 2426 01-10-2010 05:27:04 11.7 C 9.94 g/m*3 11.7 C 0 km/h
2427 01-10-2010 05:39:04 11.5 C 9.81 g/m*3 11.5 C 0 km/h
2428 01-10-2010 05:51:05 11.5 C 9.81 g/m*3 11.5 C 0 km/h
2429 01-10-2010 06:03:05 11.4 C 9.75 g/m*3 11.4 C 0 km/h
2430 01-10-2010 06:15:05 11.4 C 9.75 g/m*3 11.4 C 0 km/h
2431 01-10-2010 06:27:05 11.4 C 9.75 g/m*3 11.4 C 0 km/h
2432 01-10-2010 06:39:05 11.4 C 9.75 g/m*3 11.4 C 0 km/h
2433 01-10-2010 06:51:05 11.4 C 9.75 g/m*3 11.4 C 0 km/h
2434 01-10-2010 07:03:05 11.3 C 9.69 g/m*3 11.3 C 0 km/h
2435 01-10-2010 07:15:02 11.3 C 9.69 g/m*3 11.3 C 0 km/h
2436 01-10-2010 07:27:02 11 C 9.51 g/m*3 11 C 0 km/h
2437 01-10-2010 07:39:02 10.8 C 9.39 g/m*3 10.8 C 0 km/h
2438 01-10-2010 07:51:02 10.6 C 9.27 g/m*3 10.6 C 0 km/h
2439 01-10-2010 08:03:02 10.4 C 9.16 g/m*3 10.4 C 0 km/h
2440 01-10-2010 08:15:02 10.3 C 9.1 g/m*3 10.3 C 0 km/h
2441 01-10-2010 08:27:02 10.2 C 9.04 g/m*3 10.2 C 0 km/h
2442 01-10-2010 08:39:02 10.2 C 9.04 g/m*3 10.2 C 0 km/h
2443 01-10-2010 08:51:02 10.4 C 9.16 g/m*3 10.4 C 0 km/h
2444 01-10-2010 09:03:02 10.7 C 9.33 g/m*3 10.7 C 0 km/h
2445 01-10-2010 09:15:01 11.1 C 9.57 g/m*3 11.1 C 0 km/h
2446 01-10-2010 09:27:01 11.3 C 9.69 g/m*3 11.3 C 0 km/h
2447 01-10-2010 09:39:02 11.4 C 9.75 g/m*3 11.4 C 0 km/h
2448 01-10-2010 09:51:02 11.7 C 9.94 g/m*3 11.7 C 0 km/h
2449 01-10-2010 10:03:02 11.7 C 9.94 g/m*3 11.7 C 0 km/h
2450 01-10-2010 10:15:02 11.7 C 9.83 g/m*3 11.7 C 0 km/h
Sensor: Nr:Datum:Temp:Abs-Feuchte:Windchill:Wind:
Aussen-T/F 2451 01-10-2010 10:27:02 11.6 C 9.56 g/m*3 11.6 C 0 km/h
2452 01-10-2010 10:39:02 11.7 C 9.52 g/m*3 11.7 C 0 km/h
2453 01-10-2010 10:51:02 11.9 C 9.32 g/m*3 11.9 C 0 km/h
2454 01-10-2010 11:03:02 12.1 C 9.12 g/m*3 12.1 C 0 km/h
2455 01-10-2010 11:15:02 12.2 C 8.85 g/m*3 12.2 C 0 km/h
2456 01-10-2010 11:27:02 12.5 C 8.91 g/m*3 12.5 C 0 km/h
2457 01-10-2010 11:39:02 12.5 C 8.69 g/m*3 12.5 C 0 km/h
2458 01-10-2010 11:51:02 13 C 8.62 g/m*3 13 C 0 km/h
2459 01-10-2010 12:03:02 12.8 C 8.51 g/m*3 12.8 C 0 km/h
2460 01-10-2010 12:15:02 12.8 C 8.62 g/m*3 12.8 C 0 km/h
2461 01-10-2010 12:27:02 12.7 C 8.46 g/m*3 12.7 C 0 km/h
2462 01-10-2010 12:39:02 12.4 C 8.41 g/m*3 12.4 C 0 km/h
2463 01-10-2010 12:51:02 12.7 C 8.46 g/m*3 12.7 C 0 km/h
2464 01-10-2010 13:03:01 12.8 C 8.4 g/m*3 12.8 C 0 km/h
2465 01-10-2010 13:15:02 13.3 C 8.32 g/m*3 13.3 C 0 km/h
2466 01-10-2010 13:27:02 13.4 C 8.14 g/m*3 13.4 C 0 km/h
2467 01-10-2010 13:39:01 13.1 C 7.76 g/m*3 13.1 C 0 km/h
2468 01-10-2010 13:51:02 13.3 C 7.97 g/m*3 13.3 C 0 km/h
2469 01-10-2010 14:03:01 13.1 C 7.87 g/m*3 13.1 C 0 km/h
2470 01-10-2010 14:15:01 13.2 C 8.04 g/m*3 13.2 C 0 km/h
2471 01-10-2010 14:27:01 13.3 C 7.86 g/m*3 13.3 C 0 km/h
2472 01-10-2010 14:39:02 13.2 C 7.92 g/m*3 13.2 C 0 km/h
2473 01-10-2010 14:51:02 13.8 C 7.98 g/m*3 13.8 C 0 km/h
2474 01-10-2010 15:03:02 14.4 C 7.91 g/m*3 14.4 C 0 km/h
2475 01-10-2010 15:15:02 15.2 C 7.92 g/m*3 15.2 C 0 km/h
Sensor: Nr:Datum:Temp:Abs-Feuchte:Windchill:Wind:
Aussen-T/F 2476 01-10-2010 15:27:02 15.3 C 7.7 g/m*3 15.3 C 0 km/h
2477 01-10-2010 15:39:02 15.7 C 7.76 g/m*3 15.7 C 0 km/h
2478 01-10-2010 15:51:02 15.9 C 7.58 g/m*3 15.9 C 0 km/h
2479 01-10-2010 16:03:02 16 C 7.49 g/m*3 16 C 0 km/h
2480 01-10-2010 16:15:02 16.2 C 7.17 g/m*3 16.2 C 0 km/h
2481 01-10-2010 16:27:02 17.1 C 7.42 g/m*3 17.1 C 0 km/h
2482 01-10-2010 16:39:02 17.2 C 7.91 g/m*3 17.2 C 0 km/h
2483 01-10-2010 16:51:02 17.2 C 8.05 g/m*3 17.2 C 0 km/h
2484 01-10-2010 17:03:02 17.5 C 7.9 g/m*3 17.5 C 0 km/h
2485 01-10-2010 17:15:02 16.6 C 8.19 g/m*3 16.6 C 0 km/h
2486 01-10-2010 17:27:02 16 C 8.31 g/m*3 16 C 0 km/h
2487 01-10-2010 17:39:02 15.4 C 8.54 g/m*3 15.4 C 0 km/h
2488 01-10-2010 17:51:02 15.2 C 8.7 g/m*3 15.2 C 0 km/h
2489 01-10-2010 18:03:02 14.8 C 8.74 g/m*3 14.8 C 0 km/h
2490 01-10-2010 18:15:02 14.7 C 8.94 g/m*3 14.7 C 0 km/h
2491 01-10-2010 18:27:02 14.5 C 8.83 g/m*3 14.5 C 0 km/h
2492 01-10-2010 18:39:01 14.1 C 8.74 g/m*3 14.1 C 0 km/h
2493 01-10-2010 18:51:02 13.6 C 8.71 g/m*3 13.6 C 0 km/h
2494 01-10-2010 19:03:01 12.8 C 8.62 g/m*3 12.8 C 0 km/h
2495 01-10-2010 19:15:02 12.5 C 8.58 g/m*3 12.5 C 0 km/h
2496 01-10-2010 19:27:02 12.2 C 8.52 g/m*3 12.2 C 0 km/h
2497 01-10-2010 19:39:02 11.8 C 8.53 g/m*3 11.8 C 0 km/h
2498 01-10-2010 19:51:02 11.6 C 8.52 g/m*3 11.6 C 0 km/h
2499 01-10-2010 20:03:02 11.4 C 8.42 g/m*3 11.4 C 0 km/h
2500 01-10-2010 20:15:02 11.3 C 8.47 g/m*3 11.3 C 0 km/h
Sensor: Nr:Datum:Temp:Abs-Feuchte:Windchill:Wind:
Aussen-T/F 2501 01-10-2010 20:27:02 11.2 C 8.51 g/m*3 11.2 C 0 km/h
2502 01-10-2010 20:39:02 11.2 C 8.51 g/m*3 11.2 C 0 km/h
2503 01-10-2010 20:51:01 11.2 C 8.62 g/m*3 11.2 C 0 km/h
2504 01-10-2010 21:03:02 11.1 C 8.56 g/m*3 11.1 C 0 km/h
2505 01-10-2010 21:15:01 11 C 8.51 g/m*3 11 C 0 km/h
2506 01-10-2010 21:27:01 10.8 C 8.5 g/m*3 10.8 C 0 km/h
2507 01-10-2010 21:39:01 10.7 C 8.55 g/m*3 10.7 C 0 km/h
2508 01-10-2010 21:51:01 10.7 C 8.55 g/m*3 10.7 C 0 km/h
2509 01-10-2010 22:03:02 10.8 C 8.7 g/m*3 10.8 C 0 km/h
2510 01-10-2010 22:15:02 10.9 C 8.75 g/m*3 10.9 C 0 km/h
2511 01-10-2010 22:27:02 11 C 8.81 g/m*3 11 C 0 km/h
2512 01-10-2010 22:39:01 11.1 C 8.76 g/m*3 11.1 C 0 km/h
2513 01-10-2010 22:52:04 11.1 C 8.76 g/m*3 11.1 C 0 km/h
2514 01-10-2010 23:04:04 11.1 C 8.76 g/m*3 11.1 C 0 km/h
2515 01-10-2010 23:16:04 11.1 C 8.76 g/m*3 11.1 C 0 km/h
2516 01-10-2010 23:28:04 11 C 8.71 g/m*3 11 C 0 km/h
2517 01-10-2010 23:40:04 11 C 8.71 g/m*3 11 C 0 km/h
2518 01-10-2010 23:52:04 11.1 C 8.76 g/m*3 11.1 C 0 km/h
2519 02-10-2010 00:04:04 11.2 C 8.82 g/m*3 11.2 C 0 km/h
2520 02-10-2010 00:16:04 11.2 C 8.72 g/m*3 11.2 C 0 km/h
2521 02-10-2010 00:28:04 11.2 C 8.72 g/m*3 11.2 C 0 km/h
2522 02-10-2010 00:40:04 11.1 C 8.66 g/m*3 11.1 C 0 km/h
2523 02-10-2010 00:52:04 10.9 C 8.65 g/m*3 10.9 C 0 km/h
2524 02-10-2010 01:04:04 10.9 C 8.65 g/m*3 10.9 C 0 km/h
2525 02-10-2010 01:16:04 11 C 8.71 g/m*3 11 C 0 km/h
Sensor: Nr:Datum:Temp:Abs-Feuchte:Windchill:Wind:
Aussen-T/F 2526 02-10-2010 01:28:05 10.9 C 8.75 g/m*3 10.9 C 0 km/h
2527 02-10-2010 01:40:05 11 C 8.81 g/m*3 11 C 0 km/h
2528 02-10-2010 01:52:05 10.8 C 8.8 g/m*3 10.8 C 0 km/h
2529 02-10-2010 02:04:05 10.8 C 8.8 g/m*3 10.8 C 0 km/h
2530 02-10-2010 02:16:05 10.8 C 8.9 g/m*3 10.8 C 0 km/h
2531 02-10-2010 02:28:05 11 C 9.01 g/m*3 11 C 0 km/h
2532 02-10-2010 02:40:05 11.1 C 9.07 g/m*3 11.1 C 0 km/h
2533 02-10-2010 02:52:05 11.1 C 9.07 g/m*3 11.1 C 0 km/h
2534 02-10-2010 03:04:05 11.1 C 9.07 g/m*3 11.1 C 0 km/h
2535 02-10-2010 03:16:05 11.1 C 9.17 g/m*3 11.1 C 0 km/h
2536 02-10-2010 03:28:05 11.1 C 9.17 g/m*3 11.1 C 0 km/h
2537 02-10-2010 03:40:05 11.1 C 9.17 g/m*3 11.1 C 0 km/h
2538 02-10-2010 03:52:05 11.1 C 9.17 g/m*3 11.1 C 0 km/h
2539 02-10-2010 04:04:05 11.1 C 9.27 g/m*3 11.1 C 0 km/h
2540 02-10-2010 04:16:05 11.1 C 9.27 g/m*3 11.1 C 0 km/h
2541 02-10-2010 04:28:05 11.1 C 9.27 g/m*3 11.1 C 0 km/h
2542 02-10-2010 04:40:05 11.1 C 9.27 g/m*3 11.1 C 0 km/h
2543 02-10-2010 04:52:05 11 C 9.21 g/m*3 11 C 0 km/h
2544 02-10-2010 05:04:05 11 C 9.21 g/m*3 11 C 0 km/h
2545 02-10-2010 05:16:05 11 C 9.31 g/m*3 11 C 0 km/h
2546 02-10-2010 05:28:05 11 C 9.31 g/m*3 11 C 0 km/h
2547 02-10-2010 05:40:05 10.9 C 9.35 g/m*3 10.9 C 0 km/h
2548 02-10-2010 05:52:05 11 C 9.31 g/m*3 11 C 0 km/h
2549 02-10-2010 06:04:06 11 C 9.31 g/m*3 11 C 0 km/h
2550 02-10-2010 06:16:06 11 C 9.41 g/m*3 11 C 0 km/h
Sensor: Nr:Datum:Temp:Abs-Feuchte:Windchill:Wind:
Aussen-T/F 2551 02-10-2010 06:28:06 11 C 9.41 g/m*3 11 C 0 km/h
2552 02-10-2010 06:40:06 11 C 9.41 g/m*3 11 C 0 km/h
2553 02-10-2010 06:52:06 11 C 9.41 g/m*3 11 C 0 km/h
2554 02-10-2010 07:04:06 11 C 9.41 g/m*3 11 C 0 km/h
2555 02-10-2010 07:16:06 11.1 C 9.47 g/m*3 11.1 C 0 km/h
2556 02-10-2010 07:28:06 11.2 C 9.63 g/m*3 11.2 C 0 km/h
2557 02-10-2010 07:40:03 11.2 C 9.63 g/m*3 11.2 C 0 km/h
2558 02-10-2010 07:52:02 11.2 C 9.63 g/m*3 11.2 C 0 km/h
2559 02-10-2010 08:04:02 11.3 C 9.69 g/m*3 11.3 C 0 km/h
2560 02-10-2010 08:16:03 11.3 C 9.69 g/m*3 11.3 C 0 km/h
2561 02-10-2010 08:28:03 11.4 C 9.75 g/m*3 11.4 C 0 km/h
2562 02-10-2010 08:40:02 11.5 C 9.81 g/m*3 11.5 C 0 km/h
2563 02-10-2010 08:52:02 11.8 C 10 g/m*3 11.8 C 0 km/h
2564 02-10-2010 09:04:02 11.8 C 10 g/m*3 11.8 C 0 km/h
2565 02-10-2010 09:16:02 11.8 C 10 g/m*3 11.8 C 0 km/h
2566 02-10-2010 09:28:02 12 C 10.12 g/m*3 12 C 0 km/h
2567 02-10-2010 09:40:02 12.1 C 10.19 g/m*3 12.1 C 0 km/h
2568 02-10-2010 09:52:02 12.3 C 10.32 g/m*3 12.3 C 0 km/h
2569 02-10-2010 10:04:02 12.6 C 10.51 g/m*3 12.6 C 0 km/h
2570 02-10-2010 10:16:02 13 C 10.66 g/m*3 13 C 0 km/h
2571 02-10-2010 10:28:02 13 C 10.66 g/m*3 13 C 0 km/h
2572 02-10-2010 10:40:01 13.3 C 10.86 g/m*3 13.3 C 0 km/h
2573 02-10-2010 10:52:02 13.8 C 11.08 g/m*3 13.8 C 0 km/h
2574 02-10-2010 11:04:01 14 C 11.1 g/m*3 14 C 0 km/h
2575 02-10-2010 11:16:01 14.4 C 11.37 g/m*3 14.4 C 0 km/h
Sensor: Nr:Datum:Temp:Abs-Feuchte:Windchill:Wind:
Aussen-T/F 2576 02-10-2010 11:28:01 14.4 C 11.37 g/m*3 14.4 C 0 km/h
2577 02-10-2010 11:40:02 14.4 C 11.25 g/m*3 14.4 C 0 km/h
2578 02-10-2010 11:52:02 14.4 C 11.25 g/m*3 14.4 C 0 km/h
2579 02-10-2010 12:04:02 14.5 C 11.32 g/m*3 14.5 C 0 km/h
2580 02-10-2010 12:16:02 14.7 C 11.46 g/m*3 14.7 C 0 km/h
2581 02-10-2010 12:28:02 15.2 C 11.68 g/m*3 15.2 C 0 km/h
2582 02-10-2010 12:40:02 15.4 C 11.69 g/m*3 15.4 C 0 km/h
2583 02-10-2010 12:52:02 15.4 C 11.43 g/m*3 15.4 C 0 km/h
2584 02-10-2010 13:04:02 15.5 C 11.5 g/m*3 15.5 C 0 km/h
2585 02-10-2010 13:16:02 15.6 C 11.57 g/m*3 15.6 C 0 km/h
2586 02-10-2010 13:28:02 15.7 C 11.64 g/m*3 15.7 C 0 km/h
2587 02-10-2010 13:40:02 15.9 C 11.65 g/m*3 15.9 C 0 km/h
2588 02-10-2010 13:52:01 16 C 11.31 g/m*3 16 C 0 km/h
2589 02-10-2010 14:04:01 15.7 C 11.24 g/m*3 15.7 C 0 km/h
2590 02-10-2010 14:16:02 15.4 C 11.17 g/m*3 15.4 C 0 km/h
2591 02-10-2010 14:28:02 15.4 C 11.3 g/m*3 15.4 C 0 km/h
2592 02-10-2010 14:40:01 15.7 C 11.64 g/m*3 15.7 C 0 km/h
2593 02-10-2010 14:52:03 16 C 11.72 g/m*3 16 C 0 km/h
2594 02-10-2010 15:04:02 15.8 C 11.71 g/m*3 15.8 C 0 km/h
2595 02-10-2010 15:16:02 15.9 C 11.65 g/m*3 15.9 C 0 km/h
2596 02-10-2010 15:28:02 16 C 11.44 g/m*3 16 C 0 km/h
2597 02-10-2010 15:40:02 16.2 C 11.31 g/m*3 16.2 C 0 km/h
2598 02-10-2010 15:52:02 16.1 C 11.24 g/m*3 16.1 C 0 km/h
2599 02-10-2010 16:04:02 16.2 C 11.31 g/m*3 16.2 C 0 km/h
2600 02-10-2010 16:16:02 16.1 C 10.97 g/m*3 16.1 C 0 km/h
Sensor: Nr:Datum:Temp:Abs-Feuchte:Windchill:Wind:
Aussen-T/F 2601 02-10-2010 16:28:02 16.2 C 11.03 g/m*3 16.2 C 0 km/h
2602 02-10-2010 16:40:02 16.4 C 11.17 g/m*3 16.4 C 0 km/h
2603 02-10-2010 16:52:02 16.3 C 10.96 g/m*3 16.3 C 0 km/h
2604 02-10-2010 17:04:01 16.4 C 11.03 g/m*3 16.4 C 0 km/h
2605 02-10-2010 17:16:01 16.3 C 10.82 g/m*3 16.3 C 0 km/h
2606 02-10-2010 17:28:01 16.3 C 10.96 g/m*3 16.3 C 0 km/h
2607 02-10-2010 17:40:02 16.3 C 10.96 g/m*3 16.3 C 0 km/h
2608 02-10-2010 17:52:02 16.1 C 10.83 g/m*3 16.1 C 0 km/h
2609 02-10-2010 18:04:02 15.9 C 10.97 g/m*3 15.9 C 0 km/h
2610 02-10-2010 18:16:02 15.6 C 10.91 g/m*3 15.6 C 0 km/h
2611 02-10-2010 18:28:02 15.3 C 10.84 g/m*3 15.3 C 0 km/h
2612 02-10-2010 18:40:02 15.2 C 10.9 g/m*3 15.2 C 0 km/h
2613 02-10-2010 18:52:02 15.1 C 10.97 g/m*3 15.1 C 0 km/h
2614 02-10-2010 19:04:02 15 C 10.9 g/m*3 15 C 0 km/h
2615 02-10-2010 19:16:02 15 C 10.9 g/m*3 15 C 0 km/h
2616 02-10-2010 19:28:02 15 C 10.9 g/m*3 15 C 0 km/h
2617 02-10-2010 19:40:02 14.9 C 10.96 g/m*3 14.9 C 0 km/h
2618 02-10-2010 19:52:01 14.8 C 11.02 g/m*3 14.8 C 0 km/h
2619 02-10-2010 20:04:01 14.8 C 11.02 g/m*3 14.8 C 0 km/h
2620 02-10-2010 20:16:02 14.9 C 11.22 g/m*3 14.9 C 0 km/h
2621 02-10-2010 20:28:02 14.9 C 11.22 g/m*3 14.9 C 0 km/h
2622 02-10-2010 20:40:01 14.8 C 11.02 g/m*3 14.8 C 0 km/h
2623 02-10-2010 20:52:01 14.6 C 11.01 g/m*3 14.6 C 0 km/h
2624 02-10-2010 21:04:01 14.6 C 11.01 g/m*3 14.6 C 0 km/h
2625 02-10-2010 21:16:02 14.5 C 10.94 g/m*3 14.5 C 0 km/h
Sensor: Nr:Datum:Temp:Abs-Feuchte:Windchill:Wind:
Aussen-T/F 2626 02-10-2010 21:28:02 14.5 C 11.07 g/m*3 14.5 C 0 km/h
2627 02-10-2010 21:40:01 14.5 C 11.07 g/m*3 14.5 C 0 km/h
2628 02-10-2010 21:53:02 14.4 C 11 g/m*3 14.4 C 0 km/h
2629 02-10-2010 22:05:02 14.4 C 11 g/m*3 14.4 C 0 km/h
2630 02-10-2010 22:17:02 14.4 C 11.13 g/m*3 14.4 C 0 km/h
2631 02-10-2010 22:29:02 14.4 C 11.13 g/m*3 14.4 C 0 km/h
2632 02-10-2010 22:41:02 14.5 C 11.19 g/m*3 14.5 C 0 km/h
2633 02-10-2010 22:53:02 14.7 C 11.33 g/m*3 14.7 C 0 km/h
2634 02-10-2010 23:05:02 14.7 C 11.33 g/m*3 14.7 C 0 km/h
2635 02-10-2010 23:17:02 14.6 C 11.14 g/m*3 14.6 C 0 km/h
2636 02-10-2010 23:29:03 14.5 C 11.07 g/m*3 14.5 C 0 km/h
2637 02-10-2010 23:41:03 14.5 C 11.07 g/m*3 14.5 C 0 km/h
2638 02-10-2010 23:53:03 14.5 C 11.07 g/m*3 14.5 C 0 km/h
2639 03-10-2010 00:05:03 14.6 C 11.14 g/m*3 14.6 C 0 km/h
2640 03-10-2010 00:17:03 14.4 C 11 g/m*3 14.4 C 0 km/h
2641 03-10-2010 00:29:03 14.3 C 10.93 g/m*3 14.3 C 0 km/h
2642 03-10-2010 00:41:03 14.4 C 11.13 g/m*3 14.4 C 0 km/h
2643 03-10-2010 00:53:03 14.5 C 11.19 g/m*3 14.5 C 0 km/h
2644 03-10-2010 01:05:03 14.5 C 11.07 g/m*3 14.5 C 0 km/h
2645 03-10-2010 01:17:03 14.6 C 10.89 g/m*3 14.6 C 0 km/h
2646 03-10-2010 01:29:03 14.7 C 10.58 g/m*3 14.7 C 0 km/h
2647 03-10-2010 01:41:03 14.8 C 10.51 g/m*3 14.8 C 0 km/h
2648 03-10-2010 01:53:03 14.9 C 10.45 g/m*3 14.9 C 0 km/h
2649 03-10-2010 02:05:03 15 C 10.26 g/m*3 15 C 0 km/h
2650 03-10-2010 02:17:03 14.8 C 10.39 g/m*3 14.8 C 0 km/h
Sensor: Nr:Datum:Temp:Abs-Feuchte:Windchill:Wind:
Aussen-T/F 2651 03-10-2010 02:29:03 14.6 C 10.39 g/m*3 14.6 C 0 km/h
2652 03-10-2010 02:41:03 14.4 C 10.26 g/m*3 14.4 C 0 km/h
2653 03-10-2010 02:53:03 14.1 C 10.32 g/m*3 14.1 C 0 km/h
2654 03-10-2010 03:05:03 14 C 10.37 g/m*3 14 C 0 km/h
2655 03-10-2010 03:17:03 13.8 C 10.48 g/m*3 13.8 C 0 km/h
2656 03-10-2010 03:29:04 13.8 C 10.6 g/m*3 13.8 C 0 km/h
2657 03-10-2010 03:41:04 13.9 C 10.67 g/m*3 13.9 C 0 km/h
2658 03-10-2010 03:53:04 14.1 C 10.8 g/m*3 14.1 C 0 km/h
2659 03-10-2010 04:05:04 14 C 10.74 g/m*3 14 C 0 km/h
2660 03-10-2010 04:17:04 14.1 C 10.68 g/m*3 14.1 C 0 km/h
2661 03-10-2010 04:29:04 14 C 10.61 g/m*3 14 C 0 km/h
2662 03-10-2010 04:41:04 14 C 10.49 g/m*3 14 C 0 km/h
2663 03-10-2010 04:53:04 14.3 C 10.57 g/m*3 14.3 C 0 km/h
2664 03-10-2010 05:05:04 14.3 C 10.44 g/m*3 14.3 C 0 km/h
2665 03-10-2010 05:17:04 14.4 C 10.38 g/m*3 14.4 C 0 km/h
2666 03-10-2010 05:29:04 14.4 C 10.38 g/m*3 14.4 C 0 km/h
2667 03-10-2010 05:41:04 14.2 C 10.26 g/m*3 14.2 C 0 km/h
2668 03-10-2010 05:53:04 14 C 10.25 g/m*3 14 C 0 km/h
2669 03-10-2010 06:05:04 13.8 C 10.37 g/m*3 13.8 C 0 km/h
2670 03-10-2010 06:17:04 13.5 C 10.18 g/m*3 13.5 C 0 km/h
2671 03-10-2010 06:29:04 13.4 C 10.23 g/m*3 13.4 C 0 km/h
2672 03-10-2010 06:41:04 13.3 C 10.17 g/m*3 13.3 C 0 km/h
2673 03-10-2010 06:53:04 13.3 C 10.28 g/m*3 13.3 C 0 km/h
2674 03-10-2010 07:05:04 13.3 C 10.28 g/m*3 13.3 C 0 km/h
2675 03-10-2010 07:17:04 13.4 C 10.46 g/m*3 13.4 C 0 km/h
Sensor: Nr:Datum:Temp:Abs-Feuchte:Windchill:Wind:
Aussen-T/F 2676 03-10-2010 07:29:04 13.4 C 10.46 g/m*3 13.4 C 0 km/h
2677 03-10-2010 07:41:05 13.5 C 10.53 g/m*3 13.5 C 0 km/h
2678 03-10-2010 07:53:02 13.5 C 10.41 g/m*3 13.5 C 0 km/h
2679 03-10-2010 08:05:01 13.7 C 10.42 g/m*3 13.7 C 0 km/h
2680 03-10-2010 08:17:02 13.9 C 10.43 g/m*3 13.9 C 0 km/h
2681 03-10-2010 08:29:02 13.9 C 10.43 g/m*3 13.9 C 0 km/h
2682 03-10-2010 08:41:01 14.1 C 10.44 g/m*3 14.1 C 0 km/h
2683 03-10-2010 08:53:03 14.3 C 10.32 g/m*3 14.3 C 0 km/h
2684 03-10-2010 09:05:02 14.8 C 10.26 g/m*3 14.8 C 0 km/h
2685 03-10-2010 09:17:02 15 C 10 g/m*3 15 C 0 km/h
2686 03-10-2010 09:29:03 15.1 C 9.93 g/m*3 15.1 C 0 km/h
2687 03-10-2010 09:41:02 15.2 C 10.12 g/m*3 15.2 C 0 km/h
2688 03-10-2010 09:53:02 15.5 C 10.05 g/m*3 15.5 C 0 km/h
2689 03-10-2010 10:05:02 16.2 C 10.2 g/m*3 16.2 C 0 km/h
2690 03-10-2010 10:17:02 16.9 C 9.92 g/m*3 16.9 C 0 km/h
2691 03-10-2010 10:29:03 17 C 9.69 g/m*3 17 C 0 km/h
2692 03-10-2010 10:41:01 17 C 9.84 g/m*3 17 C 0 km/h
2693 03-10-2010 10:53:02 16.8 C 9.87 g/m*3 16.8 C 0 km/h
2694 03-10-2010 11:05:01 17.2 C 9.81 g/m*3 17.2 C 0 km/h
2695 03-10-2010 11:17:02 17.6 C 10.35 g/m*3 17.6 C 0 km/h
2696 03-10-2010 11:29:02 17.9 C 10.23 g/m*3 17.9 C 0 km/h
2697 03-10-2010 11:41:02 18.5 C 9.97 g/m*3 18.5 C 0 km/h
2698 03-10-2010 11:53:02 19.5 C 10.24 g/m*3 19.5 C 0 km/h
2699 03-10-2010 12:05:03 19.7 C 9.85 g/m*3 19.7 C 0 km/h
2700 03-10-2010 12:17:02 19.7 C 10.02 g/m*3 19.7 C 0 km/h
Sensor: Nr:Datum:Temp:Abs-Feuchte:Windchill:Wind:
Aussen-T/F 2701 03-10-2010 12:29:02 19.3 C 9.45 g/m*3 19.3 C 0 km/h
2702 03-10-2010 12:41:02 19.7 C 9.68 g/m*3 19.7 C 0 km/h
2703 03-10-2010 12:53:01 20 C 9.68 g/m*3 20 C 0 km/h
2704 03-10-2010 13:05:02 20.7 C 9.9 g/m*3 20.7 C 0 km/h
2705 03-10-2010 13:17:01 21.1 C 9.58 g/m*3 21.1 C 0 km/h
2706 03-10-2010 13:29:01 21.5 C 9.62 g/m*3 21.5 C 0 km/h
2707 03-10-2010 13:41:01 21.7 C 8.97 g/m*3 21.7 C 0 km/h
2708 03-10-2010 13:53:01 21.8 C 9.02 g/m*3 21.8 C 0 km/h
2709 03-10-2010 14:05:02 22.2 C 8.83 g/m*3 22.2 C 0 km/h
2710 03-10-2010 14:17:01 22.7 C 9.5 g/m*3 22.7 C 0 km/h
2711 03-10-2010 14:29:01 23.2 C 9.15 g/m*3 23.2 C 0 km/h
2712 03-10-2010 14:41:01 24.4 C 9.12 g/m*3 24.4 C 0 km/h
2713 03-10-2010 14:53:01 24.2 C 8.8 g/m*3 24.2 C 0 km/h
2714 03-10-2010 15:05:02 24.4 C 8.68 g/m*3 24.4 C 0 km/h
2715 03-10-2010 15:17:02 24.4 C 8.68 g/m*3 24.4 C 0 km/h
2716 03-10-2010 15:29:02 24.5 C 8.5 g/m*3 24.5 C 0 km/h
2717 03-10-2010 15:41:01 24.9 C 8.7 g/m*3 24.9 C 0 km/h
2718 03-10-2010 15:53:02 25.4 C 8.48 g/m*3 25.4 C 0 km/h
2719 03-10-2010 16:05:01 24.6 C 8.33 g/m*3 24.6 C 0 km/h
2720 03-10-2010 16:17:02 24.7 C 8.37 g/m*3 24.7 C 0 km/h
2721 03-10-2010 16:29:02 25.1 C 8.57 g/m*3 25.1 C 0 km/h
2722 03-10-2010 16:41:01 25.4 C 8.95 g/m*3 25.4 C 0 km/h
2723 03-10-2010 16:53:03 25.8 C 9.15 g/m*3 25.8 C 0 km/h
2724 03-10-2010 17:05:02 26.1 C 9.3 g/m*3 26.1 C 0 km/h
2725 03-10-2010 17:17:02 25.6 C 9.05 g/m*3 25.6 C 0 km/h
Sensor: Nr:Datum:Temp:Abs-Feuchte:Windchill:Wind:
Aussen-T/F 2726 03-10-2010 17:29:02 25.6 C 9.52 g/m*3 25.6 C 0 km/h
2727 03-10-2010 17:41:03 24.4 C 9.35 g/m*3 24.4 C 0 km/h
2728 03-10-2010 17:53:02 24.4 C 9.57 g/m*3 24.4 C 0 km/h
2729 03-10-2010 18:05:01 23.6 C 10.21 g/m*3 23.6 C 0 km/h
2730 03-10-2010 18:17:02 22.5 C 10.39 g/m*3 22.5 C 0 km/h
2731 03-10-2010 18:29:02 21.4 C 10.5 g/m*3 21.4 C 0 km/h
2732 03-10-2010 18:41:02 20.4 C 10.61 g/m*3 20.4 C 0 km/h
2733 03-10-2010 18:53:02 19.8 C 10.76 g/m*3 19.8 C 0 km/h
2734 03-10-2010 19:05:03 19.3 C 10.95 g/m*3 19.3 C 0 km/h
2735 03-10-2010 19:17:02 19 C 10.76 g/m*3 19 C 0 km/h
2736 03-10-2010 19:29:02 18.9 C 10.85 g/m*3 18.9 C 0 km/h
2737 03-10-2010 19:41:02 18.4 C 10.85 g/m*3 18.4 C 0 km/h
2738 03-10-2010 19:53:01 18.3 C 10.79 g/m*3 18.3 C 0 km/h
2739 03-10-2010 20:05:02 18.1 C 10.82 g/m*3 18.1 C 0 km/h
2740 03-10-2010 20:17:01 18.5 C 10.92 g/m*3 18.5 C 0 km/h
2741 03-10-2010 20:29:01 18.4 C 10.85 g/m*3 18.4 C 0 km/h
2742 03-10-2010 20:41:02 18.4 C 10.85 g/m*3 18.4 C 0 km/h
2743 03-10-2010 20:53:01 18.3 C 10.94 g/m*3 18.3 C 0 km/h
2744 03-10-2010 21:05:02 18.3 C 10.94 g/m*3 18.3 C 0 km/h
2745 03-10-2010 21:17:02 18.1 C 10.97 g/m*3 18.1 C 0 km/h
2746 03-10-2010 21:29:02 17.9 C 11.15 g/m*3 17.9 C 0 km/h
2747 03-10-2010 21:41:02 17.8 C 11.08 g/m*3 17.8 C 0 km/h
2748 03-10-2010 21:53:01 17.7 C 11.01 g/m*3 17.7 C 0 km/h
2749 03-10-2010 22:05:01 17.6 C 11.1 g/m*3 17.6 C 0 km/h
2750 03-10-2010 22:17:02 17.5 C 11.03 g/m*3 17.5 C 0 km/h
Sensor: Nr:Datum:Temp:Abs-Feuchte:Windchill:Wind:
Aussen-T/F 2751 03-10-2010 22:29:02 17.5 C 10.88 g/m*3 17.5 C 0 km/h
2752 03-10-2010 22:41:01 17.6 C 10.8 g/m*3 17.6 C 0 km/h
2753 03-10-2010 22:53:02 17.6 C 10.5 g/m*3 17.6 C 0 km/h
2754 03-10-2010 23:05:01 17.5 C 10.44 g/m*3 17.5 C 0 km/h
2755 03-10-2010 23:18:06 17.6 C 10.5 g/m*3 17.6 C 0 km/h
2756 03-10-2010 23:30:07 17.6 C 10.35 g/m*3 17.6 C 0 km/h
2757 03-10-2010 23:42:07 17.6 C 10.2 g/m*3 17.6 C 0 km/h
2758 03-10-2010 23:54:07 17.5 C 10.14 g/m*3 17.5 C 0 km/h
2759 04-10-2010 00:06:07 17.4 C 9.93 g/m*3 17.4 C 0 km/h
2760 04-10-2010 00:18:07 17.4 C 9.93 g/m*3 17.4 C 0 km/h
2761 04-10-2010 00:30:07 17.2 C 9.81 g/m*3 17.2 C 0 km/h
2762 04-10-2010 00:42:07 17.2 C 9.81 g/m*3 17.2 C 0 km/h
2763 04-10-2010 00:54:07 17.2 C 9.81 g/m*3 17.2 C 0 km/h
2764 04-10-2010 01:06:07 17.2 C 9.81 g/m*3 17.2 C 0 km/h
2765 04-10-2010 01:18:07 17.2 C 9.67 g/m*3 17.2 C 0 km/h
2766 04-10-2010 01:30:07 17.2 C 9.52 g/m*3 17.2 C 0 km/h
2767 04-10-2010 01:42:07 17.2 C 9.52 g/m*3 17.2 C 0 km/h
2768 04-10-2010 01:54:07 17.1 C 9.46 g/m*3 17.1 C 0 km/h
2769 04-10-2010 02:06:07 17 C 9.55 g/m*3 17 C 0 km/h
2770 04-10-2010 02:18:07 16.9 C 9.64 g/m*3 16.9 C 0 km/h
2771 04-10-2010 02:30:07 16.8 C 9.72 g/m*3 16.8 C 0 km/h
2772 04-10-2010 02:42:07 16.8 C 9.58 g/m*3 16.8 C 0 km/h
2773 04-10-2010 02:54:07 16.6 C 9.75 g/m*3 16.6 C 0 km/h
2774 04-10-2010 03:06:07 16.4 C 9.77 g/m*3 16.4 C 0 km/h
2775 04-10-2010 03:18:07 15.9 C 10.02 g/m*3 15.9 C 0 km/h
Sensor: Nr:Datum:Temp:Abs-Feuchte:Windchill:Wind:
Aussen-T/F 2776 04-10-2010 03:30:08 15.6 C 9.97 g/m*3 15.6 C 0 km/h
2777 04-10-2010 03:42:08 15.5 C 10.05 g/m*3 15.5 C 0 km/h
2778 04-10-2010 03:54:08 15.4 C 9.99 g/m*3 15.4 C 0 km/h
2779 04-10-2010 04:06:08 15.3 C 9.92 g/m*3 15.3 C 0 km/h
2780 04-10-2010 04:18:08 15.2 C 9.99 g/m*3 15.2 C 0 km/h
2781 04-10-2010 04:30:08 15.2 C 9.99 g/m*3 15.2 C 0 km/h
2782 04-10-2010 04:42:08 15 C 10 g/m*3 15 C 0 km/h
2783 04-10-2010 04:54:08 14.8 C 10.01 g/m*3 14.8 C 0 km/h
2784 04-10-2010 05:06:08 14.6 C 10.01 g/m*3 14.6 C 0 km/h
2785 04-10-2010 05:18:08 14.4 C 9.89 g/m*3 14.4 C 0 km/h
2786 04-10-2010 05:30:08 14.3 C 9.95 g/m*3 14.3 C 0 km/h
2787 04-10-2010 05:42:08 14.1 C 9.95 g/m*3 14.1 C 0 km/h
2788 04-10-2010 05:54:08 14.1 C 9.95 g/m*3 14.1 C 0 km/h
2789 04-10-2010 06:06:08 14.2 C 10.01 g/m*3 14.2 C 0 km/h
2790 04-10-2010 06:18:08 13.9 C 10.07 g/m*3 13.9 C 0 km/h
2791 04-10-2010 06:30:08 14 C 9.89 g/m*3 14 C 0 km/h
2792 04-10-2010 06:42:08 13.8 C 9.89 g/m*3 13.8 C 0 km/h
2793 04-10-2010 06:54:08 13.7 C 9.83 g/m*3 13.7 C 0 km/h
2794 04-10-2010 07:06:03 13.8 C 10.01 g/m*3 13.8 C 0 km/h
2795 04-10-2010 07:18:02 13.7 C 9.83 g/m*3 13.7 C 0 km/h
2796 04-10-2010 07:30:02 13.5 C 9.71 g/m*3 13.5 C 0 km/h
2797 04-10-2010 07:42:03 13.5 C 9.71 g/m*3 13.5 C 0 km/h
2798 04-10-2010 07:54:02 13.6 C 9.89 g/m*3 13.6 C 0 km/h
2799 04-10-2010 08:06:02 13.8 C 9.89 g/m*3 13.8 C 0 km/h
2800 04-10-2010 08:18:02 14.1 C 9.95 g/m*3 14.1 C 0 km/h
Sensor: Nr:Datum:Temp:Abs-Feuchte:Windchill:Wind:
Aussen-T/F 2801 04-10-2010 08:30:02 14.3 C 9.83 g/m*3 14.3 C 0 km/h
2802 04-10-2010 08:42:03 14.4 C 9.64 g/m*3 14.4 C 0 km/h
2803 04-10-2010 08:54:02 14.7 C 9.69 g/m*3 14.7 C 0 km/h
2804 04-10-2010 09:06:02 14.9 C 9.56 g/m*3 14.9 C 0 km/h
2805 04-10-2010 09:18:02 15 C 9.23 g/m*3 15 C 0 km/h
2806 04-10-2010 09:30:02 15 C 9.1 g/m*3 15 C 0 km/h
2807 04-10-2010 09:42:02 15 C 9.1 g/m*3 15 C 0 km/h
2808 04-10-2010 09:54:02 15.1 C 9.16 g/m*3 15.1 C 0 km/h
2809 04-10-2010 10:06:02 15.2 C 9.09 g/m*3 15.2 C 0 km/h
2810 04-10-2010 10:18:02 15.3 C 9.01 g/m*3 15.3 C 0 km/h
2811 04-10-2010 10:30:02 15.4 C 9.07 g/m*3 15.4 C 0 km/h
2812 04-10-2010 10:42:02 16 C 8.86 g/m*3 16 C 0 km/h
2813 04-10-2010 10:54:01 16.4 C 8.79 g/m*3 16.4 C 0 km/h
2814 04-10-2010 11:06:02 17.1 C 8.88 g/m*3 17.1 C 0 km/h
2815 04-10-2010 11:18:01 17.1 C 8.88 g/m*3 17.1 C 0 km/h
2816 04-10-2010 11:30:01 17.6 C 9 g/m*3 17.6 C 0 km/h
2817 04-10-2010 11:42:01 18 C 8.91 g/m*3 18 C 0 km/h
2818 04-10-2010 11:54:01 18.3 C 8.91 g/m*3 18.3 C 0 km/h
2819 04-10-2010 12:06:01 18.5 C 8.86 g/m*3 18.5 C 0 km/h
2820 04-10-2010 12:18:02 18 C 8.91 g/m*3 18 C 0 km/h
2821 04-10-2010 12:30:02 17.8 C 8.8 g/m*3 17.8 C 0 km/h
2822 04-10-2010 12:42:01 17.5 C 8.65 g/m*3 17.5 C 0 km/h
2823 04-10-2010 12:54:02 17.4 C 8.6 g/m*3 17.4 C 0 km/h
2824 04-10-2010 13:06:01 17.9 C 8.7 g/m*3 17.9 C 0 km/h
2825 04-10-2010 13:18:02 18.3 C 8.6 g/m*3 18.3 C 0 km/h
Sensor: Nr:Datum:Temp:Abs-Feuchte:Windchill:Wind:
Aussen-T/F 2826 04-10-2010 13:30:02 18.9 C 8.59 g/m*3 18.9 C 0 km/h
2827 04-10-2010 13:42:01 19.1 C 8.52 g/m*3 19.1 C 0 km/h
2828 04-10-2010 13:54:02 19.4 C 8.68 g/m*3 19.4 C 0 km/h
2829 04-10-2010 14:06:02 19.3 C 8.63 g/m*3 19.3 C 0 km/h
2830 04-10-2010 14:18:02 19.5 C 8.73 g/m*3 19.5 C 0 km/h
2831 04-10-2010 14:30:02 19.7 C 8.66 g/m*3 19.7 C 0 km/h
2832 04-10-2010 14:42:02 19.9 C 8.59 g/m*3 19.9 C 0 km/h
2833 04-10-2010 14:54:02 20.4 C 9.02 g/m*3 20.4 C 0 km/h
2834 04-10-2010 15:06:01 21.2 C 8.9 g/m*3 21.2 C 0 km/h
2835 04-10-2010 15:18:02 22.3 C 8.29 g/m*3 22.3 C 0 km/h
2836 04-10-2010 15:30:02 22.7 C 8.69 g/m*3 22.7 C 0 km/h
2837 04-10-2010 15:42:02 23 C 8.63 g/m*3 23 C 0 km/h
2838 04-10-2010 15:54:02 23.3 C 8.57 g/m*3 23.3 C 0 km/h
2839 04-10-2010 16:06:02 23.1 C 8.27 g/m*3 23.1 C 0 km/h
2840 04-10-2010 16:18:02 23.4 C 8.2 g/m*3 23.4 C 0 km/h
2841 04-10-2010 16:30:02 23.9 C 8.44 g/m*3 23.9 C 0 km/h
2842 04-10-2010 16:42:02 23.9 C 8 g/m*3 23.9 C 0 km/h
2843 04-10-2010 16:54:01 23.9 C 8.22 g/m*3 23.9 C 0 km/h
2844 04-10-2010 17:06:02 23.3 C 8.15 g/m*3 23.3 C 0 km/h
2845 04-10-2010 17:18:01 22 C 8.54 g/m*3 22 C 0 km/h
2846 04-10-2010 17:30:01 20.4 C 9.38 g/m*3 20.4 C 0 km/h
2847 04-10-2010 17:42:01 19.5 C 9.73 g/m*3 19.5 C 0 km/h
2848 04-10-2010 17:54:01 20.5 C 9.61 g/m*3 20.5 C 0 km/h
2849 04-10-2010 18:06:02 20.2 C 9.44 g/m*3 20.2 C 0 km/h
2850 04-10-2010 18:18:02 19.5 C 9.57 g/m*3 19.5 C 0 km/h
Sensor: Nr:Datum:Temp:Abs-Feuchte:Windchill:Wind:
Aussen-T/F 2851 04-10-2010 18:30:02 18.7 C 9.61 g/m*3 18.7 C 0 km/h
2852 04-10-2010 18:42:01 17.8 C 9.71 g/m*3 17.8 C 0 km/h
2853 04-10-2010 18:54:01 17.2 C 9.81 g/m*3 17.2 C 0 km/h
2854 04-10-2010 19:06:01 16.9 C 10.07 g/m*3 16.9 C 0 km/h
2855 04-10-2010 19:18:02 16.8 C 10.15 g/m*3 16.8 C 0 km/h
2856 04-10-2010 19:30:02 16.5 C 10.11 g/m*3 16.5 C 0 km/h
2857 04-10-2010 19:42:01 16.2 C 10.07 g/m*3 16.2 C 0 km/h
2858 04-10-2010 19:54:03 16.2 C 10.07 g/m*3 16.2 C 0 km/h
2859 04-10-2010 20:06:02 16.4 C 10.19 g/m*3 16.4 C 0 km/h
2860 04-10-2010 20:18:02 16.5 C 10.11 g/m*3 16.5 C 0 km/h
2861 04-10-2010 20:30:03 16.4 C 10.05 g/m*3 16.4 C 0 km/h
2862 04-10-2010 20:42:02 16.1 C 9.87 g/m*3 16.1 C 0 km/h
2863 04-10-2010 20:54:02 15.7 C 9.9 g/m*3 15.7 C 0 km/h
2864 04-10-2010 21:06:01 15.6 C 9.97 g/m*3 15.6 C 0 km/h
2865 04-10-2010 21:18:02 15.5 C 10.05 g/m*3 15.5 C 0 km/h
2866 04-10-2010 21:30:02 15.6 C 9.97 g/m*3 15.6 C 0 km/h
2867 04-10-2010 21:42:02 15.4 C 9.85 g/m*3 15.4 C 0 km/h
2868 04-10-2010 21:54:01 15 C 9.87 g/m*3 15 C 0 km/h
2869 04-10-2010 22:06:02 14.8 C 9.88 g/m*3 14.8 C 0 km/h
2870 04-10-2010 22:19:04 14.7 C 9.95 g/m*3 14.7 C 0 km/h
2871 04-10-2010 22:31:04 14.5 C 9.95 g/m*3 14.5 C 0 km/h
2872 04-10-2010 22:43:04 14.5 C 9.95 g/m*3 14.5 C 0 km/h
2873 04-10-2010 22:55:04 14.3 C 9.83 g/m*3 14.3 C 0 km/h
2874 04-10-2010 23:07:04 14.2 C 9.89 g/m*3 14.2 C 0 km/h
2875 04-10-2010 23:19:04 14.2 C 9.89 g/m*3 14.2 C 0 km/h
Sensor: Nr:Datum:Temp:Abs-Feuchte:Windchill:Wind:
Aussen-T/F 2876 04-10-2010 23:31:04 14.3 C 9.95 g/m*3 14.3 C 0 km/h
2877 04-10-2010 23:43:05 14.2 C 9.89 g/m*3 14.2 C 0 km/h
2878 04-10-2010 23:55:05 14.1 C 9.95 g/m*3 14.1 C 0 km/h
2879 05-10-2010 00:07:05 14.1 C 9.95 g/m*3 14.1 C 0 km/h
2880 05-10-2010 00:19:05 14.1 C 9.95 g/m*3 14.1 C 0 km/h
2881 05-10-2010 00:31:05 14.2 C 10.01 g/m*3 14.2 C 0 km/h
2882 05-10-2010 00:43:05 14.3 C 10.07 g/m*3 14.3 C 0 km/h
2883 05-10-2010 00:55:05 14.3 C 10.07 g/m*3 14.3 C 0 km/h
2884 05-10-2010 01:07:05 14.2 C 10.01 g/m*3 14.2 C 0 km/h
2885 05-10-2010 01:19:05 14.1 C 9.95 g/m*3 14.1 C 0 km/h
2886 05-10-2010 01:31:05 13.8 C 9.77 g/m*3 13.8 C 0 km/h
2887 05-10-2010 01:43:05 13.8 C 9.89 g/m*3 13.8 C 0 km/h
2888 05-10-2010 01:55:05 13.8 C 9.89 g/m*3 13.8 C 0 km/h
2889 05-10-2010 02:07:05 13.4 C 9.65 g/m*3 13.4 C 0 km/h
2890 05-10-2010 02:19:05 13.5 C 9.71 g/m*3 13.5 C 0 km/h
2891 05-10-2010 02:31:05 13.5 C 9.83 g/m*3 13.5 C 0 km/h
2892 05-10-2010 02:43:05 13.6 C 10 g/m*3 13.6 C 0 km/h
2893 05-10-2010 02:55:05 13.6 C 10 g/m*3 13.6 C 0 km/h
2894 05-10-2010 03:07:05 13.6 C 10 g/m*3 13.6 C 0 km/h
2895 05-10-2010 03:19:05 13.6 C 10 g/m*3 13.6 C 0 km/h
2896 05-10-2010 03:31:05 13.7 C 10.07 g/m*3 13.7 C 0 km/h
2897 05-10-2010 03:43:05 13.6 C 10 g/m*3 13.6 C 0 km/h
2898 05-10-2010 03:55:06 13.5 C 9.94 g/m*3 13.5 C 0 km/h
2899 05-10-2010 04:07:06 13.5 C 9.94 g/m*3 13.5 C 0 km/h
2900 05-10-2010 04:19:06 13.6 C 10.12 g/m*3 13.6 C 0 km/h
Sensor: Nr:Datum:Temp:Abs-Feuchte:Windchill:Wind:
Aussen-T/F 2901 05-10-2010 04:31:06 13.6 C 10.12 g/m*3 13.6 C 0 km/h
2902 05-10-2010 04:43:06 13.6 C 10.12 g/m*3 13.6 C 0 km/h
2903 05-10-2010 04:55:06 13.7 C 10.18 g/m*3 13.7 C 0 km/h
2904 05-10-2010 05:07:06 13.7 C 10.18 g/m*3 13.7 C 0 km/h
2905 05-10-2010 05:19:06 13.7 C 10.18 g/m*3 13.7 C 0 km/h
2906 05-10-2010 05:31:06 13.6 C 10.12 g/m*3 13.6 C 0 km/h
2907 05-10-2010 05:43:06 13.5 C 10.06 g/m*3 13.5 C 0 km/h
2908 05-10-2010 05:55:06 13.5 C 10.18 g/m*3 13.5 C 0 km/h
2909 05-10-2010 06:07:06 13.4 C 10.23 g/m*3 13.4 C 0 km/h
2910 05-10-2010 06:19:06 13.4 C 10.35 g/m*3 13.4 C 0 km/h
2911 05-10-2010 06:31:06 13.4 C 10.35 g/m*3 13.4 C 0 km/h
2912 05-10-2010 06:43:06 13.4 C 10.46 g/m*3 13.4 C 0 km/h
2913 05-10-2010 06:55:06 13.5 C 10.53 g/m*3 13.5 C 0 km/h
2914 05-10-2010 07:07:01 13.4 C 10.46 g/m*3 13.4 C 0 km/h
2915 05-10-2010 07:19:02 13.4 C 10.58 g/m*3 13.4 C 0 km/h
2916 05-10-2010 07:31:02 13.4 C 10.58 g/m*3 13.4 C 0 km/h
2917 05-10-2010 07:43:02 13.4 C 10.58 g/m*3 13.4 C 0 km/h
2918 05-10-2010 07:55:02 13.4 C 10.58 g/m*3 13.4 C 0 km/h
2919 05-10-2010 08:07:02 13.4 C 10.58 g/m*3 13.4 C 0 km/h
2920 05-10-2010 08:19:02 13.2 C 10.45 g/m*3 13.2 C 0 km/h
2921 05-10-2010 08:31:02 13.1 C 10.38 g/m*3 13.1 C 0 km/h
2922 05-10-2010 08:43:02 13 C 10.32 g/m*3 13 C 0 km/h
2923 05-10-2010 08:55:02 13 C 10.32 g/m*3 13 C 0 km/h
2924 05-10-2010 09:07:02 13 C 10.43 g/m*3 13 C 0 km/h
2925 05-10-2010 09:19:02 13.2 C 10.56 g/m*3 13.2 C 0 km/h
Sensor: Nr:Datum:Temp:Abs-Feuchte:Windchill:Wind:
Aussen-T/F 2926 05-10-2010 09:31:01 13.4 C 10.69 g/m*3 13.4 C 0 km/h
2927 05-10-2010 09:43:01 13.4 C 10.81 g/m*3 13.4 C 0 km/h
2928 05-10-2010 09:55:02 13.5 C 10.88 g/m*3 13.5 C 0 km/h
2929 05-10-2010 10:07:01 13.8 C 11.08 g/m*3 13.8 C 0 km/h
2930 05-10-2010 10:19:02 14.3 C 11.43 g/m*3 14.3 C 0 km/h
2931 05-10-2010 10:31:02 14.7 C 11.83 g/m*3 14.7 C 0 km/h
2932 05-10-2010 10:43:02 15.2 C 12.07 g/m*3 15.2 C 0 km/h
2933 05-10-2010 10:55:02 16 C 12.67 g/m*3 16 C 0 km/h
2934 05-10-2010 11:07:02 17.2 C 13.62 g/m*3 17.2 C 0 km/h
2935 05-10-2010 11:19:02 17.3 C 13.7 g/m*3 17.3 C 0 km/h
2936 05-10-2010 11:31:02 17.4 C 13.34 g/m*3 17.4 C 0 km/h
2937 05-10-2010 11:43:02 17.3 C 12.37 g/m*3 17.3 C 0 km/h
2938 05-10-2010 11:55:01 18.2 C 11.97 g/m*3 18.2 C 0 km/h
2939 05-10-2010 12:07:02 18.3 C 11.73 g/m*3 18.3 C 0 km/h
2940 05-10-2010 12:19:02 17.9 C 11.45 g/m*3 17.9 C 0 km/h
2941 05-10-2010 12:31:01 18 C 11.37 g/m*3 18 C 0 km/h
2942 05-10-2010 12:43:01 17.9 C 11.3 g/m*3 17.9 C 0 km/h
2943 05-10-2010 12:55:02 18.4 C 11.32 g/m*3 18.4 C 0 km/h
2944 05-10-2010 13:07:01 18.7 C 11.37 g/m*3 18.7 C 0 km/h
2945 05-10-2010 13:19:02 18.9 C 11.18 g/m*3 18.9 C 0 km/h
2946 05-10-2010 13:31:01 19 C 11.08 g/m*3 19 C 0 km/h
2947 05-10-2010 13:43:01 19.3 C 11.44 g/m*3 19.3 C 0 km/h
2948 05-10-2010 13:55:02 20 C 11.06 g/m*3 20 C 0 km/h
2949 05-10-2010 14:07:02 19.9 C 10.31 g/m*3 19.9 C 0 km/h
2950 05-10-2010 14:19:02 19.5 C 10.57 g/m*3 19.5 C 0 km/h
Sensor: Nr:Datum:Temp:Abs-Feuchte:Windchill:Wind:
Aussen-T/F 2951 05-10-2010 14:31:02 19.6 C 10.8 g/m*3 19.6 C 0 km/h
2952 05-10-2010 14:43:02 18.7 C 11.05 g/m*3 18.7 C 0 km/h
2953 05-10-2010 14:55:02 18.6 C 11.94 g/m*3 18.6 C 0 km/h
2954 05-10-2010 15:07:01 19 C 12.22 g/m*3 19 C 0 km/h
2955 05-10-2010 15:19:02 17.9 C 12.06 g/m*3 17.9 C 0 km/h
2956 05-10-2010 15:31:02 18.3 C 12.51 g/m*3 18.3 C 0 km/h
2957 05-10-2010 15:43:02 19.3 C 13.27 g/m*3 19.3 C 0 km/h
2958 05-10-2010 15:55:01 19.5 C 13.09 g/m*3 19.5 C 0 km/h
2959 05-10-2010 16:07:02 19 C 12.55 g/m*3 19 C 0 km/h
2960 05-10-2010 16:19:01 18.7 C 12.65 g/m*3 18.7 C 0 km/h
2961 05-10-2010 16:31:02 18.4 C 12.43 g/m*3 18.4 C 0 km/h
2962 05-10-2010 16:43:02 18.3 C 12.51 g/m*3 18.3 C 0 km/h
2963 05-10-2010 16:55:02 18.1 C 12.21 g/m*3 18.1 C 0 km/h
2964 05-10-2010 17:07:02 17.7 C 11.92 g/m*3 17.7 C 0 km/h
2965 05-10-2010 17:19:01 17.2 C 11.42 g/m*3 17.2 C 0 km/h
2966 05-10-2010 17:31:02 16.8 C 11.58 g/m*3 16.8 C 0 km/h
2967 05-10-2010 17:43:02 16.8 C 11.72 g/m*3 16.8 C 0 km/h
2968 05-10-2010 17:55:02 17 C 11.72 g/m*3 17 C 0 km/h
2969 05-10-2010 18:07:02 17.1 C 11.65 g/m*3 17.1 C 0 km/h
2970 05-10-2010 18:19:02 17.1 C 11.65 g/m*3 17.1 C 0 km/h
2971 05-10-2010 18:31:02 17.1 C 11.35 g/m*3 17.1 C 0 km/h
2972 05-10-2010 18:43:02 17 C 11.29 g/m*3 17 C 0 km/h
2973 05-10-2010 18:55:02 16.8 C 11.29 g/m*3 16.8 C 0 km/h
2974 05-10-2010 19:07:02 16.6 C 11.3 g/m*3 16.6 C 0 km/h
2975 05-10-2010 19:19:03 16.5 C 11.23 g/m*3 16.5 C 0 km/h
Sensor: Nr:Datum:Temp:Abs-Feuchte:Windchill:Wind:
Aussen-T/F 2976 05-10-2010 19:31:02 16.5 C 11.37 g/m*3 16.5 C 0 km/h
2977 05-10-2010 19:43:02 17.3 C 11.64 g/m*3 17.3 C 0 km/h
2978 05-10-2010 19:55:02 16.4 C 11.03 g/m*3 16.4 C 0 km/h
2979 05-10-2010 20:07:02 16.4 C 11.03 g/m*3 16.4 C 0 km/h
2980 05-10-2010 20:19:02 16.4 C 11.03 g/m*3 16.4 C 0 km/h
2981 05-10-2010 20:31:02 16.4 C 11.03 g/m*3 16.4 C 0 km/h
2982 05-10-2010 20:43:02 16.3 C 10.96 g/m*3 16.3 C 0 km/h
2983 05-10-2010 20:55:02 16.3 C 10.68 g/m*3 16.3 C 0 km/h
2984 05-10-2010 21:07:02 16.1 C 10.55 g/m*3 16.1 C 0 km/h
2985 05-10-2010 21:19:02 16 C 10.35 g/m*3 16 C 0 km/h
2986 05-10-2010 21:31:01 15.6 C 10.24 g/m*3 15.6 C 0 km/h
2987 05-10-2010 21:43:01 15.4 C 10.12 g/m*3 15.4 C 0 km/h
2988 05-10-2010 21:55:02 15.3 C 10.06 g/m*3 15.3 C 0 km/h
2989 05-10-2010 22:07:01 15.2 C 9.99 g/m*3 15.2 C 0 km/h
2990 05-10-2010 22:19:02 15.3 C 9.92 g/m*3 15.3 C 0 km/h
2991 05-10-2010 22:31:01 15.4 C 9.99 g/m*3 15.4 C 0 km/h
2992 05-10-2010 22:43:01 15.2 C 9.99 g/m*3 15.2 C 0 km/h
2993 05-10-2010 22:55:02 15.4 C 9.99 g/m*3 15.4 C 0 km/h
2994 05-10-2010 23:07:01 15.6 C 9.97 g/m*3 15.6 C 0 km/h
2995 05-10-2010 23:19:02 15.6 C 9.97 g/m*3 15.6 C 0 km/h
2996 05-10-2010 23:31:01 15.6 C 9.97 g/m*3 15.6 C 0 km/h
2997 05-10-2010 23:43:01 15.6 C 9.97 g/m*3 15.6 C 0 km/h
2998 05-10-2010 23:55:02 15.6 C 9.97 g/m*3 15.6 C 0 km/h
2999 06-10-2010 00:07:01 15.6 C 9.97 g/m*3 15.6 C 0 km/h
3000 06-10-2010 00:19:02 15.6 C 9.97 g/m*3 15.6 C 0 km/h
Sensor: Nr:Datum:Temp:Abs-Feuchte:Windchill:Wind:
Aussen-T/F 3001 06-10-2010 00:31:01 15.6 C 9.97 g/m*3 15.6 C 0 km/h
3002 06-10-2010 00:43:01 15.6 C 9.97 g/m*3 15.6 C 0 km/h
3003 06-10-2010 00:55:02 15.6 C 9.97 g/m*3 15.6 C 0 km/h
3004 06-10-2010 01:07:02 15.5 C 9.91 g/m*3 15.5 C 0 km/h
3005 06-10-2010 01:19:02 15.5 C 9.91 g/m*3 15.5 C 0 km/h
3006 06-10-2010 01:31:03 15.5 C 10.05 g/m*3 15.5 C 0 km/h
3007 06-10-2010 01:43:03 15.5 C 10.05 g/m*3 15.5 C 0 km/h
3008 06-10-2010 01:55:02 15.5 C 10.05 g/m*3 15.5 C 0 km/h
3009 06-10-2010 02:07:01 15.5 C 10.05 g/m*3 15.5 C 0 km/h
3010 06-10-2010 02:19:02 15.5 C 10.18 g/m*3 15.5 C 0 km/h
3011 06-10-2010 02:31:02 15.4 C 10.25 g/m*3 15.4 C 0 km/h
3012 06-10-2010 02:43:02 15.4 C 10.25 g/m*3 15.4 C 0 km/h
3013 06-10-2010 02:55:01 15.4 C 10.12 g/m*3 15.4 C 0 km/h
3014 06-10-2010 03:07:01 15.3 C 10.19 g/m*3 15.3 C 0 km/h
3015 06-10-2010 03:19:02 15.3 C 10.06 g/m*3 15.3 C 0 km/h
3016 06-10-2010 03:31:01 15.3 C 10.06 g/m*3 15.3 C 0 km/h
3017 06-10-2010 03:43:02 15.3 C 10.06 g/m*3 15.3 C 0 km/h
3018 06-10-2010 03:55:02 15.2 C 10.12 g/m*3 15.2 C 0 km/h
3019 06-10-2010 04:07:01 15.2 C 10.12 g/m*3 15.2 C 0 km/h
3020 06-10-2010 04:19:01 15.2 C 10.12 g/m*3 15.2 C 0 km/h
3021 06-10-2010 04:31:02 15.1 C 10.06 g/m*3 15.1 C 0 km/h
3022 06-10-2010 04:43:02 15 C 10 g/m*3 15 C 0 km/h
3023 06-10-2010 04:55:01 15 C 10.13 g/m*3 15 C 0 km/h
3024 06-10-2010 05:07:02 14.9 C 10.2 g/m*3 14.9 C 0 km/h
3025 06-10-2010 05:19:01 15 C 10.13 g/m*3 15 C 0 km/h
Sensor: Nr:Datum:Temp:Abs-Feuchte:Windchill:Wind:
Aussen-T/F 3026 06-10-2010 05:31:02 14.9 C 10.32 g/m*3 14.9 C 0 km/h
3027 06-10-2010 05:43:02 14.9 C 10.32 g/m*3 14.9 C 0 km/h
3028 06-10-2010 05:55:01 14.9 C 10.32 g/m*3 14.9 C 0 km/h
3029 06-10-2010 06:07:02 14.8 C 10.26 g/m*3 14.8 C 0 km/h
3030 06-10-2010 06:19:01 14.9 C 10.32 g/m*3 14.9 C 0 km/h
3031 06-10-2010 06:31:01 14.8 C 10.01 g/m*3 14.8 C 0 km/h
3032 06-10-2010 06:43:01 14.8 C 10.01 g/m*3 14.8 C 0 km/h
3033 06-10-2010 06:55:01 14.8 C 9.88 g/m*3 14.8 C 0 km/h
3034 06-10-2010 07:07:01 14.7 C 9.82 g/m*3 14.7 C 0 km/h
3035 06-10-2010 07:19:01 14.7 C 9.95 g/m*3 14.7 C 0 km/h
3036 06-10-2010 07:31:01 14.7 C 9.95 g/m*3 14.7 C 0 km/h
3037 06-10-2010 07:43:02 14.6 C 10.01 g/m*3 14.6 C 0 km/h
3038 06-10-2010 07:55:02 14.6 C 10.01 g/m*3 14.6 C 0 km/h
3039 06-10-2010 08:07:01 14.5 C 10.07 g/m*3 14.5 C 0 km/h
3040 06-10-2010 08:19:02 14.3 C 9.95 g/m*3 14.3 C 0 km/h
3041 06-10-2010 08:31:01 14.1 C 9.95 g/m*3 14.1 C 0 km/h
3042 06-10-2010 08:43:01 14.5 C 10.32 g/m*3 14.5 C 0 km/h
3043 06-10-2010 08:55:01 15.2 C 10.64 g/m*3 15.2 C 0 km/h
3044 06-10-2010 09:07:01 15.6 C 10.64 g/m*3 15.6 C 0 km/h
3045 06-10-2010 09:19:02 15.5 C 10.31 g/m*3 15.5 C 0 km/h
3046 06-10-2010 09:31:01 15.3 C 10.06 g/m*3 15.3 C 0 km/h
3047 06-10-2010 09:43:01 15.6 C 9.84 g/m*3 15.6 C 0 km/h
3048 06-10-2010 09:55:02 15.7 C 9.77 g/m*3 15.7 C 0 km/h
3049 06-10-2010 10:07:01 15.9 C 10.16 g/m*3 15.9 C 0 km/h
3050 06-10-2010 10:19:01 16.2 C 9.93 g/m*3 16.2 C 0 km/h
Sensor: Nr:Datum:Temp:Abs-Feuchte:Windchill:Wind:
Aussen-T/F 3051 06-10-2010 10:31:01 16.3 C 9.99 g/m*3 16.3 C 0 km/h
3052 06-10-2010 10:43:01 16.4 C 9.63 g/m*3 16.4 C 0 km/h
3053 06-10-2010 10:55:02 16.4 C 9.91 g/m*3 16.4 C 0 km/h
3054 06-10-2010 11:07:01 17.1 C 9.46 g/m*3 17.1 C 0 km/h
3055 06-10-2010 11:19:01 17.2 C 9.37 g/m*3 17.2 C 0 km/h
3056 06-10-2010 11:31:02 17.7 C 9.35 g/m*3 17.7 C 0 km/h
3057 06-10-2010 11:43:02 18.2 C 9.01 g/m*3 18.2 C 0 km/h
3058 06-10-2010 11:55:01 18.6 C 9.07 g/m*3 18.6 C 0 km/h
3059 06-10-2010 12:07:02 18.9 C 8.91 g/m*3 18.9 C 0 km/h
3060 06-10-2010 12:19:01 18.8 C 8.7 g/m*3 18.8 C 0 km/h
3061 06-10-2010 12:31:02 19 C 8.64 g/m*3 19 C 0 km/h
3062 06-10-2010 12:43:02 19.2 C 8.57 g/m*3 19.2 C 0 km/h
3063 06-10-2010 12:55:01 19.3 C 8.63 g/m*3 19.3 C 0 km/h
3064 06-10-2010 13:07:02 19.8 C 8.71 g/m*3 19.8 C 0 km/h
3065 06-10-2010 13:19:01 20.2 C 8.39 g/m*3 20.2 C 0 km/h
3066 06-10-2010 13:31:01 20.4 C 8.67 g/m*3 20.4 C 0 km/h
3067 06-10-2010 13:43:01 20.3 C 8.27 g/m*3 20.3 C 0 km/h
3068 06-10-2010 13:55:01 20.3 C 8.44 g/m*3 20.3 C 0 km/h
3069 06-10-2010 14:07:01 20.4 C 8.31 g/m*3 20.4 C 0 km/h
3070 06-10-2010 14:19:01 21 C 8.43 g/m*3 21 C 0 km/h
3071 06-10-2010 14:31:01 21.6 C 8.35 g/m*3 21.6 C 0 km/h
3072 06-10-2010 14:43:01 22.2 C 8.25 g/m*3 22.2 C 0 km/h
3073 06-10-2010 14:55:01 22.9 C 7.77 g/m*3 22.9 C 0 km/h
3074 06-10-2010 15:07:01 23.3 C 8.15 g/m*3 23.3 C 0 km/h
3075 06-10-2010 15:19:02 23.4 C 8.41 g/m*3 23.4 C 0 km/h
Sensor: Nr:Datum:Temp:Abs-Feuchte:Windchill:Wind:
Aussen-T/F 3076 06-10-2010 15:31:01 23.3 C 8.15 g/m*3 23.3 C 0 km/h
3077 06-10-2010 15:43:01 22.9 C 8.17 g/m*3 22.9 C 0 km/h
3078 06-10-2010 15:55:02 22.4 C 8.34 g/m*3 22.4 C 0 km/h
3079 06-10-2010 16:07:01 22.8 C 8.53 g/m*3 22.8 C 0 km/h
3080 06-10-2010 16:19:02 23.2 C 8.32 g/m*3 23.2 C 0 km/h
3081 06-10-2010 16:31:01 22.8 C 9.14 g/m*3 22.8 C 0 km/h
3082 06-10-2010 16:43:01 22.7 C 9.7 g/m*3 22.7 C 0 km/h
3083 06-10-2010 16:55:02 22.7 C 9.09 g/m*3 22.7 C 0 km/h
3084 06-10-2010 17:07:01 21.9 C 9.84 g/m*3 21.9 C 0 km/h
3085 06-10-2010 17:19:01 21.5 C 10.18 g/m*3 21.5 C 0 km/h
3086 06-10-2010 17:31:02 21.1 C 10.32 g/m*3 21.1 C 0 km/h
3087 06-10-2010 17:43:02 20.7 C 10.26 g/m*3 20.7 C 0 km/h
3088 06-10-2010 17:55:01 20.2 C 10.14 g/m*3 20.2 C 0 km/h
3089 06-10-2010 18:07:01 19.7 C 10.02 g/m*3 19.7 C 0 km/h
3090 06-10-2010 18:19:01 19.4 C 10.34 g/m*3 19.4 C 0 km/h
3091 06-10-2010 18:31:02 18.9 C 10.21 g/m*3 18.9 C 0 km/h
3092 06-10-2010 18:43:02 18.6 C 10.35 g/m*3 18.6 C 0 km/h
3093 06-10-2010 18:55:01 18.1 C 10.2 g/m*3 18.1 C 0 km/h
3094 06-10-2010 19:07:02 17.9 C 10.23 g/m*3 17.9 C 0 km/h
3095 06-10-2010 19:19:01 17.5 C 10.14 g/m*3 17.5 C 0 km/h
3096 06-10-2010 19:31:01 17.2 C 10.25 g/m*3 17.2 C 0 km/h
3097 06-10-2010 19:43:01 17 C 10.13 g/m*3 17 C 0 km/h
3098 06-10-2010 19:55:01 16.9 C 10.21 g/m*3 16.9 C 0 km/h
3099 06-10-2010 20:07:01 16.9 C 10.07 g/m*3 16.9 C 0 km/h
3100 06-10-2010 20:19:01 17 C 9.98 g/m*3 17 C 0 km/h
Sensor: Nr:Datum:Temp:Abs-Feuchte:Windchill:Wind:
Aussen-T/F 3101 06-10-2010 20:31:01 17 C 9.98 g/m*3 17 C 0 km/h
3102 06-10-2010 20:43:01 16.8 C 10.29 g/m*3 16.8 C 0 km/h
3103 06-10-2010 20:55:01 16.8 C 10.29 g/m*3 16.8 C 0 km/h
3104 06-10-2010 21:07:01 16.6 C 10.45 g/m*3 16.6 C 0 km/h
3105 06-10-2010 21:19:02 16.5 C 10.39 g/m*3 16.5 C 0 km/h
3106 06-10-2010 21:31:01 16.4 C 10.47 g/m*3 16.4 C 0 km/h
3107 06-10-2010 21:43:01 16.2 C 10.34 g/m*3 16.2 C 0 km/h
3108 06-10-2010 21:55:02 16.1 C 10.42 g/m*3 16.1 C 0 km/h
3109 06-10-2010 22:07:02 16 C 10.49 g/m*3 16 C 0 km/h
3110 06-10-2010 22:19:01 15.8 C 10.5 g/m*3 15.8 C 0 km/h
3111 06-10-2010 22:31:01 15.8 C 10.63 g/m*3 15.8 C 0 km/h
3112 06-10-2010 22:43:01 15.7 C 10.57 g/m*3 15.7 C 0 km/h
3113 06-10-2010 22:55:01 15.4 C 10.38 g/m*3 15.4 C 0 km/h
3114 06-10-2010 23:07:01 15.2 C 10.38 g/m*3 15.2 C 0 km/h
3115 06-10-2010 23:19:01 15 C 10.26 g/m*3 15 C 0 km/h
3116 06-10-2010 23:31:01 14.9 C 10.32 g/m*3 14.9 C 0 km/h
3117 06-10-2010 23:43:01 14.8 C 10.39 g/m*3 14.8 C 0 km/h
3118 06-10-2010 23:55:01 14.6 C 10.26 g/m*3 14.6 C 0 km/h
3119 07-10-2010 00:07:01 14.5 C 10.2 g/m*3 14.5 C 0 km/h
3120 07-10-2010 00:19:01 14.3 C 10.2 g/m*3 14.3 C 0 km/h
3121 07-10-2010 00:31:02 14.2 C 10.14 g/m*3 14.2 C 0 km/h
3122 07-10-2010 00:43:02 14.1 C 10.19 g/m*3 14.1 C 0 km/h
3123 07-10-2010 00:55:01 14 C 10.13 g/m*3 14 C 0 km/h
3124 07-10-2010 01:07:01 14 C 10.25 g/m*3 14 C 0 km/h
3125 07-10-2010 01:19:01 14.4 C 10.63 g/m*3 14.4 C 0 km/h
Sensor: Nr:Datum:Temp:Abs-Feuchte:Windchill:Wind:
Aussen-T/F 3126 07-10-2010 01:31:02 14.3 C 10.57 g/m*3 14.3 C 0 km/h
3127 07-10-2010 01:43:02 14.2 C 10.5 g/m*3 14.2 C 0 km/h
3128 07-10-2010 01:55:01 14.3 C 10.57 g/m*3 14.3 C 0 km/h
3129 07-10-2010 02:07:02 14.3 C 10.57 g/m*3 14.3 C 0 km/h
3130 07-10-2010 02:19:01 14.2 C 10.38 g/m*3 14.2 C 0 km/h
3131 07-10-2010 02:31:01 14.2 C 10.38 g/m*3 14.2 C 0 km/h
3132 07-10-2010 02:43:01 14.3 C 10.44 g/m*3 14.3 C 0 km/h
3133 07-10-2010 02:55:01 14.2 C 10.38 g/m*3 14.2 C 0 km/h
3134 07-10-2010 03:07:01 14.2 C 10.38 g/m*3 14.2 C 0 km/h
3135 07-10-2010 03:19:02 14.2 C 10.38 g/m*3 14.2 C 0 km/h
3136 07-10-2010 03:31:01 14 C 10.25 g/m*3 14 C 0 km/h
3137 07-10-2010 03:43:01 14 C 10.37 g/m*3 14 C 0 km/h
3138 07-10-2010 03:55:01 14 C 10.37 g/m*3 14 C 0 km/h
3139 07-10-2010 04:07:02 14.5 C 10.7 g/m*3 14.5 C 0 km/h
3140 07-10-2010 04:19:01 13.9 C 10.43 g/m*3 13.9 C 0 km/h
3141 07-10-2010 04:31:01 13.9 C 10.43 g/m*3 13.9 C 0 km/h
3142 07-10-2010 04:43:01 13.5 C 10.06 g/m*3 13.5 C 0 km/h
3143 07-10-2010 04:55:01 13.3 C 9.94 g/m*3 13.3 C 0 km/h
3144 07-10-2010 05:07:01 13.1 C 9.93 g/m*3 13.1 C 0 km/h
3145 07-10-2010 05:20:01 13 C 9.87 g/m*3 13 C 0 km/h
3146 07-10-2010 05:31:01 13.1 C 10.04 g/m*3 13.1 C 0 km/h
3147 07-10-2010 05:43:01 13.6 C 10.47 g/m*3 13.6 C 0 km/h
3148 07-10-2010 05:56:01 13.7 C 10.54 g/m*3 13.7 C 0 km/h
3149 07-10-2010 06:07:01 13.8 C 10.48 g/m*3 13.8 C 0 km/h
3150 07-10-2010 06:19:02 13.8 C 10.48 g/m*3 13.8 C 0 km/h
Sensor: Nr:Datum:Temp:Abs-Feuchte:Windchill:Wind:
Aussen-T/F 3151 07-10-2010 06:32:01 13.8 C 10.48 g/m*3 13.8 C 0 km/h
3152 07-10-2010 06:44:01 13.9 C 10.55 g/m*3 13.9 C 0 km/h
3153 07-10-2010 06:55:02 13.9 C 10.55 g/m*3 13.9 C 0 km/h
3154 07-10-2010 07:08:01 13.8 C 10.48 g/m*3 13.8 C 0 km/h
3155 07-10-2010 07:20:01 14 C 10.49 g/m*3 14 C 0 km/h
3156 07-10-2010 07:31:02 14.1 C 10.56 g/m*3 14.1 C 0 km/h
3157 07-10-2010 07:43:02 14.4 C 10.75 g/m*3 14.4 C 0 km/h
3158 07-10-2010 07:56:01 14.3 C 10.69 g/m*3 14.3 C 0 km/h
3159 07-10-2010 08:08:01 14.4 C 10.75 g/m*3 14.4 C 0 km/h
3160 07-10-2010 08:20:01 14.6 C 10.89 g/m*3 14.6 C 0 km/h
3161 07-10-2010 08:32:02 14.7 C 10.95 g/m*3 14.7 C 0 km/h
3162 07-10-2010 08:44:02 14.8 C 11.02 g/m*3 14.8 C 0 km/h
3163 07-10-2010 08:56:01 14.8 C 10.89 g/m*3 14.8 C 0 km/h
3164 07-10-2010 09:08:02 14.8 C 10.77 g/m*3 14.8 C 0 km/h
3165 07-10-2010 09:20:01 14.7 C 10.45 g/m*3 14.7 C 0 km/h
3166 07-10-2010 09:32:01 14.8 C 10.51 g/m*3 14.8 C 0 km/h
3167 07-10-2010 09:44:01 15.3 C 10.71 g/m*3 15.3 C 0 km/h
3168 07-10-2010 09:56:01 15.7 C 10.57 g/m*3 15.7 C 0 km/h
3169 07-10-2010 10:08:01 16.2 C 10.48 g/m*3 16.2 C 0 km/h
3170 07-10-2010 10:20:02 16.1 C 10.14 g/m*3 16.1 C 0 km/h
3171 07-10-2010 10:32:01 16.2 C 10.34 g/m*3 16.2 C 0 km/h
3172 07-10-2010 10:44:01 16.2 C 10.34 g/m*3 16.2 C 0 km/h
3173 07-10-2010 10:56:01 16.2 C 10.34 g/m*3 16.2 C 0 km/h
3174 07-10-2010 11:08:01 16.7 C 10.52 g/m*3 16.7 C 0 km/h
3175 07-10-2010 11:20:02 17.1 C 10.34 g/m*3 17.1 C 0 km/h
Sensor: Nr:Datum:Temp:Abs-Feuchte:Windchill:Wind:
Aussen-T/F 3176 07-10-2010 11:32:01 17.3 C 10.31 g/m*3 17.3 C 0 km/h
3177 07-10-2010 11:44:01 17.4 C 10.08 g/m*3 17.4 C 0 km/h
3178 07-10-2010 11:56:02 17.8 C 10.32 g/m*3 17.8 C 0 km/h
3179 07-10-2010 12:08:01 18.1 C 9.89 g/m*3 18.1 C 0 km/h
3180 07-10-2010 12:20:01 18.3 C 10.01 g/m*3 18.3 C 0 km/h
3181 07-10-2010 12:32:02 18.3 C 10.01 g/m*3 18.3 C 0 km/h
3182 07-10-2010 12:44:02 18.7 C 10.09 g/m*3 18.7 C 0 km/h
3183 07-10-2010 12:56:01 18.6 C 9.87 g/m*3 18.6 C 0 km/h
3184 07-10-2010 13:08:02 18.8 C 10.15 g/m*3 18.8 C 0 km/h
3185 07-10-2010 13:20:01 19.2 C 10.06 g/m*3 19.2 C 0 km/h
3186 07-10-2010 13:32:02 19.3 C 9.62 g/m*3 19.3 C 0 km/h
3187 07-10-2010 13:44:02 19.5 C 9.73 g/m*3 19.5 C 0 km/h
3188 07-10-2010 13:56:01 19.5 C 9.57 g/m*3 19.5 C 0 km/h
3189 07-10-2010 14:08:02 19.7 C 9.85 g/m*3 19.7 C 0 km/h
3190 07-10-2010 14:20:01 19.8 C 9.91 g/m*3 19.8 C 0 km/h
3191 07-10-2010 14:32:01 19.7 C 9.68 g/m*3 19.7 C 0 km/h
3192 07-10-2010 14:44:01 19.9 C 9.79 g/m*3 19.9 C 0 km/h
3193 07-10-2010 14:56:01 20.3 C 9.67 g/m*3 20.3 C 0 km/h
3194 07-10-2010 15:08:01 20.5 C 9.43 g/m*3 20.5 C 0 km/h
3195 07-10-2010 15:20:01 20.8 C 9.6 g/m*3 20.8 C 0 km/h
3196 07-10-2010 15:32:01 20.7 C 9.54 g/m*3 20.7 C 0 km/h
3197 07-10-2010 15:44:01 20.4 C 9.38 g/m*3 20.4 C 0 km/h
3198 07-10-2010 15:56:01 20.1 C 9.56 g/m*3 20.1 C 0 km/h
3199 07-10-2010 16:08:01 20 C 9.68 g/m*3 20 C 0 km/h
3200 07-10-2010 16:20:02 20.4 C 9.55 g/m*3 20.4 C 0 km/h
Sensor: Nr:Datum:Temp:Abs-Feuchte:Windchill:Wind:
Aussen-T/F 3201 07-10-2010 16:32:01 20.1 C 9.39 g/m*3 20.1 C 0 km/h
3202 07-10-2010 16:44:01 19.6 C 9.45 g/m*3 19.6 C 0 km/h
3203 07-10-2010 16:56:02 19.6 C 9.28 g/m*3 19.6 C 0 km/h
3204 07-10-2010 17:08:01 19.6 C 9.45 g/m*3 19.6 C 0 km/h
3205 07-10-2010 17:20:01 19.3 C 9.45 g/m*3 19.3 C 0 km/h
3206 07-10-2010 17:32:02 19.2 C 9.56 g/m*3 19.2 C 0 km/h
3207 07-10-2010 17:44:02 19 C 9.45 g/m*3 19 C 0 km/h
3208 07-10-2010 17:56:01 18.7 C 9.93 g/m*3 18.7 C 0 km/h
3209 07-10-2010 18:08:02 18.3 C 10.01 g/m*3 18.3 C 0 km/h
3210 07-10-2010 18:20:01 18.1 C 10.2 g/m*3 18.1 C 0 km/h
3211 07-10-2010 18:32:02 17.9 C 10.23 g/m*3 17.9 C 0 km/h
3212 07-10-2010 18:44:02 17.7 C 10.26 g/m*3 17.7 C 0 km/h
3213 07-10-2010 18:56:01 17.4 C 10.37 g/m*3 17.4 C 0 km/h
3214 07-10-2010 19:08:02 17.1 C 10.34 g/m*3 17.1 C 0 km/h
3215 07-10-2010 19:20:01 17 C 10.42 g/m*3 17 C 0 km/h
3216 07-10-2010 19:32:01 16.8 C 10.44 g/m*3 16.8 C 0 km/h
3217 07-10-2010 19:44:01 17 C 10.42 g/m*3 17 C 0 km/h
3218 07-10-2010 19:56:01 16.6 C 10.31 g/m*3 16.6 C 0 km/h
3219 07-10-2010 20:08:01 16.5 C 10.39 g/m*3 16.5 C 0 km/h
3220 07-10-2010 20:20:02 16.4 C 10.33 g/m*3 16.4 C 0 km/h
3221 07-10-2010 20:32:01 16.2 C 10.34 g/m*3 16.2 C 0 km/h
3222 07-10-2010 20:44:01 16.2 C 10.34 g/m*3 16.2 C 0 km/h
3223 07-10-2010 20:56:02 16.2 C 10.34 g/m*3 16.2 C 0 km/h
3224 07-10-2010 21:08:01 16.3 C 10.13 g/m*3 16.3 C 0 km/h
3225 07-10-2010 21:20:02 16.3 C 10.27 g/m*3 16.3 C 0 km/h
Sensor: Nr:Datum:Temp:Abs-Feuchte:Windchill:Wind:
Aussen-T/F 3226 07-10-2010 21:32:01 16.2 C 10.2 g/m*3 16.2 C 0 km/h
3227 07-10-2010 21:44:01 16.2 C 10.07 g/m*3 16.2 C 0 km/h
3228 07-10-2010 21:56:02 16.1 C 10.01 g/m*3 16.1 C 0 km/h
3229 07-10-2010 22:08:01 16 C 9.95 g/m*3 16 C 0 km/h
3230 07-10-2010 22:20:02 16 C 9.95 g/m*3 16 C 0 km/h
3231 07-10-2010 22:32:02